| time (UTC) | temp F | wind direction | speed MPH | gust MPH | rain 1hr in | rain 24hr in | rain mn in | humidity % | barometer mb |
| 20260831072752 | 79 | 360 | 5.0 | 10.0 | 0.00 | 0.00 | 0.00 | 81 | 1016.9 |
| 20260831072616 | 79 | 360 | 4.0 | 9.0 | 0.00 | 0.00 | 0.00 | 81 | 1016.9 |
| 20260831072517 | 79 | 360 | 4.0 | 9.0 | 0.00 | 0.00 | 0.00 | 81 | 1016.9 |
| 20260831072419 | 79 | 360 | 4.0 | 9.0 | 0.00 | 0.00 | 0.00 | 82 | 1016.9 |
| 20260831072319 | 79 | 360 | 3.0 | 9.0 | 0.00 | 0.00 | 0.00 | 82 | 1016.9 |
| 20260831072240 | 79 | 360 | 4.0 | 9.0 | 0.00 | 0.00 | 0.00 | 82 | 1016.9 |
| 20260831072140 | 79 | 360 | 4.0 | 8.0 | 0.00 | 0.00 | 0.00 | 81 | 1016.9 |
| 20260831072020 | 79 | 360 | 4.0 | 6.0 | 0.00 | 0.00 | 0.00 | 81 | 1016.9 |
| 20260831071940 | 79 | 360 | 4.0 | 10.0 | 0.00 | 0.00 | 0.00 | 81 | 1016.9 |
| 20260831071824 | 79 | 360 | 4.0 | 10.0 | 0.00 | 0.00 | 0.00 | 81 | 1017.0 |
| 20260831071723 | 79 | 360 | 4.0 | 10.0 | 0.00 | 0.00 | 0.00 | 81 | 1016.9 |
| 20260831071624 | 79 | 360 | 3.0 | 10.0 | 0.00 | 0.00 | 0.00 | 81 | 1016.9 |
| 20260831071525 | 80 | 360 | 3.0 | 10.0 | 0.00 | 0.00 | 0.00 | 81 | 1016.9 |
| 20260831071427 | 80 | 360 | 3.0 | 10.0 | 0.00 | 0.00 | 0.00 | 81 | 1016.9 |
| 20260831071348 | 80 | 360 | 2.0 | 13.0 | 0.00 | 0.00 | 0.00 | 81 | 1016.8 |
| 20260831071308 | 80 | 360 | 3.0 | 13.0 | 0.00 | 0.00 | 0.00 | 80 | 1016.8 |
| 20260831071022 | 80 | 360 | 5.0 | 13.0 | 0.00 | 0.00 | 0.00 | 80 | 1016.8 |
| 20260831070924 | 80 | 360 | 5.0 | 13.0 | 0.00 | 0.00 | 0.00 | 80 | 1016.8 |
| 20260831070826 | 80 | 360 | 6.0 | 13.0 | 0.00 | 0.00 | 0.00 | 80 | 1016.8 |
| 20260831070747 | 80 | 360 | 6.0 | 13.0 | 0.00 | 0.00 | 0.00 | 80 | 1016.8 |
| 20260831070627 | 80 | 360 | 6.0 | 13.0 | 0.00 | 0.00 | 0.00 | 80 | 1016.8 |
| 20260831070527 | 80 | 360 | 6.0 | 13.0 | 0.00 | 0.00 | 0.00 | 80 | 1016.9 |
| 20260831070428 | 80 | 360 | 6.0 | 13.0 | 0.00 | 0.00 | 0.00 | 80 | 1016.9 |
| 20260831070333 | 80 | 360 | 5.0 | 13.0 | 0.00 | 0.00 | 0.00 | 80 | 1016.9 |
| 20260831070234 | 80 | 360 | 5.0 | 13.0 | 0.00 | 0.00 | 0.00 | 80 | 1016.9 |
| 20260831070133 | 80 | 360 | 6.0 | 13.0 | 0.00 | 0.00 | 0.00 | 80 | 1016.9 |
| 20260831070034 | 80 | 185 | 6.0 | 13.0 | 0.00 | 0.00 | 0.00 | 80 | 1016.9 |
| 20260831065935 | 80 | 360 | 7.0 | 13.0 | 0.00 | 0.00 | 0.00 | 80 | 1016.9 |
| 20260831065817 | 80 | 360 | 6.0 | 11.0 | 0.00 | 0.00 | 0.00 | 79 | 1017.0 |
| 20260831065717 | 80 | 360 | 6.0 | 11.0 | 0.00 | 0.00 | 0.00 | 79 | 1017.0 |
| 20260831065642 | 80 | 360 | 6.0 | 11.0 | 0.00 | 0.00 | 0.00 | 79 | 1016.9 |
| 20260831065516 | 80 | 360 | 6.0 | 17.0 | 0.00 | 0.00 | 0.00 | 79 | 1016.9 |
| 20260831065416 | 80 | 360 | 6.0 | 17.0 | 0.00 | 0.00 | 0.00 | 79 | 1016.9 |
| 20260831065317 | 80 | 360 | 5.0 | 17.0 | 0.00 | 0.00 | 0.00 | 79 | 1017.0 |
| 20260831065218 | 80 | 360 | 4.0 | 17.0 | 0.00 | 0.00 | 0.00 | 79 | 1016.9 |
| 20260831065118 | 80 | 360 | 4.0 | 17.0 | 0.00 | 0.00 | 0.00 | 79 | 1017.0 |
| 20260831065040 | 80 | 360 | 4.0 | 17.0 | 0.00 | 0.00 | 0.00 | 79 | 1016.9 |
| 20260831064923 | 80 | 360 | 6.0 | 17.0 | 0.00 | 0.00 | 0.00 | 79 | 1016.9 |
| 20260831064824 | 80 | 360 | 6.0 | 17.0 | 0.00 | 0.00 | 0.00 | 79 | 1016.9 |
| 20260831064725 | 80 | 360 | 7.0 | 17.0 | 0.00 | 0.00 | 0.00 | 79 | 1016.9 |
| 20260831064645 | 80 | 360 | 6.0 | 15.0 | 0.00 | 0.00 | 0.00 | 78 | 1017.0 |
| 20260831064525 | 80 | 360 | 6.0 | 15.0 | 0.00 | 0.00 | 0.00 | 78 | 1016.9 |
| 20260831064447 | 80 | 360 | 5.0 | 15.0 | 0.00 | 0.00 | 0.00 | 78 | 1016.9 |
| 20260831064325 | 80 | 360 | 5.0 | 15.0 | 0.00 | 0.00 | 0.00 | 78 | 1017.0 |
| 20260831064230 | 81 | 360 | 5.0 | 15.0 | 0.00 | 0.00 | 0.00 | 78 | 1016.9 |
| 20260831064131 | 81 | 360 | 7.0 | 15.0 | 0.00 | 0.00 | 0.00 | 78 | 1016.9 |
| 20260831064031 | 81 | 360 | 8.0 | 15.0 | 0.00 | 0.00 | 0.00 | 78 | 1016.9 |
| 20260831063931 | 81 | 360 | 9.0 | 15.0 | 0.00 | 0.00 | 0.00 | 78 | 1016.9 |
| 20260831063852 | 81 | 360 | 9.0 | 16.0 | 0.00 | 0.00 | 0.00 | 78 | 1016.9 |
| 20260831063753 | 81 | 360 | 8.0 | 16.0 | 0.00 | 0.00 | 0.00 | 78 | 1017.0 |
| 20260831063633 | 81 | 360 | 7.0 | 16.0 | 0.00 | 0.00 | 0.00 | 78 | 1017.0 |
| 20260831063533 | 81 | 360 | 8.0 | 16.0 | 0.00 | 0.00 | 0.00 | 78 | 1017.0 |
| 20260831063453 | 81 | 360 | 9.0 | 16.0 | 0.00 | 0.00 | 0.00 | 77 | 1017.0 |
| 20260831063333 | 81 | 360 | 11.0 | 16.0 | 0.00 | 0.00 | 0.00 | 77 | 1017.0 |
| 20260831063232 | 81 | 360 | 10.0 | 16.0 | 0.00 | 0.00 | 0.00 | 77 | 1017.0 |
| 20260831063153 | 81 | 360 | 8.0 | 16.0 | 0.00 | 0.00 | 0.00 | 77 | 1017.0 |
| 20260831063032 | 81 | 360 | 6.0 | 16.0 | 0.00 | 0.00 | 0.00 | 77 | 1017.1 |
| 20260831062933 | 81 | 360 | 7.0 | 15.0 | 0.00 | 0.00 | 0.00 | 77 | 1017.1 |
| 20260831062834 | 81 | 360 | 7.0 | 15.0 | 0.00 | 0.00 | 0.00 | 77 | 1017.0 |
| 20260831062717 | 81 | 360 | 8.0 | 15.0 | 0.00 | 0.00 | 0.00 | 77 | 1017.1 |
| 20260831062618 | 81 | 360 | 8.0 | 14.0 | 0.00 | 0.00 | 0.00 | 77 | 1017.0 |
| 20260831062538 | 81 | 360 | 8.0 | 14.0 | 0.00 | 0.00 | 0.00 | 77 | 1017.1 |
| 20260831062438 | 81 | 360 | 8.0 | 14.0 | 0.00 | 0.00 | 0.00 | 77 | 1017.0 |
| 20260831062338 | 81 | 360 | 7.0 | 13.0 | 0.00 | 0.00 | 0.00 | 76 | 1017.1 |
| 20260831062216 | 81 | 360 | 6.0 | 19.0 | 0.00 | 0.00 | 0.00 | 76 | 1017.0 |
| 20260831062117 | 81 | 360 | 5.0 | 19.0 | 0.00 | 0.00 | 0.00 | 76 | 1017.0 |
| 20260831062016 | 81 | 360 | 5.0 | 19.0 | 0.00 | 0.00 | 0.00 | 76 | 1016.9 |
| 20260831061937 | 81 | 360 | 5.0 | 19.0 | 0.00 | 0.00 | 0.00 | 76 | 1017.0 |
| 20260831061820 | 81 | 360 | 5.0 | 19.0 | 0.00 | 0.00 | 0.00 | 76 | 1016.9 |
| 20260831061721 | 81 | 360 | 6.0 | 19.0 | 0.00 | 0.00 | 0.00 | 76 | 1016.9 |
| 20260831061620 | 81 | 360 | 7.0 | 19.0 | 0.00 | 0.00 | 0.00 | 76 | 1017.0 |
| 20260831061521 | 81 | 360 | 9.0 | 19.0 | 0.00 | 0.00 | 0.00 | 76 | 1016.9 |
| 20260831061422 | 81 | 360 | 8.0 | 19.0 | 0.00 | 0.00 | 0.00 | 76 | 1016.8 |
| 20260831061343 | 81 | 360 | 7.0 | 19.0 | 0.00 | 0.00 | 0.00 | 76 | 1016.8 |
| 20260831061221 | 81 | 360 | 4.0 | 13.0 | 0.00 | 0.00 | 0.00 | 76 | 1016.9 |
| 20260831061125 | 81 | 360 | 4.0 | 14.0 | 0.00 | 0.00 | 0.00 | 75 | 1016.9 |
| 20260831061025 | 81 | 360 | 5.0 | 14.0 | 0.00 | 0.00 | 0.00 | 75 | 1016.8 |
| 20260831060926 | 82 | 360 | 6.0 | 14.0 | 0.00 | 0.00 | 0.00 | 75 | 1016.8 |
| 20260831060846 | 82 | 360 | 6.0 | 14.0 | 0.00 | 0.00 | 0.00 | 76 | 1016.8 |
| 20260831060726 | 82 | 360 | 7.0 | 14.0 | 0.00 | 0.00 | 0.00 | 75 | 1016.8 |
| 20260831060626 | 82 | 360 | 7.0 | 14.0 | 0.00 | 0.00 | 0.00 | 75 | 1016.8 |
| 20260831060527 | 82 | 360 | 7.0 | 14.0 | 0.00 | 0.00 | 0.00 | 75 | 1016.7 |
| 20260831060430 | 82 | 360 | 7.0 | 14.0 | 0.00 | 0.00 | 0.00 | 75 | 1016.8 |
| 20260831060331 | 82 | 360 | 7.0 | 14.0 | 0.00 | 0.00 | 0.00 | 75 | 1016.8 |
| 20260831060230 | 82 | 360 | 6.0 | 13.0 | 0.00 | 0.00 | 0.00 | 76 | 1016.8 |
| 20260831060151 | 82 | 360 | 5.0 | 13.0 | 0.00 | 0.00 | 0.00 | 76 | 1016.8 |
| 20260831060030 | 82 | 360 | 4.0 | 13.0 | 0.00 | 0.00 | 0.00 | 76 | 1016.8 |
| 20260831055931 | 82 | 360 | 5.0 | 14.0 | 0.00 | 0.00 | 0.00 | 76 | 1016.8 |
| 20260831055832 | 82 | 360 | 5.0 | 14.0 | 0.00 | 0.00 | 0.00 | 76 | 1016.8 |
| 20260831055732 | 82 | 360 | 5.0 | 14.0 | 0.00 | 0.00 | 0.00 | 75 | 1016.8 |
| 20260831055634 | 82 | 360 | 6.0 | 14.0 | 0.00 | 0.00 | 0.00 | 75 | 1016.8 |
| 20260831055555 | 82 | 360 | 6.0 | 14.0 | 0.00 | 0.00 | 0.00 | 75 | 1016.8 |
| 20260831055435 | 82 | 360 | 8.0 | 14.0 | 0.00 | 0.00 | 0.00 | 75 | 1016.8 |
| 20260831055356 | 82 | 360 | 8.0 | 14.0 | 0.00 | 0.00 | 0.00 | 75 | 1016.8 |
| 20260831055235 | 82 | 360 | 9.0 | 14.0 | 0.00 | 0.00 | 0.00 | 75 | 1016.7 |
| 20260831055116 | 82 | 360 | 8.0 | 13.0 | 0.00 | 0.00 | 0.00 | 75 | 1016.7 |
| 20260831055016 | 82 | 360 | 9.0 | 13.0 | 0.00 | 0.00 | 0.00 | 75 | 1016.7 |
| 20260831054921 | 82 | 360 | 9.0 | 13.0 | 0.00 | 0.00 | 0.00 | 75 | 1016.7 |
| 20260831054822 | 82 | 360 | 8.0 | 14.0 | 0.00 | 0.00 | 0.00 | 75 | 1016.7 |
| 20260831054722 | 82 | 360 | 7.0 | 13.0 | 0.00 | 0.00 | 0.00 | 75 | 1016.7 |
| 20260831054623 | 82 | 360 | 6.0 | 17.0 | 0.00 | 0.00 | 0.00 | 75 | 1016.6 |
| 20260831054522 | 82 | 360 | 5.0 | 18.0 | 0.00 | 0.00 | 0.00 | 75 | 1016.7 |
| 20260831054423 | 82 | 360 | 4.0 | 18.0 | 0.00 | 0.00 | 0.00 | 75 | 1016.6 |
| 20260831054325 | 82 | 360 | 5.0 | 18.0 | 0.00 | 0.00 | 0.00 | 75 | 1016.6 |
| 20260831054230 | 82 | 360 | 6.0 | 18.0 | 0.00 | 0.00 | 0.00 | 75 | 1016.6 |
| 20260831054130 | 82 | 360 | 7.0 | 18.0 | 0.00 | 0.00 | 0.00 | 75 | 1016.6 |
| 20260831054050 | 83 | 360 | 8.0 | 18.0 | 0.00 | 0.00 | 0.00 | 75 | 1016.5 |
| 20260831053930 | 83 | 360 | 8.0 | 19.0 | 0.00 | 0.00 | 0.00 | 75 | 1016.6 |
| 20260831053831 | 83 | 360 | 9.0 | 19.0 | 0.00 | 0.00 | 0.00 | 75 | 1016.6 |
| 20260831053732 | 83 | 360 | 9.0 | 19.0 | 0.00 | 0.00 | 0.00 | 75 | 1016.6 |
| 20260831053632 | 83 | 360 | 9.0 | 19.0 | 0.00 | 0.00 | 0.00 | 74 | 1016.6 |
| 20260831053536 | 83 | 360 | 9.0 | 19.0 | 0.00 | 0.00 | 0.00 | 74 | 1016.6 |
| 20260831053456 | 83 | 360 | 9.0 | 19.0 | 0.00 | 0.00 | 0.00 | 74 | 1016.6 |
| 20260831053317 | 83 | 360 | 10.0 | 19.0 | 0.00 | 0.00 | 0.00 | 74 | 1016.5 |
| 20260831053218 | 83 | 360 | 11.0 | 19.0 | 0.00 | 0.00 | 0.00 | 74 | 1016.6 |
| 20260831053119 | 83 | 360 | 10.0 | 19.0 | 0.00 | 0.00 | 0.00 | 74 | 1016.6 |
| 20260831053019 | 83 | 360 | 9.0 | 19.0 | 0.00 | 0.00 | 0.00 | 74 | 1016.6 |
| 20260831052939 | 83 | 360 | 8.0 | 19.0 | 0.00 | 0.00 | 0.00 | 74 | 1016.5 |
| 20260831052843 | 83 | 360 | 7.0 | 14.0 | 0.00 | 0.00 | 0.00 | 74 | 1016.6 |
| 20260831052716 | 83 | 360 | 7.0 | 14.0 | 0.00 | 0.00 | 0.00 | 74 | 1016.5 |
| 20260831052616 | 83 | 360 | 6.0 | 13.0 | 0.00 | 0.00 | 0.00 | 74 | 1016.5 |
| 20260831052517 | 83 | 360 | 7.0 | 13.0 | 0.00 | 0.00 | 0.00 | 74 | 1016.5 |
| 20260831052417 | 83 | 360 | 6.0 | 13.0 | 0.00 | 0.00 | 0.00 | 74 | 1016.5 |
| 20260831052337 | 83 | 360 | 5.0 | 13.0 | 0.00 | 0.00 | 0.00 | 74 | 1016.5 |
| 20260831052237 | 83 | 360 | 5.0 | 14.0 | 0.00 | 0.00 | 0.00 | 74 | 1016.5 |
| 20260831052117 | 83 | 360 | 5.0 | 14.0 | 0.00 | 0.00 | 0.00 | 74 | 1016.5 |
| 20260831052020 | 83 | 360 | 6.0 | 14.0 | 0.00 | 0.00 | 0.00 | 74 | 1016.5 |
| 20260831051921 | 83 | 360 | 6.0 | 20.0 | 0.00 | 0.00 | 0.00 | 74 | 1016.5 |
| 20260831051822 | 83 | 360 | 6.0 | 20.0 | 0.00 | 0.00 | 0.00 | 74 | 1016.4 |
| 20260831051722 | 83 | 360 | 4.0 | 20.0 | 0.00 | 0.00 | 0.00 | 74 | 1016.4 |
| 20260831051623 | 83 | 360 | 5.0 | 20.0 | 0.00 | 0.00 | 0.00 | 74 | 1016.4 |
| 20260831051523 | 83 | 360 | 7.0 | 20.0 | 0.00 | 0.00 | 0.00 | 73 | 1016.4 |
| 20260831051424 | 84 | 360 | 8.0 | 20.0 | 0.00 | 0.00 | 0.00 | 73 | 1016.4 |
| 20260831051329 | 83 | 360 | 9.0 | 20.0 | 0.00 | 0.00 | 0.00 | 73 | 1016.3 |
| 20260831051230 | 84 | 360 | 10.0 | 20.0 | 0.00 | 0.00 | 0.00 | 73 | 1016.4 |
| 20260831051130 | 84 | 360 | 11.0 | 20.0 | 0.00 | 0.00 | 0.00 | 73 | 1016.4 |
| 20260831051030 | 84 | 360 | 11.0 | 18.0 | 0.00 | 0.00 | 0.00 | 73 | 1016.4 |
| 20260831050931 | 84 | 360 | 12.0 | 18.0 | 0.00 | 0.00 | 0.00 | 73 | 1016.4 |
| 20260831050832 | 84 | 360 | 11.0 | 16.0 | 0.00 | 0.00 | 0.00 | 73 | 1016.4 |
| 20260831050731 | 84 | 360 | 10.0 | 16.0 | 0.00 | 0.00 | 0.00 | 73 | 1016.4 |
| 20260831050636 | 84 | 360 | 10.0 | 16.0 | 0.00 | 0.00 | 0.00 | 73 | 1016.5 |
| 20260831050556 | 84 | 360 | 9.0 | 16.0 | 0.00 | 0.00 | 0.00 | 73 | 1016.4 |
| 20260831050435 | 84 | 360 | 9.0 | 16.0 | 0.00 | 0.00 | 0.00 | 73 | 1016.5 |
| 20260831050316 | 84 | 360 | 7.0 | 16.0 | 0.00 | 0.00 | 0.00 | 73 | 1016.5 |
| 20260831050216 | 84 | 360 | 7.0 | 16.0 | 0.00 | 0.00 | 0.00 | 73 | 1016.5 |
| 20260831050136 | 84 | 360 | 7.0 | 22.0 | 0.00 | 0.00 | 0.00 | 73 | 1016.5 |
| 20260831050057 | 84 | 360 | 8.0 | 22.0 | 0.00 | 0.00 | 0.00 | 73 | 1016.5 |
| 20260831045934 | 84 | 360 | 8.0 | 22.0 | 0.00 | 0.00 | 0.00 | 72 | 1016.5 |
| 20260831045836 | 84 | 360 | 9.0 | 22.0 | 0.00 | 0.00 | 0.00 | 72 | 1016.4 |
| 20260831045736 | 84 | 360 | 9.0 | 22.0 | 0.00 | 0.00 | 0.00 | 72 | 1016.4 |
| 20260831045616 | 84 | 360 | 9.0 | 22.0 | 0.00 | 0.00 | 0.00 | 72 | 1016.4 |
| 20260831045517 | 84 | 360 | 10.0 | 22.0 | 0.00 | 0.00 | 0.00 | 72 | 1016.4 |
| 20260831045419 | 84 | 360 | 10.0 | 22.0 | 0.00 | 0.00 | 0.00 | 72 | 1016.4 |
| 20260831045323 | 84 | 360 | 12.0 | 22.0 | 0.00 | 0.00 | 0.00 | 72 | 1016.4 |
| 20260831045224 | 84 | 360 | 11.0 | 20.0 | 0.00 | 0.00 | 0.00 | 72 | 1016.3 |
| 20260831045125 | 84 | 360 | 12.0 | 20.0 | 0.00 | 0.00 | 0.00 | 72 | 1016.4 |
| 20260831045025 | 84 | 360 | 11.0 | 20.0 | 0.00 | 0.00 | 0.00 | 72 | 1016.4 |
| 20260831044926 | 84 | 360 | 10.0 | 18.0 | 0.00 | 0.00 | 0.00 | 72 | 1016.4 |
| 20260831044847 | 84 | 360 | 9.0 | 18.0 | 0.00 | 0.00 | 0.00 | 72 | 1016.4 |
| 20260831044726 | 84 | 360 | 6.0 | 22.0 | 0.00 | 0.00 | 0.00 | 72 | 1016.3 |
| 20260831044632 | 84 | 360 | 7.0 | 22.0 | 0.00 | 0.00 | 0.00 | 71 | 1016.4 |
| 20260831044532 | 84 | 360 | 6.0 | 22.0 | 0.00 | 0.00 | 0.00 | 71 | 1016.4 |
| 20260831044433 | 84 | 360 | 8.0 | 22.0 | 0.00 | 0.00 | 0.00 | 71 | 1016.4 |
| 20260831044334 | 84 | 360 | 9.0 | 22.0 | 0.00 | 0.00 | 0.00 | 71 | 1016.5 |
| 20260831044235 | 84 | 360 | 11.0 | 22.0 | 0.00 | 0.00 | 0.00 | 71 | 1016.4 |
| 20260831044135 | 85 | 360 | 11.0 | 22.0 | 0.00 | 0.00 | 0.00 | 71 | 1016.4 |
| 20260831044035 | 85 | 360 | 11.0 | 22.0 | 0.00 | 0.00 | 0.00 | 70 | 1016.5 |
| 20260831043919 | 85 | 360 | 9.0 | 21.0 | 0.00 | 0.00 | 0.00 | 70 | 1016.4 |
| 20260831043821 | 85 | 360 | 7.0 | 14.0 | 0.00 | 0.00 | 0.00 | 70 | 1016.4 |
| 20260831043722 | 85 | 360 | 7.0 | 15.0 | 0.00 | 0.00 | 0.00 | 70 | 1016.4 |
| 20260831043622 | 85 | 360 | 7.0 | 15.0 | 0.00 | 0.00 | 0.00 | 70 | 1016.5 |
| 20260831043523 | 85 | 360 | 7.0 | 15.0 | 0.00 | 0.00 | 0.00 | 69 | 1016.5 |
| 20260831043443 | 85 | 360 | 6.0 | 15.0 | 0.00 | 0.00 | 0.00 | 69 | 1016.5 |
| 20260831043323 | 85 | 360 | 7.0 | 15.0 | 0.00 | 0.00 | 0.00 | 69 | 1016.5 |
| 20260831043228 | 85 | 360 | 6.0 | 15.0 | 0.00 | 0.00 | 0.00 | 69 | 1016.5 |
| 20260831043129 | 85 | 360 | 7.0 | 14.0 | 0.00 | 0.00 | 0.00 | 69 | 1016.5 |
| 20260831043029 | 85 | 360 | 7.0 | 14.0 | 0.00 | 0.00 | 0.00 | 69 | 1016.5 |
| 20260831042930 | 85 | 360 | 7.0 | 14.0 | 0.00 | 0.00 | 0.00 | 69 | 1016.5 |
| 20260831042852 | 85 | 360 | 8.0 | 14.0 | 0.00 | 0.00 | 0.00 | 69 | 1016.4 |
| 20260831042730 | 85 | 360 | 8.0 | 14.0 | 0.00 | 0.00 | 0.00 | 69 | 1016.4 |
| 20260831042631 | 85 | 360 | 7.0 | 14.0 | 0.00 | 0.00 | 0.00 | 68 | 1016.4 |
| 20260831042515 | 85 | 360 | 6.0 | 14.0 | 0.00 | 0.00 | 0.00 | 68 | 1016.4 |
| 20260831042416 | 85 | 360 | 7.0 | 14.0 | 0.00 | 0.00 | 0.00 | 68 | 1016.4 |
| 20260831042337 | 85 | 360 | 7.0 | 14.0 | 0.00 | 0.00 | 0.00 | 68 | 1016.4 |
| 20260831042217 | 85 | 360 | 8.0 | 14.0 | 0.00 | 0.00 | 0.00 | 68 | 1016.4 |
| 20260831042118 | 85 | 360 | 8.0 | 14.0 | 0.00 | 0.00 | 0.00 | 68 | 1016.4 |
| 20260831042018 | 85 | 360 | 8.0 | 14.0 | 0.00 | 0.00 | 0.00 | 68 | 1016.4 |
| 20260831041918 | 85 | 360 | 9.0 | 14.0 | 0.00 | 0.00 | 0.00 | 68 | 1016.4 |
| 20260831041842 | 85 | 360 | 9.0 | 14.0 | 0.00 | 0.00 | 0.00 | 68 | 1016.3 |
| 20260831041741 | 85 | 360 | 9.0 | 14.0 | 0.00 | 0.00 | 0.00 | 68 | 1016.5 |
| 20260831041620 | 85 | 360 | 9.0 | 14.0 | 0.00 | 0.00 | 0.00 | 68 | 1016.4 |
| 20260831041521 | 85 | 360 | 8.0 | 14.0 | 0.00 | 0.00 | 0.00 | 68 | 1016.5 |
| 20260831041442 | 85 | 360 | 8.0 | 14.0 | 0.00 | 0.00 | 0.00 | 68 | 1016.5 |
| 20260831041403 | 85 | 360 | 9.0 | 14.0 | 0.00 | 0.00 | 0.00 | 68 | 1016.5 |
| 20260831041303 | 85 | 360 | 9.0 | 14.0 | 0.00 | 0.00 | 0.00 | 68 | 1016.4 |
| 20260831041203 | 85 | 360 | 9.0 | 14.0 | 0.00 | 0.00 | 0.00 | 68 | 1016.4 |
| 20260831041021 | 85 | 360 | 9.0 | 14.0 | 0.00 | 0.00 | 0.00 | 67 | 1016.4 |
| 20260831040926 | 85 | 360 | 9.0 | 14.0 | 0.00 | 0.00 | 0.00 | 67 | 1016.5 |
| 20260831040826 | 85 | 360 | 8.0 | 14.0 | 0.00 | 0.00 | 0.00 | 67 | 1016.4 |
| 20260831040747 | 86 | 360 | 7.0 | 14.0 | 0.00 | 0.00 | 0.00 | 67 | 1016.5 |
| 20260831040627 | 86 | 360 | 6.0 | 14.0 | 0.00 | 0.00 | 0.00 | 67 | 1016.5 |
| 20260831040528 | 86 | 360 | 6.0 | 18.0 | 0.00 | 0.00 | 0.00 | 67 | 1016.5 |
| 20260831040428 | 86 | 360 | 6.0 | 18.0 | 0.00 | 0.00 | 0.00 | 67 | 1016.5 |
| 20260831040328 | 86 | 360 | 6.0 | 18.0 | 0.00 | 0.00 | 0.00 | 67 | 1016.4 |
| 20260831040228 | 86 | 360 | 6.0 | 18.0 | 0.00 | 0.00 | 0.00 | 66 | 1016.4 |
| 20260831040133 | 86 | 360 | 7.0 | 18.0 | 0.00 | 0.00 | 0.00 | 66 | 1016.4 |
| 20260831040034 | 86 | 360 | 8.0 | 18.0 | 0.00 | 0.00 | 0.00 | 66 | 1016.4 |
| 20260831035935 | 86 | 360 | 11.0 | 18.0 | 0.00 | 0.00 | 0.00 | 66 | 1016.4 |
| 20260831035837 | 86 | 360 | 11.0 | 18.0 | 0.00 | 0.00 | 0.00 | 66 | 1016.4 |
| 20260831035756 | 86 | 360 | 12.0 | 18.0 | 0.00 | 0.00 | 0.00 | 66 | 1016.4 |
| 20260831035635 | 86 | 360 | 11.0 | 18.0 | 0.00 | 0.00 | 0.00 | 66 | 1016.4 |
| 20260831035535 | 86 | 360 | 10.0 | 18.0 | 0.00 | 0.00 | 0.00 | 66 | 1016.4 |
| 20260831035419 | 86 | 360 | 10.0 | 18.0 | 0.00 | 0.00 | 0.00 | 66 | 1016.4 |
| 20260831035320 | 86 | 360 | 9.0 | 17.0 | 0.00 | 0.00 | 0.00 | 66 | 1016.3 |
| 20260831035221 | 86 | 360 | 9.0 | 17.0 | 0.00 | 0.00 | 0.00 | 66 | 1016.3 |
| 20260831035120 | 86 | 360 | 9.0 | 18.0 | 0.00 | 0.00 | 0.00 | 66 | 1016.4 |
| 20260831035021 | 86 | 360 | 9.0 | 18.0 | 0.00 | 0.00 | 0.00 | 66 | 1016.3 |
| 20260831034941 | 86 | 360 | 10.0 | 18.0 | 0.00 | 0.00 | 0.00 | 66 | 1016.3 |
| 20260831034820 | 86 | 360 | 10.0 | 18.0 | 0.00 | 0.00 | 0.00 | 65 | 1016.2 |
| 20260831034741 | 86 | 360 | 10.0 | 18.0 | 0.00 | 0.00 | 0.00 | 65 | 1016.4 |
| 20260831034624 | 86 | 360 | 11.0 | 18.0 | 0.00 | 0.00 | 0.00 | 65 | 1016.2 |
| 20260831034525 | 86 | 360 | 11.0 | 18.0 | 0.00 | 0.00 | 0.00 | 65 | 1016.2 |
| 20260831034426 | 86 | 360 | 11.0 | 18.0 | 0.00 | 0.00 | 0.00 | 65 | 1016.2 |
| 20260831034347 | 86 | 360 | 11.0 | 18.0 | 0.00 | 0.00 | 0.00 | 65 | 1016.2 |
| 20260831034225 | 86 | 360 | 10.0 | 18.0 | 0.00 | 0.00 | 0.00 | 65 | 1016.2 |
| 20260831034126 | 86 | 360 | 9.0 | 23.0 | 0.00 | 0.00 | 0.00 | 65 | 1016.2 |
| 20260831034047 | 86 | 360 | 8.0 | 23.0 | 0.00 | 0.00 | 0.00 | 65 | 1016.1 |
| 20260831033926 | 86 | 360 | 9.0 | 23.0 | 0.00 | 0.00 | 0.00 | 65 | 1016.1 |
| 20260831033831 | 86 | 360 | 9.0 | 23.0 | 0.00 | 0.00 | 0.00 | 65 | 1016.1 |
| 20260831033732 | 86 | 360 | 9.0 | 23.0 | 0.00 | 0.00 | 0.00 | 64 | 1016.1 |
| 20260831033631 | 87 | 360 | 11.0 | 23.0 | 0.00 | 0.00 | 0.00 | 64 | 1016.1 |
| 20260831033552 | 87 | 360 | 14.0 | 23.0 | 0.00 | 0.00 | 0.00 | 64 | 1016.1 |
| 20260831033452 | 87 | 360 | 14.0 | 23.0 | 0.00 | 0.00 | 0.00 | 64 | 1016.1 |
| 20260831033331 | 87 | 360 | 14.0 | 23.0 | 0.00 | 0.00 | 0.00 | 64 | 1016.0 |
| 20260831033232 | 87 | 360 | 13.0 | 23.0 | 0.00 | 0.00 | 0.00 | 64 | 1016.0 |
| 20260831033116 | 87 | 360 | 11.0 | 20.0 | 0.00 | 0.00 | 0.00 | 64 | 1016.0 |
| 20260831033016 | 87 | 360 | 12.0 | 20.0 | 0.00 | 0.00 | 0.00 | 64 | 1016.0 |
| 20260831032916 | 87 | 360 | 10.0 | 20.0 | 0.00 | 0.00 | 0.00 | 63 | 1016.0 |
| 20260831032818 | 87 | 360 | 10.0 | 20.0 | 0.00 | 0.00 | 0.00 | 63 | 1015.9 |
| 20260831032717 | 87 | 360 | 10.0 | 22.0 | 0.00 | 0.00 | 0.00 | 63 | 1016.0 |
| 20260831032617 | 87 | 360 | 11.0 | 22.0 | 0.00 | 0.00 | 0.00 | 63 | 1015.9 |
| 20260831032517 | 87 | 360 | 13.0 | 22.0 | 0.00 | 0.00 | 0.00 | 63 | 1016.0 |
| 20260831032422 | 87 | 360 | 14.0 | 22.0 | 0.00 | 0.00 | 0.00 | 63 | 1015.9 |
| 20260831032343 | 87 | 360 | 15.0 | 22.0 | 0.00 | 0.00 | 0.00 | 63 | 1016.0 |
| 20260831032223 | 87 | 360 | 15.0 | 22.0 | 0.00 | 0.00 | 0.00 | 62 | 1015.9 |
| 20260831032123 | 87 | 360 | 14.0 | 22.0 | 0.00 | 0.00 | 0.00 | 62 | 1015.9 |
| 20260831032024 | 87 | 360 | 13.0 | 22.0 | 0.00 | 0.00 | 0.00 | 62 | 1015.9 |
| 20260831031925 | 87 | 360 | 12.0 | 22.0 | 0.00 | 0.00 | 0.00 | 62 | 1015.9 |
| 20260831031825 | 87 | 360 | 12.0 | 22.0 | 0.00 | 0.00 | 0.00 | 62 | 1015.9 |
| 20260831031730 | 87 | 360 | 14.0 | 22.0 | 0.00 | 0.00 | 0.00 | 62 | 1015.9 |
| 20260831031630 | 87 | 360 | 13.0 | 22.0 | 0.00 | 0.00 | 0.00 | 62 | 1015.9 |
| 20260831031530 | 87 | 360 | 13.0 | 22.0 | 0.00 | 0.00 | 0.00 | 62 | 1015.9 |
| 20260831031432 | 88 | 360 | 13.0 | 22.0 | 0.00 | 0.00 | 0.00 | 62 | 1015.9 |
| 20260831031330 | 88 | 360 | 14.0 | 22.0 | 0.00 | 0.00 | 0.00 | 61 | 1015.9 |
| 20260831031251 | 88 | 360 | 14.0 | 22.0 | 0.00 | 0.00 | 0.00 | 61 | 1015.8 |
| 20260831031151 | 88 | 360 | 14.0 | 22.0 | 0.00 | 0.00 | 0.00 | 61 | 1015.8 |
| 20260831031031 | 88 | 360 | 12.0 | 22.0 | 0.00 | 0.00 | 0.00 | 61 | 1015.8 |
| 20260831030916 | 88 | 360 | 8.0 | 20.0 | 0.00 | 0.00 | 0.00 | 61 | 1015.7 |
| 20260831030817 | 88 | 360 | 7.0 | 20.0 | 0.00 | 0.00 | 0.00 | 61 | 1015.7 |
| 20260831030737 | 88 | 360 | 8.0 | 20.0 | 0.00 | 0.00 | 0.00 | 61 | 1015.7 |
| 20260831030617 | 88 | 360 | 9.0 | 20.0 | 0.00 | 0.00 | 0.00 | 61 | 1015.7 |
| 20260831030538 | 88 | 360 | 12.0 | 20.0 | 0.00 | 0.00 | 0.00 | 61 | 1015.6 |
| 20260831030417 | 88 | 360 | 13.0 | 20.0 | 0.00 | 0.00 | 0.00 | 61 | 1015.6 |
| 20260831030317 | 88 | 360 | 13.0 | 20.0 | 0.00 | 0.00 | 0.00 | 61 | 1015.6 |
| 20260831030221 | 88 | 360 | 12.0 | 21.0 | 0.00 | 0.00 | 0.00 | 61 | 1015.6 |
| 20260831030122 | 88 | 360 | 11.0 | 21.0 | 0.00 | 0.00 | 0.00 | 61 | 1015.6 |
| 20260831030023 | 88 | 360 | 9.0 | 21.0 | 0.00 | 0.00 | 0.00 | 61 | 1015.6 |
| 20260831025923 | 88 | 360 | 9.0 | 21.0 | 0.00 | 0.00 | 0.00 | 61 | 1015.6 |
| 20260831025825 | 88 | 360 | 10.0 | 21.0 | 0.00 | 0.00 | 0.00 | 61 | 1015.6 |
| 20260831025725 | 88 | 360 | 11.0 | 21.0 | 0.00 | 0.00 | 0.00 | 61 | 1015.5 |
| 20260831025646 | 88 | 360 | 14.0 | 21.0 | 0.00 | 0.00 | 0.00 | 60 | 1015.6 |
| 20260831025529 | 88 | 360 | 13.0 | 21.0 | 0.00 | 0.00 | 0.00 | 60 | 1015.5 |
| 20260831025429 | 88 | 360 | 12.0 | 21.0 | 0.00 | 0.00 | 0.00 | 61 | 1015.5 |
| 20260831025330 | 88 | 360 | 11.0 | 18.0 | 0.00 | 0.00 | 0.00 | 61 | 1015.5 |
| 20260831025231 | 88 | 360 | 10.0 | 15.0 | 0.00 | 0.00 | 0.00 | 61 | 1015.4 |
| 20260831025130 | 88 | 360 | 10.0 | 15.0 | 0.00 | 0.00 | 0.00 | 61 | 1015.4 |
| 20260831025051 | 88 | 360 | 10.0 | 15.0 | 0.00 | 0.00 | 0.00 | 61 | 1015.5 |
| 20260831024931 | 88 | 360 | 10.0 | 14.0 | 0.00 | 0.00 | 0.00 | 61 | 1015.4 |
| 20260831024816 | 88 | 360 | 9.0 | 14.0 | 0.00 | 0.00 | 0.00 | 61 | 1015.4 |
| 20260831024716 | 88 | 360 | 8.0 | 14.0 | 0.00 | 0.00 | 0.00 | 61 | 1015.4 |
| 20260831024617 | 88 | 360 | 9.0 | 14.0 | 0.00 | 0.00 | 0.00 | 61 | 1015.4 |
| 20260831024518 | 88 | 360 | 9.0 | 14.0 | 0.00 | 0.00 | 0.00 | 61 | 1015.4 |
| 20260831024437 | 88 | 360 | 9.0 | 14.0 | 0.00 | 0.00 | 0.00 | 61 | 1015.4 |
| 20260831024316 | 88 | 360 | 8.0 | 13.0 | 0.00 | 0.00 | 0.00 | 61 | 1015.3 |
| 20260831024237 | 88 | 360 | 7.0 | 14.0 | 0.00 | 0.00 | 0.00 | 61 | 1015.3 |
| 20260831024157 | 88 | 360 | 7.0 | 14.0 | 0.00 | 0.00 | 0.00 | 61 | 1015.3 |
| 20260831024036 | 88 | 360 | 7.0 | 14.0 | 0.00 | 0.00 | 0.00 | 61 | 1015.3 |
| 20260831023919 | 88 | 360 | 8.0 | 20.0 | 0.00 | 0.00 | 0.00 | 61 | 1015.3 |
| 20260831023820 | 88 | 360 | 9.0 | 20.0 | 0.00 | 0.00 | 0.00 | 60 | 1015.2 |
| 20260831023720 | 88 | 360 | 9.0 | 20.0 | 0.00 | 0.00 | 0.00 | 60 | 1015.2 |
| 20260831023621 | 88 | 360 | 9.0 | 20.0 | 0.00 | 0.00 | 0.00 | 60 | 1015.2 |
| 20260831023522 | 88 | 360 | 8.0 | 20.0 | 0.00 | 0.00 | 0.00 | 60 | 1015.2 |
| 20260831023421 | 88 | 360 | 9.0 | 20.0 | 0.00 | 0.00 | 0.00 | 60 | 1015.1 |
| 20260831023342 | 89 | 360 | 10.0 | 20.0 | 0.00 | 0.00 | 0.00 | 60 | 1015.2 |
| 20260831023227 | 89 | 360 | 12.0 | 20.0 | 0.00 | 0.00 | 0.00 | 60 | 1015.1 |
| 20260831023129 | 89 | 165 | 13.0 | 20.0 | 0.00 | 0.00 | 0.00 | 60 | 1015.2 |
| 20260831023030 | 89 | 360 | 12.0 | 19.0 | 0.00 | 0.00 | 0.00 | 59 | 1015.1 |
| 20260831022931 | 89 | 360 | 12.0 | 19.0 | 0.00 | 0.00 | 0.00 | 59 | 1015.1 |
| 20260831022853 | 89 | 360 | 13.0 | 19.0 | 0.00 | 0.00 | 0.00 | 59 | 1015.1 |
| 20260831022732 | 89 | 360 | 13.0 | 19.0 | 0.00 | 0.00 | 0.00 | 59 | 1015.0 |
| 20260831022617 | 89 | 360 | 12.0 | 19.0 | 0.00 | 0.00 | 0.00 | 59 | 1015.0 |
| 20260831022517 | 89 | 360 | 11.0 | 19.0 | 0.00 | 0.00 | 0.00 | 59 | 1015.0 |
| 20260831022419 | 89 | 360 | 9.0 | 16.0 | 0.00 | 0.00 | 0.00 | 58 | 1015.0 |
| 20260831022318 | 89 | 360 | 10.0 | 16.0 | 0.00 | 0.00 | 0.00 | 58 | 1015.0 |
| 20260831022240 | 89 | 360 | 9.0 | 15.0 | 0.00 | 0.00 | 0.00 | 57 | 1015.0 |
| 20260831022120 | 89 | 158 | 10.0 | 15.0 | 0.00 | 0.00 | 0.00 | 57 | 1014.9 |
| 20260831022020 | 89 | 360 | 10.0 | 15.0 | 0.00 | 0.00 | 0.00 | 57 | 1014.9 |
| 20260831021941 | 89 | 360 | 10.0 | 15.0 | 0.00 | 0.00 | 0.00 | 57 | 1014.9 |
| 20260831021825 | 89 | 360 | 10.0 | 15.0 | 0.00 | 0.00 | 0.00 | 57 | 1014.9 |
| 20260831021724 | 89 | 360 | 10.0 | 15.0 | 0.00 | 0.00 | 0.00 | 57 | 1014.9 |
| 20260831021626 | 89 | 360 | 10.0 | 15.0 | 0.00 | 0.00 | 0.00 | 56 | 1014.9 |
| 20260831021526 | 89 | 360 | 8.0 | 15.0 | 0.00 | 0.00 | 0.00 | 56 | 1015.0 |
| 20260831021427 | 90 | 360 | 8.0 | 17.0 | 0.00 | 0.00 | 0.00 | 56 | 1014.8 |
| 20260831021327 | 90 | 360 | 8.0 | 17.0 | 0.00 | 0.00 | 0.00 | 56 | 1014.9 |
| 20260831021233 | 90 | 360 | 8.0 | 17.0 | 0.00 | 0.00 | 0.00 | 56 | 1014.8 |
| 20260831021153 | 90 | 360 | 9.0 | 17.0 | 0.00 | 0.00 | 0.00 | 56 | 1014.8 |
| 20260831021032 | 90 | 360 | 8.0 | 18.0 | 0.00 | 0.00 | 0.00 | 56 | 1014.8 |
| 20260831020933 | 90 | 360 | 9.0 | 18.0 | 0.00 | 0.00 | 0.00 | 56 | 1014.8 |
| 20260831020833 | 90 | 360 | 11.0 | 18.0 | 0.00 | 0.00 | 0.00 | 56 | 1014.8 |
| 20260831020733 | 90 | 360 | 11.0 | 18.0 | 0.00 | 0.00 | 0.00 | 56 | 1014.8 |
| 20260831020654 | 90 | 360 | 11.0 | 18.0 | 0.00 | 0.00 | 0.00 | 56 | 1014.8 |
| 20260831020517 | 90 | 360 | 10.0 | 21.0 | 0.00 | 0.00 | 0.00 | 55 | 1014.7 |
| 20260831020417 | 90 | 360 | 12.0 | 21.0 | 0.00 | 0.00 | 0.00 | 55 | 1014.8 |
| 20260831020320 | 90 | 360 | 12.0 | 21.0 | 0.00 | 0.00 | 0.00 | 55 | 1014.7 |
| 20260831020220 | 90 | 360 | 11.0 | 21.0 | 0.00 | 0.00 | 0.00 | 55 | 1014.7 |
| 20260831020122 | 90 | 360 | 10.0 | 21.0 | 0.00 | 0.00 | 0.00 | 54 | 1014.7 |
| 20260831020042 | 90 | 360 | 11.0 | 21.0 | 0.00 | 0.00 | 0.00 | 54 | 1014.6 |
| 20260831015923 | 91 | 360 | 11.0 | 21.0 | 0.00 | 0.00 | 0.00 | 54 | 1014.6 |
| 20260831015828 | 91 | 360 | 12.0 | 19.0 | 0.00 | 0.00 | 0.00 | 54 | 1014.5 |
| 20260831015749 | 91 | 360 | 13.0 | 19.0 | 0.00 | 0.00 | 0.00 | 54 | 1014.6 |
| 20260831015628 | 91 | 360 | 13.0 | 19.0 | 0.00 | 0.00 | 0.00 | 53 | 1014.6 |
| 20260831015528 | 91 | 360 | 13.0 | 19.0 | 0.00 | 0.00 | 0.00 | 53 | 1014.6 |
| 20260831015429 | 91 | 360 | 12.0 | 17.0 | 0.00 | 0.00 | 0.00 | 53 | 1014.5 |
| 20260831015349 | 91 | 360 | 9.0 | 15.0 | 0.00 | 0.00 | 0.00 | 53 | 1014.5 |
| 20260831015228 | 91 | 360 | 8.0 | 15.0 | 0.00 | 0.00 | 0.00 | 52 | 1014.5 |
| 20260831015148 | 91 | 360 | 7.0 | 15.0 | 0.00 | 0.00 | 0.00 | 52 | 1014.4 |
| 20260831015033 | 91 | 360 | 7.0 | 15.0 | 0.00 | 0.00 | 0.00 | 52 | 1014.5 |
| 20260831014932 | 91 | 360 | 7.0 | 15.0 | 0.00 | 0.00 | 0.00 | 52 | 1014.5 |
| 20260831014833 | 91 | 360 | 7.0 | 14.0 | 0.00 | 0.00 | 0.00 | 52 | 1014.4 |
| 20260831014753 | 91 | 360 | 7.0 | 14.0 | 0.00 | 0.00 | 0.00 | 52 | 1014.4 |
| 20260831014632 | 91 | 360 | 9.0 | 14.0 | 0.00 | 0.00 | 0.00 | 52 | 1014.4 |
| 20260831014551 | 90 | 360 | 9.0 | 14.0 | 0.00 | 0.00 | 0.00 | 52 | 1014.4 |
| 20260831014431 | 90 | 360 | 10.0 | 14.0 | 0.00 | 0.00 | 0.00 | 52 | 1014.4 |
| 20260831014351 | 90 | 360 | 10.0 | 14.0 | 0.00 | 0.00 | 0.00 | 52 | 1014.4 |
| 20260831014231 | 90 | 360 | 10.0 | 14.0 | 0.00 | 0.00 | 0.00 | 51 | 1014.4 |
| 20260831014151 | 90 | 360 | 9.0 | 14.0 | 0.00 | 0.00 | 0.00 | 51 | 1014.4 |
| 20260831014034 | 90 | 360 | 8.0 | 12.0 | 0.00 | 0.00 | 0.00 | 50 | 1014.3 |
| 20260831013935 | 90 | 360 | 7.0 | 9.0 | 0.00 | 0.00 | 0.00 | 50 | 1014.3 |
| 20260831013853 | 90 | 360 | 6.0 | 9.0 | 0.00 | 0.00 | 0.00 | 50 | 1014.3 |
| 20260831013733 | 90 | 360 | 5.0 | 9.0 | 0.00 | 0.00 | 0.00 | 50 | 1014.3 |
| 20260831013632 | 90 | 360 | 5.0 | 6.0 | 0.00 | 0.00 | 0.00 | 50 | 1014.2 |
| 20260831013554 | 90 | 360 | 4.0 | 5.0 | 0.00 | 0.00 | 0.00 | 50 | 1014.1 |
| 20260831013432 | 90 | 360 | 4.0 | 5.0 | 0.00 | 0.00 | 0.00 | 50 | 1014.1 |
| 20260831013317 | 90 | 360 | 4.0 | 5.0 | 0.00 | 0.00 | 0.00 | 49 | 1014.1 |
| 20260831013217 | 90 | 360 | 4.0 | 5.0 | 0.00 | 0.00 | 0.00 | 49 | 1014.1 |
| 20260831013118 | 91 | 167 | 4.0 | 5.0 | 0.00 | 0.00 | 0.00 | 49 | 1014.1 |
| 20260831013038 | 91 | 360 | 4.0 | 5.0 | 0.00 | 0.00 | 0.00 | 49 | 1014.1 |
| 20260831012917 | 91 | 360 | 3.0 | 5.0 | 0.00 | 0.00 | 0.00 | 49 | 1014.0 |
| 20260831012820 | 91 | 360 | 3.0 | 5.0 | 0.00 | 0.00 | 0.00 | 49 | 1014.0 |
| 20260831012740 | 91 | 360 | 3.0 | 5.0 | 0.00 | 0.00 | 0.00 | 49 | 1014.0 |
| 20260831012623 | 91 | 360 | 3.0 | 5.0 | 0.00 | 0.00 | 0.00 | 49 | 1014.0 |
| 20260831012544 | 91 | 360 | 3.0 | 6.0 | 0.00 | 0.00 | 0.00 | 49 | 1014.0 |
| 20260831012443 | 91 | 360 | 3.0 | 6.0 | 0.00 | 0.00 | 0.00 | 49 | 1014.0 |
| 20260831012343 | 91 | 360 | 3.0 | 6.0 | 0.00 | 0.00 | 0.00 | 49 | 1014.0 |
| 20260831012222 | 91 | 360 | 3.0 | 6.0 | 0.00 | 0.00 | 0.00 | 49 | 1014.0 |
| 20260831012123 | 91 | 360 | 3.0 | 6.0 | 0.00 | 0.00 | 0.00 | 49 | 1014.0 |
| 20260831012023 | 91 | 360 | 4.0 | 6.0 | 0.00 | 0.00 | 0.00 | 49 | 1013.9 |
| 20260831011925 | 91 | 360 | 4.0 | 6.0 | 0.00 | 0.00 | 0.00 | 49 | 1013.9 |
| 20260831011824 | 91 | 360 | 4.0 | 6.0 | 0.00 | 0.00 | 0.00 | 49 | 1014.0 |
| 20260831011728 | 91 | 360 | 4.0 | 6.0 | 0.00 | 0.00 | 0.00 | 49 | 1013.9 |
| 20260831011629 | 91 | 360 | 4.0 | 8.0 | 0.00 | 0.00 | 0.00 | 49 | 1013.9 |
| 20260831011529 | 91 | 360 | 4.0 | 10.0 | 0.00 | 0.00 | 0.00 | 49 | 1013.9 |
| 20260831011429 | 91 | 360 | 4.0 | 10.0 | 0.00 | 0.00 | 0.00 | 49 | 1013.9 |
| 20260831011329 | 91 | 360 | 4.0 | 10.0 | 0.00 | 0.00 | 0.00 | 49 | 1014.0 |
| 20260831011231 | 91 | 360 | 4.0 | 10.0 | 0.00 | 0.00 | 0.00 | 49 | 1014.0 |
| 20260831011116 | 91 | 360 | 4.0 | 10.0 | 0.00 | 0.00 | 0.00 | 49 | 1014.0 |
| 20260831011016 | 91 | 360 | 5.0 | 10.0 | 0.00 | 0.00 | 0.00 | 49 | 1014.0 |
| 20260831010916 | 91 | 360 | 5.0 | 10.0 | 0.00 | 0.00 | 0.00 | 48 | 1014.0 |
| 20260831010818 | 92 | 360 | 5.0 | 10.0 | 0.00 | 0.00 | 0.00 | 48 | 1014.0 |
| 20260831010738 | 92 | 360 | 5.0 | 10.0 | 0.00 | 0.00 | 0.00 | 48 | 1014.1 |
| 20260831010638 | 92 | 360 | 5.0 | 10.0 | 0.00 | 0.00 | 0.00 | 48 | 1014.1 |
| 20260831010518 | 92 | 360 | 5.0 | 10.0 | 0.00 | 0.00 | 0.00 | 48 | 1014.0 |
| 20260831010422 | 92 | 360 | 5.0 | 10.0 | 0.00 | 0.00 | 0.00 | 48 | 1014.0 |
| 20260831010323 | 92 | 360 | 4.0 | 6.0 | 0.00 | 0.00 | 0.00 | 48 | 1014.0 |
| 20260831010224 | 92 | 360 | 4.0 | 6.0 | 0.00 | 0.00 | 0.00 | 48 | 1014.0 |
| 20260831010125 | 92 | 360 | 4.0 | 6.0 | 0.00 | 0.00 | 0.00 | 48 | 1013.9 |
| 20260831010046 | 92 | 360 | 4.0 | 5.0 | 0.00 | 0.00 | 0.00 | 48 | 1013.9 |
| 20260831005925 | 92 | 360 | 4.0 | 5.0 | 0.00 | 0.00 | 0.00 | 48 | 1014.0 |
| 20260831005827 | 92 | 360 | 3.0 | 5.0 | 0.00 | 0.00 | 0.00 | 48 | 1013.9 |
| 20260831005730 | 92 | 165 | 3.0 | 6.0 | 0.00 | 0.00 | 0.00 | 48 | 1014.0 |
| 20260831005631 | 92 | 360 | 3.0 | 6.0 | 0.00 | 0.00 | 0.00 | 48 | 1013.9 |
| 20260831005532 | 92 | 360 | 3.0 | 6.0 | 0.00 | 0.00 | 0.00 | 48 | 1014.0 |
| 20260831005433 | 92 | 165 | 3.0 | 6.0 | 0.00 | 0.00 | 0.00 | 48 | 1013.9 |
| 20260831005332 | 92 | 165 | 3.0 | 6.0 | 0.00 | 0.00 | 0.00 | 47 | 1013.9 |
| 20260831005233 | 92 | 360 | 3.0 | 6.0 | 0.00 | 0.00 | 0.00 | 47 | 1013.9 |
| 20260831005118 | 92 | 360 | 4.0 | 6.0 | 0.00 | 0.00 | 0.00 | 47 | 1013.9 |
| 20260831005019 | 92 | 360 | 4.0 | 6.0 | 0.00 | 0.00 | 0.00 | 47 | 1013.8 |
| 20260831004919 | 93 | 360 | 4.0 | 6.0 | 0.00 | 0.00 | 0.00 | 47 | 1013.9 |
| 20260831004841 | 93 | 360 | 4.0 | 6.0 | 0.00 | 0.00 | 0.00 | 47 | 1013.8 |
| 20260831004721 | 93 | 360 | 3.0 | 6.0 | 0.00 | 0.00 | 0.00 | 47 | 1013.9 |
| 20260831004622 | 93 | 360 | 4.0 | 6.0 | 0.00 | 0.00 | 0.00 | 47 | 1014.0 |
| 20260831004522 | 93 | 360 | 3.0 | 6.0 | 0.00 | 0.00 | 0.00 | 47 | 1013.9 |
| 20260831004442 | 93 | 360 | 3.0 | 6.0 | 0.00 | 0.00 | 0.00 | 46 | 1013.9 |
| 20260831004325 | 93 | 360 | 4.0 | 6.0 | 0.00 | 0.00 | 0.00 | 46 | 1014.0 |
| 20260831004226 | 93 | 360 | 4.0 | 6.0 | 0.00 | 0.00 | 0.00 | 46 | 1013.9 |
| 20260831004128 | 93 | 360 | 4.0 | 9.0 | 0.00 | 0.00 | 0.00 | 46 | 1013.9 |
| 20260831004029 | 93 | 360 | 4.0 | 9.0 | 0.00 | 0.00 | 0.00 | 46 | 1013.8 |
| 20260831003929 | 93 | 360 | 4.0 | 9.0 | 0.00 | 0.00 | 0.00 | 46 | 1013.8 |
| 20260831003831 | 93 | 360 | 4.0 | 9.0 | 0.00 | 0.00 | 0.00 | 45 | 1013.8 |
| 20260831003734 | 93 | 360 | 4.0 | 9.0 | 0.00 | 0.00 | 0.00 | 45 | 1013.9 |
| 20260831003616 | 94 | 360 | 4.0 | 9.0 | 0.00 | 0.00 | 0.00 | 45 | 1013.8 |
| 20260831003517 | 94 | 360 | 4.0 | 10.0 | 0.00 | 0.00 | 0.00 | 45 | 1013.8 |
| 20260831003416 | 94 | 360 | 4.0 | 10.0 | 0.00 | 0.00 | 0.00 | 45 | 1013.8 |
| 20260831003338 | 94 | 360 | 4.0 | 10.0 | 0.00 | 0.00 | 0.00 | 45 | 1013.8 |
| 20260831003216 | 94 | 360 | 4.0 | 10.0 | 0.00 | 0.00 | 0.00 | 45 | 1013.7 |
| 20260831003117 | 94 | 360 | 5.0 | 13.0 | 0.00 | 0.00 | 0.00 | 45 | 1013.8 |
| 20260831003021 | 94 | 360 | 6.0 | 13.0 | 0.00 | 0.00 | 0.00 | 44 | 1013.9 |
| 20260831002922 | 94 | 360 | 6.0 | 13.0 | 0.00 | 0.00 | 0.00 | 44 | 1013.8 |
| 20260831002843 | 94 | 360 | 6.0 | 15.0 | 0.00 | 0.00 | 0.00 | 44 | 1013.8 |
| 20260831002722 | 94 | 360 | 5.0 | 15.0 | 0.00 | 0.00 | 0.00 | 45 | 1013.8 |
| 20260831002642 | 94 | 360 | 6.0 | 15.0 | 0.00 | 0.00 | 0.00 | 44 | 1013.9 |
| 20260831002522 | 94 | 360 | 7.0 | 15.0 | 0.00 | 0.00 | 0.00 | 44 | 1013.8 |
| 20260831002422 | 94 | 360 | 8.0 | 15.0 | 0.00 | 0.00 | 0.00 | 44 | 1013.8 |
| 20260831002323 | 94 | 360 | 9.0 | 15.0 | 0.00 | 0.00 | 0.00 | 43 | 1013.8 |
| 20260831002228 | 95 | 360 | 10.0 | 15.0 | 0.00 | 0.00 | 0.00 | 43 | 1013.7 |
| 20260831002127 | 95 | 360 | 10.0 | 15.0 | 0.00 | 0.00 | 0.00 | 43 | 1013.8 |
| 20260831002028 | 95 | 360 | 9.0 | 15.0 | 0.00 | 0.00 | 0.00 | 43 | 1013.7 |
| 20260831001930 | 95 | 360 | 7.0 | 14.0 | 0.00 | 0.00 | 0.00 | 44 | 1013.7 |
| 20260831001831 | 95 | 360 | 7.0 | 14.0 | 0.00 | 0.00 | 0.00 | 44 | 1013.8 |
| 20260831001731 | 95 | 360 | 7.0 | 14.0 | 0.00 | 0.00 | 0.00 | 45 | 1013.7 |
| 20260831001617 | 95 | 360 | 6.0 | 14.0 | 0.00 | 0.00 | 0.00 | 45 | 1013.8 |
| 20260831001516 | 95 | 360 | 8.0 | 14.0 | 0.00 | 0.00 | 0.00 | 45 | 1013.7 |
| 20260831001437 | 95 | 360 | 9.0 | 14.0 | 0.00 | 0.00 | 0.00 | 45 | 1013.7 |
| 20260831001336 | 95 | 360 | 9.0 | 14.0 | 0.00 | 0.00 | 0.00 | 45 | 1013.6 |
| 20260831001257 | 95 | 360 | 10.0 | 14.0 | 0.00 | 0.00 | 0.00 | 45 | 1013.7 |
| 20260831001116 | 95 | 360 | 8.0 | 12.0 | 0.00 | 0.00 | 0.00 | 45 | 1013.6 |
| 20260831001017 | 95 | 360 | 7.0 | 12.0 | 0.00 | 0.00 | 0.00 | 45 | 1013.7 |
| 20260831000917 | 95 | 360 | 6.0 | 11.0 | 0.00 | 0.00 | 0.00 | 46 | 1013.7 |
| 20260831000823 | 95 | 360 | 5.0 | 11.0 | 0.00 | 0.00 | 0.00 | 46 | 1013.7 |
| 20260831000722 | 95 | 360 | 5.0 | 11.0 | 0.00 | 0.00 | 0.00 | 45 | 1013.7 |
| 20260831000643 | 95 | 360 | 4.0 | 11.0 | 0.00 | 0.00 | 0.00 | 45 | 1013.7 |
| 20260831000541 | 95 | 360 | 4.0 | 11.0 | 0.00 | 0.00 | 0.00 | 45 | 1013.7 |
| 20260831000420 | 95 | 360 | 4.0 | 11.0 | 0.00 | 0.00 | 0.00 | 45 | 1013.7 |
| 20260831000320 | 95 | 360 | 4.0 | 9.0 | 0.00 | 0.00 | 0.00 | 46 | 1013.7 |
| 20260831000220 | 95 | 360 | 3.0 | 9.0 | 0.00 | 0.00 | 0.00 | 45 | 1013.7 |
| 20260831000121 | 95 | 360 | 3.0 | 9.0 | 0.00 | 0.00 | 0.00 | 44 | 1013.7 |
| 20260831000025 | 95 | 360 | 4.0 | 9.0 | 0.00 | 0.00 | 0.00 | 45 | 1013.7 |
| 20260830235925 | 95 | 360 | 4.0 | 9.0 | 0.00 | 0.00 | 0.00 | 45 | 1013.7 |
| 20260830235846 | 95 | 360 | 4.0 | 11.0 | 0.00 | 0.00 | 0.00 | 45 | 1013.7 |
| 20260830235725 | 95 | 360 | 4.0 | 11.0 | 0.00 | 0.00 | 0.00 | 45 | 1013.7 |
| 20260830235626 | 95 | 360 | 4.0 | 11.0 | 0.00 | 0.00 | 0.00 | 45 | 1013.7 |
| 20260830235528 | 95 | 360 | 4.0 | 11.0 | 0.00 | 0.00 | 0.00 | 45 | 1013.7 |
| 20260830235428 | 95 | 360 | 3.0 | 11.0 | 0.00 | 0.00 | 0.00 | 45 | 1013.6 |
| 20260830235333 | 95 | 184 | 4.0 | 11.0 | 0.00 | 0.00 | 0.00 | 45 | 1013.7 |
| 20260830235254 | 95 | 360 | 5.0 | 11.0 | 0.00 | 0.00 | 0.00 | 45 | 1013.5 |
| 20260830235154 | 95 | 360 | 6.0 | 11.0 | 0.00 | 0.00 | 0.00 | 45 | 1013.6 |
| 20260830235035 | 95 | 360 | 7.0 | 11.0 | 0.00 | 0.00 | 0.00 | 44 | 1013.7 |
| 20260830234916 | 95 | 360 | 6.0 | 11.0 | 0.00 | 0.00 | 0.00 | 44 | 1013.7 |
| 20260830234815 | 95 | 360 | 6.0 | 11.0 | 0.00 | 0.00 | 0.00 | 44 | 1013.7 |
| 20260830234716 | 95 | 360 | 6.0 | 11.0 | 0.00 | 0.00 | 0.00 | 45 | 1013.8 |
| 20260830234620 | 95 | 360 | 7.0 | 11.0 | 0.00 | 0.00 | 0.00 | 45 | 1013.7 |
| 20260830234541 | 95 | 360 | 7.0 | 11.0 | 0.00 | 0.00 | 0.00 | 45 | 1013.7 |
| 20260830234422 | 95 | 165 | 6.0 | 11.0 | 0.00 | 0.00 | 0.00 | 45 | 1013.8 |
| 20260830234321 | 95 | 360 | 4.0 | 10.0 | 0.00 | 0.00 | 0.00 | 44 | 1013.8 |
| 20260830234242 | 96 | 360 | 4.0 | 11.0 | 0.00 | 0.00 | 0.00 | 44 | 1013.8 |
| 20260830234121 | 96 | 360 | 3.0 | 11.0 | 0.00 | 0.00 | 0.00 | 45 | 1013.8 |
| 20260830234022 | 96 | 360 | 3.0 | 11.0 | 0.00 | 0.00 | 0.00 | 44 | 1013.8 |
| 20260830233922 | 96 | 360 | 4.0 | 11.0 | 0.00 | 0.00 | 0.00 | 44 | 1013.8 |
| 20260830233828 | 96 | 360 | 3.0 | 11.0 | 0.00 | 0.00 | 0.00 | 44 | 1013.8 |
| 20260830233727 | 96 | 360 | 4.0 | 11.0 | 0.00 | 0.00 | 0.00 | 44 | 1013.8 |
| 20260830233628 | 96 | 360 | 5.0 | 11.0 | 0.00 | 0.00 | 0.00 | 44 | 1013.8 |
| 20260830233529 | 96 | 360 | 6.0 | 11.0 | 0.00 | 0.00 | 0.00 | 44 | 1013.9 |
| 20260830233429 | 96 | 360 | 6.0 | 11.0 | 0.00 | 0.00 | 0.00 | 44 | 1013.9 |
| 20260830233329 | 96 | 360 | 6.0 | 11.0 | 0.00 | 0.00 | 0.00 | 43 | 1013.9 |
| 20260830233247 | 96 | 360 | 4.0 | 8.0 | 0.00 | 0.00 | 0.00 | 44 | 1013.9 |
| 20260830233131 | 96 | 360 | 4.0 | 6.0 | 0.00 | 0.00 | 0.00 | 42 | 1013.9 |
| 20260830233052 | 96 | 360 | 4.0 | 9.0 | 0.00 | 0.00 | 0.00 | 43 | 1013.8 |
| 20260830232931 | 96 | 360 | 4.0 | 9.0 | 0.00 | 0.00 | 0.00 | 43 | 1013.8 |
| 20260830232832 | 96 | 360 | 3.0 | 9.0 | 0.00 | 0.00 | 0.00 | 44 | 1013.8 |
| 20260830232752 | 96 | 360 | 3.0 | 9.0 | 0.00 | 0.00 | 0.00 | 44 | 1013.8 |
| 20260830232632 | 96 | 360 | 3.0 | 9.0 | 0.00 | 0.00 | 0.00 | 43 | 1013.8 |
| 20260830232553 | 96 | 360 | 3.0 | 9.0 | 0.00 | 0.00 | 0.00 | 43 | 1013.8 |
| 20260830232432 | 96 | 360 | 2.0 | 9.0 | 0.00 | 0.00 | 0.00 | 43 | 1013.8 |
| 20260830232335 | 96 | 360 | 3.0 | 10.0 | 0.00 | 0.00 | 0.00 | 44 | 1013.9 |
| 20260830232216 | 95 | 360 | 3.0 | 10.0 | 0.00 | 0.00 | 0.00 | 44 | 1013.9 |
| 20260830232116 | 95 | 360 | 5.0 | 10.0 | 0.00 | 0.00 | 0.00 | 44 | 1013.9 |
| 20260830232016 | 95 | 360 | 5.0 | 10.0 | 0.00 | 0.00 | 0.00 | 44 | 1013.8 |
| 20260830231917 | 95 | 360 | 6.0 | 10.0 | 0.00 | 0.00 | 0.00 | 44 | 1013.9 |
| 20260830231817 | 95 | 360 | 6.0 | 10.0 | 0.00 | 0.00 | 0.00 | 43 | 1013.9 |
| 20260830231722 | 96 | 197 | 6.0 | 10.0 | 0.00 | 0.00 | 0.00 | 43 | 1013.9 |
| 20260830231622 | 96 | 360 | 5.0 | 10.0 | 0.00 | 0.00 | 0.00 | 44 | 1013.9 |
| 20260830231522 | 96 | 360 | 5.0 | 10.0 | 0.00 | 0.00 | 0.00 | 44 | 1013.8 |
| 20260830231422 | 96 | 360 | 6.0 | 10.0 | 0.00 | 0.00 | 0.00 | 44 | 1013.8 |
| 20260830231322 | 96 | 360 | 6.0 | 10.0 | 0.00 | 0.00 | 0.00 | 43 | 1013.8 |
| 20260830231223 | 96 | 360 | 7.0 | 10.0 | 0.00 | 0.00 | 0.00 | 43 | 1013.8 |
| 20260830231124 | 96 | 360 | 6.0 | 10.0 | 0.00 | 0.00 | 0.00 | 43 | 1013.8 |
| 20260830231028 | 96 | 360 | 5.0 | 10.0 | 0.00 | 0.00 | 0.00 | 43 | 1013.8 |
| 20260830230929 | 96 | 360 | 4.0 | 9.0 | 0.00 | 0.00 | 0.00 | 43 | 1013.9 |
| 20260830230830 | 96 | 360 | 3.0 | 9.0 | 0.00 | 0.00 | 0.00 | 43 | 1013.8 |
| 20260830230731 | 96 | 360 | 2.0 | 9.0 | 0.00 | 0.00 | 0.00 | 42 | 1013.9 |
| 20260830230652 | 96 | 360 | 2.0 | 9.0 | 0.00 | 0.00 | 0.00 | 42 | 1013.9 |
| 20260830230531 | 96 | 360 | 3.0 | 9.0 | 0.00 | 0.00 | 0.00 | 43 | 1013.8 |
| 20260830230431 | 96 | 360 | 3.0 | 11.0 | 0.00 | 0.00 | 0.00 | 42 | 1013.8 |
| 20260830230316 | 96 | 360 | 4.0 | 11.0 | 0.00 | 0.00 | 0.00 | 44 | 1013.9 |
| 20260830230217 | 96 | 360 | 4.0 | 11.0 | 0.00 | 0.00 | 0.00 | 44 | 1013.9 |
| 20260830230118 | 96 | 360 | 4.0 | 11.0 | 0.00 | 0.00 | 0.00 | 43 | 1013.9 |
| 20260830230019 | 96 | 360 | 4.0 | 11.0 | 0.00 | 0.00 | 0.00 | 43 | 1013.9 |
| 20260830225920 | 96 | 360 | 5.0 | 11.0 | 0.00 | 0.00 | 0.00 | 42 | 1014.0 |
| 20260830225822 | 96 | 360 | 5.0 | 11.0 | 0.00 | 0.00 | 0.00 | 42 | 1013.9 |
| 20260830225725 | 96 | 360 | 5.0 | 11.0 | 0.00 | 0.00 | 0.00 | 42 | 1013.9 |
| 20260830225626 | 96 | 360 | 4.0 | 11.0 | 0.00 | 0.00 | 0.00 | 42 | 1013.9 |
| 20260830225526 | 97 | 360 | 3.0 | 8.0 | 0.00 | 0.00 | 0.00 | 42 | 1013.9 |
| 20260830225426 | 96 | 360 | 2.0 | 8.0 | 0.00 | 0.00 | 0.00 | 42 | 1013.9 |
| 20260830225327 | 96 | 360 | 3.0 | 8.0 | 0.00 | 0.00 | 0.00 | 42 | 1013.9 |
| 20260830225227 | 96 | 360 | 3.0 | 6.0 | 0.00 | 0.00 | 0.00 | 42 | 1013.9 |
| 20260830225127 | 96 | 360 | 2.0 | 6.0 | 0.00 | 0.00 | 0.00 | 43 | 1013.9 |
| 20260830225053 | 96 | 360 | 3.0 | 6.0 | 0.00 | 0.00 | 0.00 | 43 | 1013.9 |
| 20260830224932 | 96 | 360 | 3.0 | 8.0 | 0.00 | 0.00 | 0.00 | 44 | 1013.9 |
| 20260830224852 | 96 | 360 | 3.0 | 9.0 | 0.00 | 0.00 | 0.00 | 44 | 1013.9 |
| 20260830224732 | 96 | 157 | 3.0 | 12.0 | 0.00 | 0.00 | 0.00 | 43 | 1013.9 |
| 20260830224632 | 96 | 360 | 3.0 | 12.0 | 0.00 | 0.00 | 0.00 | 44 | 1014.0 |
| 20260830224533 | 96 | 360 | 3.0 | 12.0 | 0.00 | 0.00 | 0.00 | 44 | 1013.9 |
| 20260830224433 | 96 | 121 | 4.0 | 12.0 | 0.00 | 0.00 | 0.00 | 43 | 1014.0 |
| 20260830224318 | 96 | 360 | 4.0 | 12.0 | 0.00 | 0.00 | 0.00 | 43 | 1014.0 |
| 20260830224219 | 96 | 360 | 5.0 | 12.0 | 0.00 | 0.00 | 0.00 | 43 | 1014.1 |
| 20260830224119 | 96 | 360 | 5.0 | 13.0 | 0.00 | 0.00 | 0.00 | 42 | 1014.0 |
| 20260830224020 | 96 | 151 | 4.0 | 13.0 | 0.00 | 0.00 | 0.00 | 42 | 1014.1 |
| 20260830223921 | 96 | 360 | 3.0 | 13.0 | 0.00 | 0.00 | 0.00 | 43 | 1014.1 |
| 20260830223822 | 96 | 360 | 2.0 | 13.0 | 0.00 | 0.00 | 0.00 | 43 | 1014.1 |
| 20260830223727 | 96 | 360 | 3.0 | 13.0 | 0.00 | 0.00 | 0.00 | 43 | 1014.2 |
| 20260830223628 | 96 | 360 | 4.0 | 13.0 | 0.00 | 0.00 | 0.00 | 44 | 1014.1 |
| 20260830223528 | 95 | 360 | 7.0 | 13.0 | 0.00 | 0.00 | 0.00 | 44 | 1014.1 |
| 20260830223429 | 95 | 360 | 9.0 | 16.0 | 0.00 | 0.00 | 0.00 | 44 | 1014.1 |
| 20260830223328 | 95 | 360 | 10.0 | 16.0 | 0.00 | 0.00 | 0.00 | 43 | 1014.1 |
| 20260830223229 | 95 | 360 | 9.0 | 16.0 | 0.00 | 0.00 | 0.00 | 43 | 1014.1 |
| 20260830223129 | 95 | 159 | 8.0 | 16.0 | 0.00 | 0.00 | 0.00 | 44 | 1014.1 |
| 20260830223034 | 95 | 360 | 6.0 | 16.0 | 0.00 | 0.00 | 0.00 | 45 | 1014.0 |
| 20260830222934 | 95 | 360 | 4.0 | 16.0 | 0.00 | 0.00 | 0.00 | 45 | 1014.1 |
| 20260830222816 | 96 | 360 | 6.0 | 16.0 | 0.00 | 0.00 | 0.00 | 45 | 1014.1 |
| 20260830222716 | 96 | 360 | 7.0 | 16.0 | 0.00 | 0.00 | 0.00 | 45 | 1014.0 |
| 20260830222617 | 96 | 360 | 8.0 | 16.0 | 0.00 | 0.00 | 0.00 | 45 | 1014.0 |
| 20260830222518 | 96 | 360 | 8.0 | 16.0 | 0.00 | 0.00 | 0.00 | 46 | 1014.0 |
| 20260830222422 | 96 | 360 | 8.0 | 15.0 | 0.00 | 0.00 | 0.00 | 45 | 1013.9 |
| 20260830222322 | 96 | 360 | 7.0 | 13.0 | 0.00 | 0.00 | 0.00 | 45 | 1014.1 |
| 20260830222224 | 96 | 360 | 7.0 | 13.0 | 0.00 | 0.00 | 0.00 | 45 | 1014.0 |
| 20260830222125 | 96 | 360 | 6.0 | 13.0 | 0.00 | 0.00 | 0.00 | 44 | 1014.0 |
| 20260830222045 | 96 | 360 | 6.0 | 13.0 | 0.00 | 0.00 | 0.00 | 43 | 1014.0 |
| 20260830221926 | 96 | 360 | 7.0 | 13.0 | 0.00 | 0.00 | 0.00 | 44 | 1014.0 |
| 20260830221826 | 96 | 360 | 7.0 | 13.0 | 0.00 | 0.00 | 0.00 | 44 | 1014.1 |
| 20260830221751 | 96 | 360 | 8.0 | 13.0 | 0.00 | 0.00 | 0.00 | 44 | 1014.1 |
| 20260830221629 | 96 | 360 | 8.0 | 13.0 | 0.00 | 0.00 | 0.00 | 44 | 1014.1 |
| 20260830221530 | 96 | 360 | 7.0 | 15.0 | 0.00 | 0.00 | 0.00 | 42 | 1014.1 |
| 20260830221431 | 96 | 360 | 6.0 | 15.0 | 0.00 | 0.00 | 0.00 | 42 | 1014.1 |
| 20260830221331 | 96 | 360 | 6.0 | 15.0 | 0.00 | 0.00 | 0.00 | 42 | 1014.1 |
| 20260830221231 | 96 | 360 | 7.0 | 15.0 | 0.00 | 0.00 | 0.00 | 42 | 1014.1 |
| 20260830221116 | 96 | 360 | 8.0 | 15.0 | 0.00 | 0.00 | 0.00 | 44 | 1014.2 |
| 20260830221017 | 95 | 360 | 9.0 | 15.0 | 0.00 | 0.00 | 0.00 | 43 | 1014.3 |
| 20260830220937 | 95 | 360 | 9.0 | 15.0 | 0.00 | 0.00 | 0.00 | 43 | 1014.2 |
| 20260830220817 | 95 | 360 | 10.0 | 15.0 | 0.00 | 0.00 | 0.00 | 43 | 1014.3 |
| 20260830220718 | 95 | 360 | 10.0 | 15.0 | 0.00 | 0.00 | 0.00 | 43 | 1014.3 |
| 20260830220619 | 95 | 360 | 10.0 | 15.0 | 0.00 | 0.00 | 0.00 | 44 | 1014.2 |
| 20260830220519 | 96 | 360 | 9.0 | 14.0 | 0.00 | 0.00 | 0.00 | 43 | 1014.3 |
| 20260830220424 | 96 | 144 | 10.0 | 14.0 | 0.00 | 0.00 | 0.00 | 44 | 1014.3 |
| 20260830220324 | 95 | 360 | 10.0 | 14.0 | 0.00 | 0.00 | 0.00 | 44 | 1014.3 |
| 20260830220225 | 96 | 360 | 8.0 | 14.0 | 0.00 | 0.00 | 0.00 | 45 | 1014.3 |
| 20260830220125 | 95 | 360 | 7.0 | 14.0 | 0.00 | 0.00 | 0.00 | 46 | 1014.3 |
| 20260830220025 | 95 | 360 | 4.0 | 13.0 | 0.00 | 0.00 | 0.00 | 46 | 1014.4 |
| 20260830215926 | 95 | 360 | 4.0 | 13.0 | 0.00 | 0.00 | 0.00 | 45 | 1014.3 |
| 20260830215828 | 95 | 360 | 6.0 | 13.0 | 0.00 | 0.00 | 0.00 | 45 | 1014.4 |
| 20260830215732 | 95 | 360 | 8.0 | 13.0 | 0.00 | 0.00 | 0.00 | 45 | 1014.4 |
| 20260830215653 | 95 | 360 | 9.0 | 13.0 | 0.00 | 0.00 | 0.00 | 45 | 1014.4 |
| 20260830215533 | 95 | 360 | 8.0 | 13.0 | 0.00 | 0.00 | 0.00 | 44 | 1014.3 |
| 20260830215432 | 95 | 360 | 7.0 | 13.0 | 0.00 | 0.00 | 0.00 | 45 | 1014.3 |
| 20260830215332 | 95 | 360 | 6.0 | 13.0 | 0.00 | 0.00 | 0.00 | 44 | 1014.4 |
| 20260830215234 | 95 | 360 | 8.0 | 13.0 | 0.00 | 0.00 | 0.00 | 44 | 1014.4 |
| 20260830215155 | 95 | 360 | 8.0 | 13.0 | 0.00 | 0.00 | 0.00 | 44 | 1014.4 |
| 20260830215017 | 95 | 360 | 8.0 | 13.0 | 0.00 | 0.00 | 0.00 | 43 | 1014.4 |
| 20260830214916 | 95 | 360 | 8.0 | 16.0 | 0.00 | 0.00 | 0.00 | 44 | 1014.4 |
| 20260830214817 | 95 | 360 | 7.0 | 16.0 | 0.00 | 0.00 | 0.00 | 44 | 1014.5 |
| 20260830214717 | 95 | 360 | 7.0 | 19.0 | 0.00 | 0.00 | 0.00 | 45 | 1014.4 |
| 20260830214618 | 95 | 360 | 8.0 | 19.0 | 0.00 | 0.00 | 0.00 | 45 | 1014.4 |
| 20260830214516 | 95 | 360 | 8.0 | 19.0 | 0.00 | 0.00 | 0.00 | 45 | 1014.4 |
| 20260830214416 | 95 | 360 | 8.0 | 19.0 | 0.00 | 0.00 | 0.00 | 45 | 1014.5 |
| 20260830214321 | 95 | 360 | 7.0 | 19.0 | 0.00 | 0.00 | 0.00 | 45 | 1014.5 |
| 20260830214222 | 95 | 360 | 8.0 | 19.0 | 0.00 | 0.00 | 0.00 | 44 | 1014.5 |
| 20260830214122 | 95 | 360 | 8.0 | 19.0 | 0.00 | 0.00 | 0.00 | 46 | 1014.5 |
| 20260830214022 | 95 | 360 | 9.0 | 19.0 | 0.00 | 0.00 | 0.00 | 45 | 1014.5 |
| 20260830213924 | 95 | 360 | 10.0 | 19.0 | 0.00 | 0.00 | 0.00 | 45 | 1014.5 |
| 20260830213824 | 96 | 360 | 9.0 | 19.0 | 0.00 | 0.00 | 0.00 | 45 | 1014.5 |
| 20260830213725 | 96 | 360 | 8.0 | 19.0 | 0.00 | 0.00 | 0.00 | 46 | 1014.5 |
| 20260830213647 | 95 | 360 | 5.0 | 16.0 | 0.00 | 0.00 | 0.00 | 45 | 1014.5 |
| 20260830213527 | 95 | 360 | 3.0 | 16.0 | 0.00 | 0.00 | 0.00 | 46 | 1014.5 |
| 20260830213427 | 95 | 360 | 5.0 | 16.0 | 0.00 | 0.00 | 0.00 | 45 | 1014.5 |
| 20260830213326 | 95 | 360 | 6.0 | 20.0 | 0.00 | 0.00 | 0.00 | 45 | 1014.5 |
| 20260830213226 | 95 | 360 | 6.0 | 20.0 | 0.00 | 0.00 | 0.00 | 45 | 1014.5 |
| 20260830213127 | 95 | 360 | 7.0 | 20.0 | 0.00 | 0.00 | 0.00 | 45 | 1014.6 |
| 20260830213028 | 95 | 360 | 7.0 | 20.0 | 0.00 | 0.00 | 0.00 | 46 | 1014.6 |
| 20260830212927 | 95 | 360 | 8.0 | 20.0 | 0.00 | 0.00 | 0.00 | 45 | 1014.6 |
| 20260830212832 | 95 | 360 | 8.0 | 20.0 | 0.00 | 0.00 | 0.00 | 45 | 1014.6 |
| 20260830212732 | 95 | 360 | 10.0 | 20.0 | 0.00 | 0.00 | 0.00 | 46 | 1014.6 |
| 20260830212632 | 95 | 360 | 9.0 | 20.0 | 0.00 | 0.00 | 0.00 | 46 | 1014.7 |
| 20260830212552 | 95 | 360 | 8.0 | 20.0 | 0.00 | 0.00 | 0.00 | 45 | 1014.7 |
| 20260830212452 | 96 | 360 | 6.0 | 12.0 | 0.00 | 0.00 | 0.00 | 45 | 1014.7 |
| 20260830212331 | 96 | 360 | 6.0 | 12.0 | 0.00 | 0.00 | 0.00 | 45 | 1014.7 |
| 20260830212252 | 96 | 360 | 6.0 | 14.0 | 0.00 | 0.00 | 0.00 | 45 | 1014.8 |
| 20260830212131 | 96 | 360 | 6.0 | 14.0 | 0.00 | 0.00 | 0.00 | 46 | 1014.7 |
| 20260830212035 | 96 | 360 | 6.0 | 14.0 | 0.00 | 0.00 | 0.00 | 47 | 1014.8 |
| 20260830211916 | 96 | 360 | 7.0 | 20.0 | 0.00 | 0.00 | 0.00 | 46 | 1014.8 |
| 20260830211816 | 96 | 360 | 8.0 | 20.0 | 0.00 | 0.00 | 0.00 | 45 | 1014.8 |
| 20260830211716 | 96 | 360 | 8.0 | 20.0 | 0.00 | 0.00 | 0.00 | 45 | 1014.8 |
| 20260830211618 | 96 | 360 | 8.0 | 20.0 | 0.00 | 0.00 | 0.00 | 45 | 1014.8 |
| 20260830211517 | 96 | 360 | 7.0 | 20.0 | 0.00 | 0.00 | 0.00 | 46 | 1014.8 |
| 20260830211442 | 96 | 360 | 7.0 | 20.0 | 0.00 | 0.00 | 0.00 | 46 | 1014.8 |
| 20260830211320 | 96 | 146 | 9.0 | 20.0 | 0.00 | 0.00 | 0.00 | 46 | 1015.0 |
| 20260830211221 | 95 | 360 | 11.0 | 20.0 | 0.00 | 0.00 | 0.00 | 45 | 1015.0 |
| 20260830211121 | 95 | 360 | 11.0 | 20.0 | 0.00 | 0.00 | 0.00 | 47 | 1015.0 |
| 20260830211021 | 95 | 360 | 9.0 | 16.0 | 0.00 | 0.00 | 0.00 | 47 | 1014.9 |
| 20260830210922 | 95 | 360 | 7.0 | 17.0 | 0.00 | 0.00 | 0.00 | 47 | 1015.0 |
| 20260830210822 | 95 | 360 | 5.0 | 17.0 | 0.00 | 0.00 | 0.00 | 47 | 1015.0 |
| 20260830210727 | 95 | 360 | 4.0 | 17.0 | 0.00 | 0.00 | 0.00 | 46 | 1015.0 |
| 20260830210647 | 95 | 360 | 4.0 | 17.0 | 0.00 | 0.00 | 0.00 | 46 | 1014.9 |
| 20260830210526 | 95 | 360 | 5.0 | 19.0 | 0.00 | 0.00 | 0.00 | 47 | 1014.9 |
| 20260830210446 | 95 | 360 | 7.0 | 19.0 | 0.00 | 0.00 | 0.00 | 46 | 1015.1 |
| 20260830210326 | 95 | 360 | 9.0 | 19.0 | 0.00 | 0.00 | 0.00 | 47 | 1015.1 |
| 20260830210227 | 95 | 360 | 10.0 | 19.0 | 0.00 | 0.00 | 0.00 | 47 | 1015.1 |
| 20260830210127 | 95 | 360 | 12.0 | 19.0 | 0.00 | 0.00 | 0.00 | 47 | 1015.2 |
| 20260830210027 | 95 | 360 | 13.0 | 19.0 | 0.00 | 0.00 | 0.00 | 47 | 1015.1 |
| 20260830205931 | 95 | 360 | 13.0 | 19.0 | 0.00 | 0.00 | 0.00 | 47 | 1015.2 |
| 20260830205833 | 95 | 360 | 12.0 | 19.0 | 0.00 | 0.00 | 0.00 | 47 | 1015.1 |
| 20260830205732 | 95 | 360 | 12.0 | 17.0 | 0.00 | 0.00 | 0.00 | 47 | 1015.1 |
| 20260830205633 | 95 | 360 | 10.0 | 17.0 | 0.00 | 0.00 | 0.00 | 48 | 1015.2 |
| 20260830205553 | 95 | 360 | 8.0 | 17.0 | 0.00 | 0.00 | 0.00 | 48 | 1015.2 |
| 20260830205432 | 95 | 360 | 6.0 | 16.0 | 0.00 | 0.00 | 0.00 | 48 | 1015.2 |
| 20260830205317 | 94 | 360 | 4.0 | 15.0 | 0.00 | 0.00 | 0.00 | 48 | 1015.2 |
| 20260830205216 | 94 | 360 | 4.0 | 15.0 | 0.00 | 0.00 | 0.00 | 49 | 1015.2 |
| 20260830205117 | 94 | 360 | 4.0 | 15.0 | 0.00 | 0.00 | 0.00 | 49 | 1015.2 |
| 20260830205037 | 94 | 360 | 6.0 | 15.0 | 0.00 | 0.00 | 0.00 | 48 | 1015.2 |
| 20260830204916 | 94 | 360 | 7.0 | 16.0 | 0.00 | 0.00 | 0.00 | 47 | 1015.2 |
| 20260830204817 | 95 | 360 | 7.0 | 16.0 | 0.00 | 0.00 | 0.00 | 48 | 1015.3 |
| 20260830204717 | 95 | 360 | 6.0 | 16.0 | 0.00 | 0.00 | 0.00 | 49 | 1015.3 |
| 20260830204618 | 95 | 360 | 6.0 | 16.0 | 0.00 | 0.00 | 0.00 | 48 | 1015.3 |
| 20260830204523 | 95 | 360 | 6.0 | 16.0 | 0.00 | 0.00 | 0.00 | 49 | 1015.3 |
| 20260830204422 | 95 | 360 | 8.0 | 16.0 | 0.00 | 0.00 | 0.00 | 48 | 1015.3 |
| 20260830204323 | 95 | 360 | 8.0 | 16.0 | 0.00 | 0.00 | 0.00 | 48 | 1015.3 |
| 20260830204221 | 95 | 360 | 9.0 | 16.0 | 0.00 | 0.00 | 0.00 | 49 | 1015.4 |
| 20260830204142 | 95 | 360 | 9.0 | 16.0 | 0.00 | 0.00 | 0.00 | 49 | 1015.4 |
| 20260830204022 | 95 | 360 | 9.0 | 16.0 | 0.00 | 0.00 | 0.00 | 49 | 1015.4 |
| 20260830203923 | 95 | 360 | 9.0 | 16.0 | 0.00 | 0.00 | 0.00 | 49 | 1015.4 |
| 20260830203823 | 94 | 360 | 8.0 | 18.0 | 0.00 | 0.00 | 0.00 | 49 | 1015.4 |
| 20260830203727 | 94 | 360 | 8.0 | 22.0 | 0.00 | 0.00 | 0.00 | 49 | 1015.4 |
| 20260830203628 | 94 | 360 | 7.0 | 22.0 | 0.00 | 0.00 | 0.00 | 49 | 1015.5 |
| 20260830203527 | 94 | 360 | 7.0 | 22.0 | 0.00 | 0.00 | 0.00 | 49 | 1015.5 |
| 20260830203427 | 94 | 360 | 8.0 | 22.0 | 0.00 | 0.00 | 0.00 | 49 | 1015.5 |
| 20260830203327 | 94 | 360 | 8.0 | 22.0 | 0.00 | 0.00 | 0.00 | 49 | 1015.5 |
| 20260830203228 | 94 | 360 | 10.0 | 22.0 | 0.00 | 0.00 | 0.00 | 49 | 1015.6 |
| 20260830203129 | 94 | 360 | 11.0 | 22.0 | 0.00 | 0.00 | 0.00 | 49 | 1015.5 |
| 20260830203034 | 94 | 360 | 10.0 | 22.0 | 0.00 | 0.00 | 0.00 | 49 | 1015.5 |
| 20260830202953 | 94 | 360 | 8.0 | 22.0 | 0.00 | 0.00 | 0.00 | 50 | 1015.6 |
| 20260830202833 | 94 | 360 | 5.0 | 14.0 | 0.00 | 0.00 | 0.00 | 50 | 1015.5 |
| 20260830202734 | 94 | 360 | 5.0 | 18.0 | 0.00 | 0.00 | 0.00 | 50 | 1015.6 |
| 20260830202635 | 94 | 360 | 5.0 | 18.0 | 0.00 | 0.00 | 0.00 | 51 | 1015.6 |
| 20260830202535 | 94 | 360 | 5.0 | 18.0 | 0.00 | 0.00 | 0.00 | 51 | 1015.6 |
| 20260830202416 | 94 | 360 | 7.0 | 18.0 | 0.00 | 0.00 | 0.00 | 50 | 1015.6 |
| 20260830202320 | 94 | 360 | 7.0 | 18.0 | 0.00 | 0.00 | 0.00 | 51 | 1015.6 |
| 20260830202221 | 94 | 360 | 6.0 | 18.0 | 0.00 | 0.00 | 0.00 | 51 | 1015.6 |
| 20260830202123 | 94 | 160 | 6.0 | 18.0 | 0.00 | 0.00 | 0.00 | 51 | 1015.7 |
| 20260830202022 | 94 | 360 | 9.0 | 18.0 | 0.00 | 0.00 | 0.00 | 50 | 1015.6 |
| 20260830201922 | 94 | 360 | 12.0 | 18.0 | 0.00 | 0.00 | 0.00 | 51 | 1015.8 |
| 20260830201842 | 94 | 360 | 12.0 | 18.0 | 0.00 | 0.00 | 0.00 | 51 | 1015.7 |
| 20260830201722 | 94 | 360 | 10.0 | 17.0 | 0.00 | 0.00 | 0.00 | 50 | 1015.6 |
| 20260830201642 | 94 | 360 | 10.0 | 17.0 | 0.00 | 0.00 | 0.00 | 50 | 1015.7 |
| 20260830201541 | 94 | 360 | 9.0 | 17.0 | 0.00 | 0.00 | 0.00 | 50 | 1015.7 |
| 20260830201425 | 94 | 360 | 10.0 | 17.0 | 0.00 | 0.00 | 0.00 | 51 | 1015.7 |
| 20260830201326 | 94 | 360 | 9.0 | 17.0 | 0.00 | 0.00 | 0.00 | 51 | 1015.7 |
| 20260830201226 | 94 | 360 | 8.0 | 19.0 | 0.00 | 0.00 | 0.00 | 51 | 1015.7 |
| 20260830201126 | 94 | 360 | 6.0 | 19.0 | 0.00 | 0.00 | 0.00 | 50 | 1015.5 |
| 20260830201026 | 94 | 360 | 5.0 | 19.0 | 0.00 | 0.00 | 0.00 | 51 | 1015.6 |
| 20260830200927 | 94 | 360 | 6.0 | 19.0 | 0.00 | 0.00 | 0.00 | 51 | 1015.7 |
| 20260830200832 | 94 | 360 | 7.0 | 19.0 | 0.00 | 0.00 | 0.00 | 52 | 1015.8 |
| 20260830200732 | 94 | 360 | 9.0 | 19.0 | 0.00 | 0.00 | 0.00 | 53 | 1015.8 |
| 20260830200654 | 93 | 360 | 11.0 | 19.0 | 0.00 | 0.00 | 0.00 | 53 | 1015.8 |
| 20260830200534 | 93 | 360 | 11.0 | 19.0 | 0.00 | 0.00 | 0.00 | 52 | 1015.8 |
| 20260830200454 | 94 | 360 | 11.0 | 19.0 | 0.00 | 0.00 | 0.00 | 52 | 1015.9 |
| 20260830200334 | 94 | 360 | 12.0 | 17.0 | 0.00 | 0.00 | 0.00 | 52 | 1015.9 |
| 20260830200235 | 94 | 360 | 10.0 | 17.0 | 0.00 | 0.00 | 0.00 | 52 | 1015.9 |
| 20260830200155 | 94 | 360 | 8.0 | 17.0 | 0.00 | 0.00 | 0.00 | 52 | 1015.9 |
| 20260830200018 | 93 | 360 | 4.0 | 17.0 | 0.00 | 0.00 | 0.00 | 51 | 1015.8 |
| 20260830195918 | 93 | 360 | 5.0 | 14.0 | 0.00 | 0.00 | 0.00 | 52 | 1015.9 |
| 20260830195820 | 93 | 360 | 4.0 | 15.0 | 0.00 | 0.00 | 0.00 | 52 | 1016.0 |
| 20260830195719 | 93 | 360 | 5.0 | 15.0 | 0.00 | 0.00 | 0.00 | 51 | 1015.9 |
| 20260830195619 | 93 | 360 | 7.0 | 15.0 | 0.00 | 0.00 | 0.00 | 51 | 1015.9 |
| 20260830195519 | 93 | 360 | 9.0 | 15.0 | 0.00 | 0.00 | 0.00 | 51 | 1016.0 |
| 20260830195440 | 93 | 360 | 9.0 | 15.0 | 0.00 | 0.00 | 0.00 | 51 | 1016.1 |
| 20260830195340 | 94 | 360 | 8.0 | 15.0 | 0.00 | 0.00 | 0.00 | 51 | 1016.0 |
| 20260830195224 | 94 | 360 | 9.0 | 15.0 | 0.00 | 0.00 | 0.00 | 51 | 1016.1 |
| 20260830195124 | 94 | 360 | 10.0 | 15.0 | 0.00 | 0.00 | 0.00 | 51 | 1016.1 |
| 20260830195024 | 95 | 360 | 11.0 | 15.0 | 0.00 | 0.00 | 0.00 | 51 | 1016.1 |
| 20260830194924 | 95 | 360 | 8.0 | 17.0 | 0.00 | 0.00 | 0.00 | 51 | 1016.2 |
| 20260830194825 | 95 | 360 | 7.0 | 17.0 | 0.00 | 0.00 | 0.00 | 50 | 1016.1 |
| 20260830194725 | 94 | 360 | 4.0 | 17.0 | 0.00 | 0.00 | 0.00 | 50 | 1016.1 |
| 20260830194630 | 94 | 360 | 3.0 | 17.0 | 0.00 | 0.00 | 0.00 | 50 | 1016.1 |
| 20260830194530 | 94 | 360 | 5.0 | 17.0 | 0.00 | 0.00 | 0.00 | 52 | 1016.1 |
| 20260830194431 | 94 | 360 | 6.0 | 17.0 | 0.00 | 0.00 | 0.00 | 51 | 1016.2 |
| 20260830194331 | 94 | 360 | 8.0 | 17.0 | 0.00 | 0.00 | 0.00 | 51 | 1016.3 |
| 20260830194232 | 94 | 360 | 10.0 | 17.0 | 0.00 | 0.00 | 0.00 | 51 | 1016.2 |
| 20260830194134 | 94 | 360 | 10.0 | 17.0 | 0.00 | 0.00 | 0.00 | 51 | 1016.4 |
| 20260830194018 | 94 | 360 | 8.0 | 17.0 | 0.00 | 0.00 | 0.00 | 51 | 1016.3 |
| 20260830193919 | 94 | 360 | 7.0 | 15.0 | 0.00 | 0.00 | 0.00 | 51 | 1016.3 |
| 20260830193819 | 93 | 360 | 7.0 | 15.0 | 0.00 | 0.00 | 0.00 | 51 | 1016.2 |
| 20260830193719 | 93 | 360 | 7.0 | 15.0 | 0.00 | 0.00 | 0.00 | 51 | 1016.4 |
| 20260830193620 | 94 | 360 | 6.0 | 15.0 | 0.00 | 0.00 | 0.00 | 51 | 1016.5 |
| 20260830193520 | 94 | 360 | 7.0 | 15.0 | 0.00 | 0.00 | 0.00 | 52 | 1016.4 |
| 20260830193420 | 94 | 360 | 7.0 | 15.0 | 0.00 | 0.00 | 0.00 | 51 | 1016.5 |
| 20260830193325 | 94 | 360 | 8.0 | 15.0 | 0.00 | 0.00 | 0.00 | 52 | 1016.4 |
| 20260830193225 | 94 | 360 | 7.0 | 15.0 | 0.00 | 0.00 | 0.00 | 51 | 1016.5 |
| 20260830193126 | 93 | 360 | 5.0 | 17.0 | 0.00 | 0.00 | 0.00 | 53 | 1016.4 |
| 20260830193026 | 93 | 360 | 4.0 | 18.0 | 0.00 | 0.00 | 0.00 | 52 | 1016.4 |
| 20260830192947 | 93 | 360 | 4.0 | 18.0 | 0.00 | 0.00 | 0.00 | 52 | 1016.4 |
| 20260830192827 | 93 | 164 | 4.0 | 18.0 | 0.00 | 0.00 | 0.00 | 52 | 1016.5 |
| 20260830192727 | 92 | 115 | 6.0 | 18.0 | 0.00 | 0.00 | 0.00 | 52 | 1016.5 |
| 20260830192632 | 92 | 114 | 8.0 | 18.0 | 0.00 | 0.00 | 0.00 | 52 | 1016.6 |
| 20260830192532 | 92 | 360 | 11.0 | 18.0 | 0.00 | 0.00 | 0.00 | 52 | 1016.6 |
| 20260830192433 | 93 | 360 | 12.0 | 18.0 | 0.00 | 0.00 | 0.00 | 52 | 1016.6 |
| 20260830192354 | 93 | 360 | 11.0 | 18.0 | 0.00 | 0.00 | 0.00 | 52 | 1016.6 |
| 20260830192234 | 93 | 360 | 9.0 | 19.0 | 0.00 | 0.00 | 0.00 | 54 | 1016.6 |
| 20260830192135 | 93 | 360 | 6.0 | 19.0 | 0.00 | 0.00 | 0.00 | 53 | 1016.5 |
| 20260830192035 | 93 | 360 | 4.0 | 19.0 | 0.00 | 0.00 | 0.00 | 53 | 1016.6 |
| 20260830191919 | 93 | 360 | 6.0 | 19.0 | 0.00 | 0.00 | 0.00 | 53 | 1016.6 |
| 20260830191819 | 93 | 117 | 7.0 | 19.0 | 0.00 | 0.00 | 0.00 | 54 | 1016.6 |
| 20260830191740 | 92 | 360 | 8.0 | 19.0 | 0.00 | 0.00 | 0.00 | 53 | 1016.6 |
| 20260830191639 | 92 | 360 | 10.0 | 19.0 | 0.00 | 0.00 | 0.00 | 54 | 1016.6 |
| 20260830191518 | 92 | 360 | 9.0 | 19.0 | 0.00 | 0.00 | 0.00 | 54 | 1016.6 |
| 20260830191418 | 92 | 360 | 8.0 | 17.0 | 0.00 | 0.00 | 0.00 | 53 | 1016.7 |
| 20260830191319 | 93 | 360 | 5.0 | 13.0 | 0.00 | 0.00 | 0.00 | 53 | 1016.7 |
| 20260830191239 | 93 | 360 | 4.0 | 13.0 | 0.00 | 0.00 | 0.00 | 53 | 1016.7 |
| 20260830191123 | 93 | 360 | 3.0 | 13.0 | 0.00 | 0.00 | 0.00 | 53 | 1016.7 |
| 20260830191023 | 93 | 360 | 4.0 | 13.0 | 0.00 | 0.00 | 0.00 | 52 | 1016.8 |
| 20260830190924 | 93 | 360 | 6.0 | 13.0 | 0.00 | 0.00 | 0.00 | 53 | 1016.8 |
| 20260830190824 | 93 | 360 | 7.0 | 13.0 | 0.00 | 0.00 | 0.00 | 53 | 1016.8 |
| 20260830190724 | 94 | 360 | 7.0 | 13.0 | 0.00 | 0.00 | 0.00 | 53 | 1016.9 |
| 20260830190645 | 93 | 360 | 6.0 | 13.0 | 0.00 | 0.00 | 0.00 | 51 | 1016.7 |
| 20260830190523 | 93 | 360 | 5.0 | 17.0 | 0.00 | 0.00 | 0.00 | 51 | 1016.8 |
| 20260830190422 | 93 | 360 | 4.0 | 17.0 | 0.00 | 0.00 | 0.00 | 52 | 1016.8 |
| 20260830190326 | 93 | 360 | 4.0 | 17.0 | 0.00 | 0.00 | 0.00 | 55 | 1016.9 |
| 20260830190226 | 93 | 360 | 5.0 | 17.0 | 0.00 | 0.00 | 0.00 | 54 | 1016.8 |
| 20260830190127 | 92 | 117 | 6.0 | 17.0 | 0.00 | 0.00 | 0.00 | 55 | 1016.8 |
| 20260830190027 | 92 | 360 | 8.0 | 17.0 | 0.00 | 0.00 | 0.00 | 54 | 1016.9 |
| 20260830185927 | 92 | 360 | 8.0 | 17.0 | 0.00 | 0.00 | 0.00 | 54 | 1016.9 |
| 20260830185828 | 93 | 360 | 8.0 | 17.0 | 0.00 | 0.00 | 0.00 | 54 | 1016.9 |
| 20260830185727 | 93 | 360 | 6.0 | 17.0 | 0.00 | 0.00 | 0.00 | 54 | 1016.9 |
| 20260830185632 | 93 | 360 | 5.0 | 17.0 | 0.00 | 0.00 | 0.00 | 53 | 1016.9 |
| 20260830185533 | 94 | 360 | 3.0 | 11.0 | 0.00 | 0.00 | 0.00 | 55 | 1016.9 |
| 20260830185434 | 93 | 360 | 2.0 | 13.0 | 0.00 | 0.00 | 0.00 | 55 | 1017.0 |
| 20260830185335 | 93 | 360 | 2.0 | 13.0 | 0.00 | 0.00 | 0.00 | 55 | 1016.9 |
| 20260830185216 | 92 | 360 | 3.0 | 13.0 | 0.00 | 0.00 | 0.00 | 55 | 1017.0 |
| 20260830185116 | 92 | 360 | 4.0 | 13.0 | 0.00 | 0.00 | 0.00 | 57 | 1017.1 |
| 20260830185037 | 92 | 360 | 5.0 | 15.0 | 0.00 | 0.00 | 0.00 | 57 | 1017.0 |
| 20260830184921 | 92 | 360 | 6.0 | 15.0 | 0.00 | 0.00 | 0.00 | 57 | 1017.1 |
| 20260830184821 | 92 | 360 | 7.0 | 15.0 | 0.00 | 0.00 | 0.00 | 56 | 1017.1 |
| 20260830184720 | 91 | 360 | 6.0 | 15.0 | 0.00 | 0.00 | 0.00 | 57 | 1017.0 |
| 20260830184621 | 91 | 360 | 6.0 | 15.0 | 0.00 | 0.00 | 0.00 | 56 | 1017.1 |
| 20260830184522 | 91 | 360 | 5.0 | 15.0 | 0.00 | 0.00 | 0.00 | 56 | 1017.1 |
| 20260830184442 | 91 | 360 | 5.0 | 15.0 | 0.00 | 0.00 | 0.00 | 55 | 1017.1 |
| 20260830184322 | 91 | 360 | 6.0 | 15.0 | 0.00 | 0.00 | 0.00 | 55 | 1017.1 |
| 20260830184226 | 91 | 360 | 7.0 | 15.0 | 0.00 | 0.00 | 0.00 | 55 | 1017.1 |
| 20260830184146 | 91 | 360 | 7.0 | 15.0 | 0.00 | 0.00 | 0.00 | 55 | 1017.1 |
| 20260830184026 | 91 | 360 | 6.0 | 15.0 | 0.00 | 0.00 | 0.00 | 56 | 1017.1 |
| 20260830183927 | 91 | 360 | 6.0 | 14.0 | 0.00 | 0.00 | 0.00 | 56 | 1017.1 |
| 20260830183827 | 91 | 360 | 5.0 | 14.0 | 0.00 | 0.00 | 0.00 | 56 | 1017.1 |
| 20260830183728 | 91 | 360 | 6.0 | 16.0 | 0.00 | 0.00 | 0.00 | 55 | 1017.2 |
| 20260830183649 | 91 | 360 | 7.0 | 16.0 | 0.00 | 0.00 | 0.00 | 55 | 1017.2 |
| 20260830183532 | 91 | 360 | 8.0 | 16.0 | 0.00 | 0.00 | 0.00 | 56 | 1017.2 |
| 20260830183433 | 91 | 360 | 9.0 | 16.0 | 0.00 | 0.00 | 0.00 | 55 | 1017.2 |
| 20260830183334 | 91 | 360 | 8.0 | 16.0 | 0.00 | 0.00 | 0.00 | 56 | 1017.2 |
| 20260830183234 | 92 | 360 | 9.0 | 16.0 | 0.00 | 0.00 | 0.00 | 56 | 1017.2 |
| 20260830183135 | 91 | 360 | 8.0 | 16.0 | 0.00 | 0.00 | 0.00 | 56 | 1017.2 |
| 20260830183035 | 92 | 360 | 9.0 | 16.0 | 0.00 | 0.00 | 0.00 | 55 | 1017.3 |
| 20260830182920 | 92 | 360 | 9.0 | 16.0 | 0.00 | 0.00 | 0.00 | 55 | 1017.3 |
| 20260830182842 | 92 | 360 | 8.0 | 16.0 | 0.00 | 0.00 | 0.00 | 55 | 1017.3 |
| 20260830182720 | 92 | 360 | 8.0 | 15.0 | 0.00 | 0.00 | 0.00 | 56 | 1017.3 |
| 20260830182621 | 92 | 360 | 7.0 | 15.0 | 0.00 | 0.00 | 0.00 | 56 | 1017.3 |
| 20260830182542 | 92 | 139 | 9.0 | 16.0 | 0.00 | 0.00 | 0.00 | 56 | 1017.4 |
| 20260830182421 | 92 | 360 | 9.0 | 16.0 | 0.00 | 0.00 | 0.00 | 56 | 1017.4 |
| 20260830182342 | 92 | 360 | 9.0 | 16.0 | 0.00 | 0.00 | 0.00 | 57 | 1017.5 |
| 20260830182222 | 92 | 360 | 6.0 | 17.0 | 0.00 | 0.00 | 0.00 | 57 | 1017.4 |
| 20260830182121 | 92 | 360 | 5.0 | 17.0 | 0.00 | 0.00 | 0.00 | 56 | 1017.5 |
| 20260830182027 | 92 | 360 | 3.0 | 17.0 | 0.00 | 0.00 | 0.00 | 56 | 1017.5 |
| 20260830181927 | 92 | 360 | 3.0 | 17.0 | 0.00 | 0.00 | 0.00 | 56 | 1017.5 |
| 20260830181828 | 92 | 360 | 3.0 | 17.0 | 0.00 | 0.00 | 0.00 | 55 | 1017.5 |
| 20260830181727 | 93 | 360 | 6.0 | 17.0 | 0.00 | 0.00 | 0.00 | 55 | 1017.4 |
| 20260830181628 | 93 | 360 | 8.0 | 17.0 | 0.00 | 0.00 | 0.00 | 56 | 1017.5 |
| 20260830181549 | 93 | 360 | 8.0 | 17.0 | 0.00 | 0.00 | 0.00 | 54 | 1017.4 |
| 20260830181448 | 94 | 360 | 7.0 | 17.0 | 0.00 | 0.00 | 0.00 | 55 | 1017.4 |
| 20260830181348 | 94 | 360 | 4.0 | 11.0 | 0.00 | 0.00 | 0.00 | 55 | 1017.5 |
| 20260830181230 | 94 | 159 | 4.0 | 13.0 | 0.00 | 0.00 | 0.00 | 55 | 1017.4 |
| 20260830181131 | 93 | 360 | 4.0 | 14.0 | 0.00 | 0.00 | 0.00 | 55 | 1017.5 |
| 20260830181031 | 93 | 360 | 4.0 | 14.0 | 0.00 | 0.00 | 0.00 | 56 | 1017.5 |
| 20260830180931 | 92 | 360 | 5.0 | 14.0 | 0.00 | 0.00 | 0.00 | 56 | 1017.5 |
| 20260830180831 | 92 | 360 | 5.0 | 14.0 | 0.00 | 0.00 | 0.00 | 56 | 1017.6 |
| 20260830180729 | 91 | 360 | 5.0 | 14.0 | 0.00 | 0.00 | 0.00 | 57 | 1017.6 |
| 20260830180649 | 91 | 360 | 6.0 | 14.0 | 0.00 | 0.00 | 0.00 | 56 | 1017.7 |
| 20260830180526 | 91 | 360 | 8.0 | 14.0 | 0.00 | 0.00 | 0.00 | 57 | 1017.8 |
| 20260830180431 | 91 | 360 | 8.0 | 14.0 | 0.00 | 0.00 | 0.00 | 57 | 1017.8 |
| 20260830180352 | 91 | 360 | 8.0 | 14.0 | 0.00 | 0.00 | 0.00 | 56 | 1017.9 |
| 20260830180230 | 91 | 360 | 7.0 | 16.0 | 0.00 | 0.00 | 0.00 | 57 | 1017.9 |
| 20260830180129 | 91 | 360 | 8.0 | 16.0 | 0.00 | 0.00 | 0.00 | 58 | 1017.9 |
| 20260830180030 | 91 | 360 | 8.0 | 16.0 | 0.00 | 0.00 | 0.00 | 57 | 1017.9 |
| 20260830175930 | 91 | 360 | 8.0 | 16.0 | 0.00 | 0.00 | 0.00 | 57 | 1017.9 |
| 20260830175832 | 91 | 360 | 7.0 | 16.0 | 0.00 | 0.00 | 0.00 | 58 | 1018.0 |
| 20260830175735 | 90 | 360 | 5.0 | 16.0 | 0.00 | 0.00 | 0.00 | 56 | 1018.0 |
| 20260830175616 | 90 | 360 | 6.0 | 16.0 | 0.00 | 0.00 | 0.00 | 56 | 1018.0 |
| 20260830175516 | 91 | 196 | 6.0 | 16.0 | 0.00 | 0.00 | 0.00 | 56 | 1018.1 |
| 20260830175437 | 91 | 360 | 7.0 | 15.0 | 0.00 | 0.00 | 0.00 | 56 | 1018.0 |
| 20260830175358 | 91 | 360 | 6.0 | 14.0 | 0.00 | 0.00 | 0.00 | 56 | 1018.1 |
| 20260830175236 | 92 | 360 | 5.0 | 14.0 | 0.00 | 0.00 | 0.00 | 55 | 1018.1 |
| 20260830175156 | 92 | 360 | 4.0 | 9.0 | 0.00 | 0.00 | 0.00 | 57 | 1018.1 |
| 20260830175055 | 92 | 360 | 3.0 | 12.0 | 0.00 | 0.00 | 0.00 | 57 | 1018.1 |
| 20260830174920 | 92 | 360 | 4.0 | 12.0 | 0.00 | 0.00 | 0.00 | 57 | 1018.2 |
| 20260830174840 | 91 | 360 | 3.0 | 13.0 | 0.00 | 0.00 | 0.00 | 57 | 1018.2 |
| 20260830174719 | 91 | 360 | 4.0 | 17.0 | 0.00 | 0.00 | 0.00 | 57 | 1018.2 |
| 20260830174619 | 91 | 360 | 4.0 | 17.0 | 0.00 | 0.00 | 0.00 | 57 | 1018.2 |
| 20260830174519 | 91 | 360 | 3.0 | 17.0 | 0.00 | 0.00 | 0.00 | 58 | 1018.3 |
| 20260830174420 | 91 | 360 | 4.0 | 17.0 | 0.00 | 0.00 | 0.00 | 58 | 1018.2 |
| 20260830174320 | 91 | 360 | 7.0 | 17.0 | 0.00 | 0.00 | 0.00 | 59 | 1018.3 |
| 20260830174219 | 90 | 360 | 9.0 | 17.0 | 0.00 | 0.00 | 0.00 | 59 | 1018.3 |
| 20260830174119 | 90 | 360 | 8.0 | 17.0 | 0.00 | 0.00 | 0.00 | 58 | 1018.3 |
| 20260830174044 | 90 | 360 | 7.0 | 17.0 | 0.00 | 0.00 | 0.00 | 59 | 1018.2 |
| 20260830173923 | 90 | 360 | 8.0 | 17.0 | 0.00 | 0.00 | 0.00 | 58 | 1018.3 |
| 20260830173824 | 90 | 360 | 8.0 | 15.0 | 0.00 | 0.00 | 0.00 | 57 | 1018.3 |
| 20260830173725 | 90 | 360 | 7.0 | 15.0 | 0.00 | 0.00 | 0.00 | 57 | 1018.4 |
| 20260830173645 | 90 | 360 | 4.0 | 13.0 | 0.00 | 0.00 | 0.00 | 59 | 1018.4 |
| 20260830173524 | 91 | 360 | 2.0 | 10.0 | 0.00 | 0.00 | 0.00 | 59 | 1018.4 |
| 20260830173423 | 91 | 360 | 3.0 | 12.0 | 0.00 | 0.00 | 0.00 | 61 | 1018.4 |
| 20260830173343 | 90 | 360 | 5.0 | 12.0 | 0.00 | 0.00 | 0.00 | 60 | 1018.4 |
| 20260830173227 | 90 | 360 | 5.0 | 12.0 | 0.00 | 0.00 | 0.00 | 57 | 1018.4 |
| 20260830173127 | 91 | 180 | 4.0 | 12.0 | 0.00 | 0.00 | 0.00 | 57 | 1018.4 |
| 20260830173029 | 91 | 360 | 3.0 | 12.0 | 0.00 | 0.00 | 0.00 | 58 | 1018.4 |
| 20260830173005 | 91 | 360 | 3.0 | 12.0 | 0.00 | 0.00 | 0.00 | 59 | 1018.5 |
| 20260830172729 | 91 | 360 | 4.0 | 12.0 | 0.00 | 0.00 | 0.00 | 58 | 1018.4 |
| 20260830172634 | 91 | 360 | 3.0 | 12.0 | 0.00 | 0.00 | 0.00 | 58 | 1018.4 |
| 20260830172554 | 92 | 360 | 3.0 | 11.0 | 0.00 | 0.00 | 0.00 | 60 | 1018.4 |
| 20260830172433 | 91 | 360 | 2.0 | 11.0 | 0.00 | 0.00 | 0.00 | 61 | 1018.5 |
| 20260830172353 | 91 | 360 | 3.0 | 11.0 | 0.00 | 0.00 | 0.00 | 61 | 1018.4 |
| 20260830172233 | 91 | 360 | 4.0 | 11.0 | 0.00 | 0.00 | 0.00 | 61 | 1018.5 |
| 20260830172134 | 90 | 360 | 5.0 | 13.0 | 0.00 | 0.00 | 0.00 | 61 | 1018.4 |
| 20260830172034 | 90 | 180 | 6.0 | 13.0 | 0.00 | 0.00 | 0.00 | 61 | 1018.6 |
| 20260830171919 | 90 | 360 | 6.0 | 13.0 | 0.00 | 0.00 | 0.00 | 61 | 1018.5 |
| 20260830171819 | 90 | 360 | 7.0 | 13.0 | 0.00 | 0.00 | 0.00 | 60 | 1018.6 |
| 20260830171720 | 90 | 360 | 7.0 | 13.0 | 0.00 | 0.00 | 0.00 | 61 | 1018.5 |
| 20260830171641 | 90 | 360 | 7.0 | 13.0 | 0.00 | 0.00 | 0.00 | 61 | 1018.6 |
| 20260830171521 | 90 | 360 | 7.0 | 13.0 | 0.00 | 0.00 | 0.00 | 61 | 1018.6 |
| 20260830171421 | 89 | 360 | 8.0 | 13.0 | 0.00 | 0.00 | 0.00 | 62 | 1018.6 |
| 20260830171321 | 90 | 360 | 7.0 | 13.0 | 0.00 | 0.00 | 0.00 | 62 | 1018.6 |
| 20260830171226 | 89 | 360 | 6.0 | 13.0 | 0.00 | 0.00 | 0.00 | 62 | 1018.7 |
| 20260830171127 | 89 | 360 | 5.0 | 12.0 | 0.00 | 0.00 | 0.00 | 62 | 1018.6 |
| 20260830171028 | 89 | 360 | 5.0 | 12.0 | 0.00 | 0.00 | 0.00 | 62 | 1018.6 |
| 20260830170928 | 89 | 360 | 5.0 | 12.0 | 0.00 | 0.00 | 0.00 | 61 | 1018.6 |
| 20260830170828 | 89 | 360 | 3.0 | 12.0 | 0.00 | 0.00 | 0.00 | 62 | 1018.7 |
| 20260830170729 | 89 | 360 | 2.0 | 12.0 | 0.00 | 0.00 | 0.00 | 62 | 1018.7 |
| 20260830170630 | 89 | 360 | 3.0 | 12.0 | 0.00 | 0.00 | 0.00 | 62 | 1018.7 |
| 20260830170534 | 89 | 360 | 5.0 | 12.0 | 0.00 | 0.00 | 0.00 | 63 | 1018.7 |
| 20260830170455 | 89 | 360 | 7.0 | 12.0 | 0.00 | 0.00 | 0.00 | 62 | 1018.7 |
| 20260830170354 | 89 | 360 | 7.0 | 12.0 | 0.00 | 0.00 | 0.00 | 60 | 1018.7 |
| 20260830170254 | 90 | 360 | 5.0 | 11.0 | 0.00 | 0.00 | 0.00 | 60 | 1018.7 |
| 20260830170133 | 90 | 360 | 4.0 | 11.0 | 0.00 | 0.00 | 0.00 | 60 | 1018.8 |
| 20260830170034 | 91 | 360 | 3.0 | 9.0 | 0.00 | 0.00 | 0.00 | 60 | 1018.8 |
| 20260830165934 | 91 | 360 | 2.0 | 9.0 | 0.00 | 0.00 | 0.00 | 60 | 1018.8 |
| 20260830165820 | 90 | 153 | 3.0 | 12.0 | 0.00 | 0.00 | 0.00 | 61 | 1018.7 |
| 20260830165719 | 90 | 360 | 3.0 | 12.0 | 0.00 | 0.00 | 0.00 | 62 | 1018.7 |
| 20260830165619 | 90 | 360 | 3.0 | 12.0 | 0.00 | 0.00 | 0.00 | 62 | 1018.7 |
| 20260830165520 | 90 | 360 | 3.0 | 12.0 | 0.00 | 0.00 | 0.00 | 63 | 1018.8 |
| 20260830165440 | 89 | 360 | 4.0 | 12.0 | 0.00 | 0.00 | 0.00 | 63 | 1018.8 |
| 20260830165320 | 89 | 360 | 4.0 | 12.0 | 0.00 | 0.00 | 0.00 | 63 | 1018.8 |
| 20260830165220 | 89 | 360 | 5.0 | 12.0 | 0.00 | 0.00 | 0.00 | 63 | 1018.8 |
| 20260830165124 | 89 | 360 | 5.0 | 12.0 | 0.00 | 0.00 | 0.00 | 62 | 1018.8 |
| 20260830165024 | 89 | 360 | 6.0 | 12.0 | 0.00 | 0.00 | 0.00 | 62 | 1018.9 |
| 20260830164925 | 89 | 360 | 4.0 | 12.0 | 0.00 | 0.00 | 0.00 | 62 | 1018.8 |
| 20260830164846 | 89 | 360 | 4.0 | 12.0 | 0.00 | 0.00 | 0.00 | 62 | 1019.0 |
| 20260830164725 | 90 | 360 | 4.0 | 12.0 | 0.00 | 0.00 | 0.00 | 62 | 1018.9 |
| 20260830164626 | 90 | 360 | 5.0 | 12.0 | 0.00 | 0.00 | 0.00 | 63 | 1018.8 |
| 20260830164526 | 89 | 360 | 6.0 | 12.0 | 0.00 | 0.00 | 0.00 | 63 | 1018.9 |
| 20260830164430 | 89 | 360 | 6.0 | 11.0 | 0.00 | 0.00 | 0.00 | 62 | 1018.9 |
| 20260830164331 | 90 | 360 | 4.0 | 11.0 | 0.00 | 0.00 | 0.00 | 62 | 1018.9 |
| 20260830164232 | 90 | 360 | 2.0 | 11.0 | 0.00 | 0.00 | 0.00 | 61 | 1018.9 |
| 20260830164132 | 90 | 360 | 2.0 | 11.0 | 0.00 | 0.00 | 0.00 | 62 | 1018.8 |
| 20260830164033 | 90 | 360 | 2.0 | 11.0 | 0.00 | 0.00 | 0.00 | 63 | 1018.9 |
| 20260830163932 | 90 | 360 | 3.0 | 11.0 | 0.00 | 0.00 | 0.00 | 65 | 1018.8 |
| 20260830163833 | 89 | 360 | 3.0 | 11.0 | 0.00 | 0.00 | 0.00 | 65 | 1018.9 |
| 20260830163752 | 89 | 360 | 5.0 | 11.0 | 0.00 | 0.00 | 0.00 | 64 | 1018.9 |
| 20260830163616 | 89 | 360 | 5.0 | 11.0 | 0.00 | 0.00 | 0.00 | 63 | 1019.0 |
| 20260830163517 | 89 | 360 | 6.0 | 11.0 | 0.00 | 0.00 | 0.00 | 63 | 1019.0 |
| 20260830163417 | 89 | 360 | 5.0 | 11.0 | 0.00 | 0.00 | 0.00 | 63 | 1019.1 |
| 20260830163338 | 89 | 360 | 3.0 | 11.0 | 0.00 | 0.00 | 0.00 | 63 | 1019.0 |
| 20260830163217 | 89 | 360 | 3.0 | 16.0 | 0.00 | 0.00 | 0.00 | 63 | 1019.0 |
| 20260830163118 | 89 | 360 | 2.0 | 16.0 | 0.00 | 0.00 | 0.00 | 65 | 1019.0 |
| 20260830163038 | 89 | 360 | 2.0 | 16.0 | 0.00 | 0.00 | 0.00 | 65 | 1019.0 |
| 20260830162922 | 88 | 360 | 4.0 | 16.0 | 0.00 | 0.00 | 0.00 | 65 | 1018.9 |
| 20260830162844 | 88 | 360 | 6.0 | 16.0 | 0.00 | 0.00 | 0.00 | 65 | 1019.0 |
| 20260830162721 | 87 | 360 | 8.0 | 16.0 | 0.00 | 0.00 | 0.00 | 64 | 1019.0 |
| 20260830162622 | 88 | 360 | 7.0 | 16.0 | 0.00 | 0.00 | 0.00 | 64 | 1018.9 |
| 20260830162523 | 88 | 360 | 5.0 | 16.0 | 0.00 | 0.00 | 0.00 | 65 | 1018.9 |
| 20260830162423 | 87 | 360 | 5.0 | 16.0 | 0.00 | 0.00 | 0.00 | 65 | 1018.9 |
| 20260830162323 | 87 | 360 | 8.0 | 16.0 | 0.00 | 0.00 | 0.00 | 65 | 1018.9 |
| 20260830162228 | 87 | 360 | 9.0 | 16.0 | 0.00 | 0.00 | 0.00 | 64 | 1018.9 |
| 20260830162129 | 87 | 360 | 8.0 | 16.0 | 0.00 | 0.00 | 0.00 | 65 | 1019.0 |
| 20260830162029 | 87 | 360 | 4.0 | 11.0 | 0.00 | 0.00 | 0.00 | 65 | 1019.0 |
| 20260830161930 | 88 | 360 | 2.0 | 11.0 | 0.00 | 0.00 | 0.00 | 65 | 1018.9 |
| 20260830161831 | 87 | 178 | 2.0 | 11.0 | 0.00 | 0.00 | 0.00 | 64 | 1019.0 |
| 20260830161731 | 87 | 360 | 3.0 | 15.0 | 0.00 | 0.00 | 0.00 | 64 | 1018.9 |
| 20260830161617 | 87 | 360 | 5.0 | 15.0 | 0.00 | 0.00 | 0.00 | 64 | 1018.9 |
| 20260830161537 | 87 | 360 | 5.0 | 15.0 | 0.00 | 0.00 | 0.00 | 64 | 1019.0 |
| 20260830161416 | 88 | 360 | 5.0 | 15.0 | 0.00 | 0.00 | 0.00 | 65 | 1019.0 |
| 20260830161317 | 88 | 360 | 4.0 | 15.0 | 0.00 | 0.00 | 0.00 | 66 | 1018.9 |
| 20260830161218 | 87 | 360 | 4.0 | 14.0 | 0.00 | 0.00 | 0.00 | 66 | 1018.9 |
| 20260830161118 | 87 | 360 | 6.0 | 14.0 | 0.00 | 0.00 | 0.00 | 67 | 1019.0 |
| 20260830161018 | 87 | 360 | 6.0 | 14.0 | 0.00 | 0.00 | 0.00 | 66 | 1018.9 |
| 20260830160918 | 87 | 360 | 5.0 | 14.0 | 0.00 | 0.00 | 0.00 | 67 | 1019.0 |
| 20260830160822 | 87 | 360 | 5.0 | 14.0 | 0.00 | 0.00 | 0.00 | 67 | 1019.0 |
| 20260830160722 | 87 | 360 | 7.0 | 14.0 | 0.00 | 0.00 | 0.00 | 66 | 1019.0 |
| 20260830160623 | 87 | 360 | 8.0 | 14.0 | 0.00 | 0.00 | 0.00 | 64 | 1019.0 |
| 20260830160524 | 87 | 360 | 9.0 | 14.0 | 0.00 | 0.00 | 0.00 | 64 | 1019.1 |
| 20260830160424 | 87 | 360 | 7.0 | 14.0 | 0.00 | 0.00 | 0.00 | 64 | 1019.0 |
| 20260830160326 | 88 | 360 | 5.0 | 12.0 | 0.00 | 0.00 | 0.00 | 65 | 1019.0 |
| 20260830160230 | 88 | 360 | 4.0 | 12.0 | 0.00 | 0.00 | 0.00 | 66 | 1019.0 |
| 20260830160131 | 87 | 360 | 6.0 | 12.0 | 0.00 | 0.00 | 0.00 | 66 | 1019.0 |
| 20260830160031 | 88 | 360 | 6.0 | 12.0 | 0.00 | 0.00 | 0.00 | 65 | 1018.9 |
| 20260830155952 | 88 | 360 | 7.0 | 12.0 | 0.00 | 0.00 | 0.00 | 65 | 1018.9 |
| 20260830155832 | 88 | 360 | 6.0 | 12.0 | 0.00 | 0.00 | 0.00 | 64 | 1018.9 |
| 20260830155730 | 88 | 360 | 5.0 | 12.0 | 0.00 | 0.00 | 0.00 | 64 | 1018.8 |
| 20260830155632 | 88 | 360 | 3.0 | 11.0 | 0.00 | 0.00 | 0.00 | 66 | 1018.8 |
| 20260830155553 | 88 | 360 | 3.0 | 11.0 | 0.00 | 0.00 | 0.00 | 66 | 1018.8 |
| 20260830155456 | 88 | 360 | 2.0 | 11.0 | 0.00 | 0.00 | 0.00 | 66 | 1018.8 |
| 20260830155356 | 88 | 360 | 4.0 | 11.0 | 0.00 | 0.00 | 0.00 | 67 | 1018.8 |
| 20260830155255 | 88 | 360 | 4.0 | 11.0 | 0.00 | 0.00 | 0.00 | 67 | 1018.9 |
| 20260830155134 | 88 | 360 | 6.0 | 11.0 | 0.00 | 0.00 | 0.00 | 66 | 1018.8 |
| 20260830155034 | 88 | 360 | 4.0 | 11.0 | 0.00 | 0.00 | 0.00 | 66 | 1018.8 |
| 20260830154935 | 88 | 360 | 4.0 | 11.0 | 0.00 | 0.00 | 0.00 | 66 | 1018.8 |
| 20260830154816 | 88 | 360 | 4.0 | 9.0 | 0.00 | 0.00 | 0.00 | 66 | 1018.7 |
| 20260830154735 | 88 | 360 | 4.0 | 9.0 | 0.00 | 0.00 | 0.00 | 67 | 1018.8 |
| 20260830154620 | 88 | 360 | 3.0 | 9.0 | 0.00 | 0.00 | 0.00 | 67 | 1018.7 |
| 20260830154520 | 87 | 360 | 3.0 | 10.0 | 0.00 | 0.00 | 0.00 | 68 | 1018.7 |
| 20260830154421 | 87 | 360 | 3.0 | 10.0 | 0.00 | 0.00 | 0.00 | 68 | 1018.7 |
| 20260830154322 | 87 | 360 | 3.0 | 10.0 | 0.00 | 0.00 | 0.00 | 67 | 1018.7 |
| 20260830154243 | 87 | 360 | 3.0 | 10.0 | 0.00 | 0.00 | 0.00 | 67 | 1018.7 |
| 20260830154141 | 87 | 360 | 4.0 | 10.0 | 0.00 | 0.00 | 0.00 | 69 | 1018.8 |
| 20260830154021 | 86 | 360 | 5.0 | 10.0 | 0.00 | 0.00 | 0.00 | 69 | 1018.7 |
| 20260830153926 | 86 | 360 | 6.0 | 10.0 | 0.00 | 0.00 | 0.00 | 70 | 1018.8 |
| 20260830153846 | 86 | 360 | 6.0 | 10.0 | 0.00 | 0.00 | 0.00 | 70 | 1018.8 |
| 20260830153726 | 86 | 360 | 4.0 | 10.0 | 0.00 | 0.00 | 0.00 | 71 | 1018.8 |
| 20260830153626 | 86 | 360 | 4.0 | 10.0 | 0.00 | 0.00 | 0.00 | 71 | 1018.8 |
| 20260830153526 | 86 | 360 | 3.0 | 10.0 | 0.00 | 0.00 | 0.00 | 71 | 1018.8 |
| 20260830153427 | 85 | 360 | 4.0 | 13.0 | 0.00 | 0.00 | 0.00 | 71 | 1018.8 |
| 20260830153327 | 85 | 360 | 4.0 | 13.0 | 0.00 | 0.00 | 0.00 | 72 | 1018.8 |
| 20260830153232 | 85 | 360 | 5.0 | 13.0 | 0.00 | 0.00 | 0.00 | 71 | 1018.8 |
| 20260830153133 | 85 | 360 | 6.0 | 13.0 | 0.00 | 0.00 | 0.00 | 70 | 1018.8 |
| 20260830153032 | 85 | 360 | 6.0 | 13.0 | 0.00 | 0.00 | 0.00 | 70 | 1018.8 |
| 20260830152953 | 85 | 360 | 7.0 | 13.0 | 0.00 | 0.00 | 0.00 | 70 | 1018.8 |
| 20260830152833 | 85 | 360 | 6.0 | 13.0 | 0.00 | 0.00 | 0.00 | 71 | 1018.8 |
| 20260830152732 | 85 | 360 | 5.0 | 13.0 | 0.00 | 0.00 | 0.00 | 71 | 1018.7 |
| 20260830152651 | 85 | 360 | 5.0 | 13.0 | 0.00 | 0.00 | 0.00 | 70 | 1018.7 |
| 20260830152530 | 85 | 360 | 4.0 | 13.0 | 0.00 | 0.00 | 0.00 | 72 | 1018.8 |
| 20260830152434 | 85 | 360 | 4.0 | 13.0 | 0.00 | 0.00 | 0.00 | 71 | 1018.7 |
| 20260830152354 | 84 | 360 | 5.0 | 13.0 | 0.00 | 0.00 | 0.00 | 71 | 1018.8 |
| 20260830152233 | 84 | 360 | 5.0 | 13.0 | 0.00 | 0.00 | 0.00 | 72 | 1018.8 |
| 20260830152134 | 84 | 360 | 4.0 | 13.0 | 0.00 | 0.00 | 0.00 | 73 | 1018.7 |
| 20260830152032 | 84 | 360 | 5.0 | 13.0 | 0.00 | 0.00 | 0.00 | 73 | 1018.7 |
| 20260830151932 | 84 | 360 | 5.0 | 13.0 | 0.00 | 0.00 | 0.00 | 73 | 1018.7 |
| 20260830151832 | 84 | 360 | 5.0 | 13.0 | 0.00 | 0.00 | 0.00 | 73 | 1018.6 |
| 20260830151753 | 84 | 360 | 6.0 | 12.0 | 0.00 | 0.00 | 0.00 | 74 | 1018.6 |
| 20260830151631 | 84 | 360 | 5.0 | 12.0 | 0.00 | 0.00 | 0.00 | 74 | 1018.7 |
| 20260830151516 | 83 | 360 | 6.0 | 12.0 | 0.00 | 0.00 | 0.00 | 74 | 1018.6 |
| 20260830151416 | 83 | 360 | 5.0 | 12.0 | 0.00 | 0.00 | 0.00 | 74 | 1018.7 |
| 20260830151317 | 83 | 360 | 6.0 | 12.0 | 0.00 | 0.00 | 0.00 | 74 | 1018.6 |
| 20260830151217 | 83 | 360 | 5.0 | 12.0 | 0.00 | 0.00 | 0.00 | 75 | 1018.6 |
| 20260830151137 | 83 | 360 | 5.0 | 12.0 | 0.00 | 0.00 | 0.00 | 75 | 1018.7 |
| 20260830151017 | 83 | 360 | 5.0 | 12.0 | 0.00 | 0.00 | 0.00 | 74 | 1018.7 |
| 20260830150922 | 83 | 360 | 4.0 | 11.0 | 0.00 | 0.00 | 0.00 | 74 | 1018.7 |
| 20260830150822 | 83 | 360 | 5.0 | 11.0 | 0.00 | 0.00 | 0.00 | 74 | 1018.7 |
| 20260830150723 | 83 | 360 | 5.0 | 11.0 | 0.00 | 0.00 | 0.00 | 74 | 1018.7 |
| 20260830150644 | 83 | 360 | 5.0 | 13.0 | 0.00 | 0.00 | 0.00 | 73 | 1018.7 |
| 20260830150523 | 84 | 360 | 4.0 | 13.0 | 0.00 | 0.00 | 0.00 | 74 | 1018.7 |
| 20260830150424 | 83 | 360 | 4.0 | 13.0 | 0.00 | 0.00 | 0.00 | 75 | 1018.6 |
| 20260830150325 | 83 | 360 | 3.0 | 13.0 | 0.00 | 0.00 | 0.00 | 75 | 1018.6 |
| 20260830150230 | 83 | 360 | 4.0 | 13.0 | 0.00 | 0.00 | 0.00 | 75 | 1018.7 |
| 20260830150131 | 83 | 360 | 5.0 | 13.0 | 0.00 | 0.00 | 0.00 | 76 | 1018.6 |
| 20260830150052 | 83 | 360 | 5.0 | 14.0 | 0.00 | 0.00 | 0.00 | 75 | 1018.6 |
| 20260830145931 | 83 | 360 | 5.0 | 14.0 | 0.00 | 0.00 | 0.00 | 76 | 1018.6 |
| 20260830145853 | 83 | 360 | 3.0 | 14.0 | 0.00 | 0.00 | 0.00 | 76 | 1018.6 |
| 20260830145730 | 83 | 360 | 4.0 | 14.0 | 0.00 | 0.00 | 0.00 | 76 | 1018.7 |
| 20260830145630 | 83 | 360 | 4.0 | 14.0 | 0.00 | 0.00 | 0.00 | 75 | 1018.6 |
| 20260830145531 | 83 | 360 | 4.0 | 14.0 | 0.00 | 0.00 | 0.00 | 75 | 1018.6 |
| 20260830145451 | 83 | 360 | 6.0 | 14.0 | 0.00 | 0.00 | 0.00 | 76 | 1018.8 |
| 20260830145335 | 83 | 360 | 5.0 | 14.0 | 0.00 | 0.00 | 0.00 | 76 | 1018.7 |
| 20260830145235 | 83 | 360 | 6.0 | 14.0 | 0.00 | 0.00 | 0.00 | 76 | 1018.7 |
| 20260830145135 | 83 | 360 | 5.0 | 11.0 | 0.00 | 0.00 | 0.00 | 76 | 1018.7 |
| 20260830145056 | 83 | 360 | 5.0 | 11.0 | 0.00 | 0.00 | 0.00 | 76 | 1018.6 |
| 20260830144935 | 84 | 360 | 4.0 | 11.0 | 0.00 | 0.00 | 0.00 | 76 | 1018.7 |
| 20260830144816 | 83 | 360 | 5.0 | 11.0 | 0.00 | 0.00 | 0.00 | 77 | 1018.6 |
| 20260830144720 | 83 | 360 | 5.0 | 13.0 | 0.00 | 0.00 | 0.00 | 77 | 1018.6 |
| 20260830144620 | 83 | 360 | 6.0 | 13.0 | 0.00 | 0.00 | 0.00 | 78 | 1018.6 |
| 20260830144521 | 83 | 360 | 6.0 | 13.0 | 0.00 | 0.00 | 0.00 | 77 | 1018.6 |
| 20260830144441 | 83 | 360 | 5.0 | 13.0 | 0.00 | 0.00 | 0.00 | 77 | 1018.6 |
| 20260830144321 | 82 | 360 | 5.0 | 13.0 | 0.00 | 0.00 | 0.00 | 77 | 1018.5 |
| 20260830144222 | 82 | 360 | 6.0 | 13.0 | 0.00 | 0.00 | 0.00 | 77 | 1018.6 |
| 20260830144122 | 82 | 360 | 6.0 | 13.0 | 0.00 | 0.00 | 0.00 | 77 | 1018.6 |
| 20260830144026 | 82 | 360 | 6.0 | 13.0 | 0.00 | 0.00 | 0.00 | 77 | 1018.6 |
| 20260830143927 | 82 | 360 | 7.0 | 13.0 | 0.00 | 0.00 | 0.00 | 77 | 1018.6 |
| 20260830143828 | 83 | 360 | 6.0 | 13.0 | 0.00 | 0.00 | 0.00 | 77 | 1018.6 |
| 20260830143730 | 83 | 360 | 6.0 | 13.0 | 0.00 | 0.00 | 0.00 | 77 | 1018.7 |
| 20260830143630 | 83 | 360 | 4.0 | 11.0 | 0.00 | 0.00 | 0.00 | 77 | 1018.6 |
| 20260830143530 | 83 | 360 | 3.0 | 11.0 | 0.00 | 0.00 | 0.00 | 78 | 1018.7 |
| 20260830143430 | 83 | 360 | 3.0 | 11.0 | 0.00 | 0.00 | 0.00 | 77 | 1018.6 |
| 20260830143335 | 83 | 360 | 3.0 | 11.0 | 0.00 | 0.00 | 0.00 | 77 | 1018.7 |
| 20260830143235 | 83 | 360 | 3.0 | 11.0 | 0.00 | 0.00 | 0.00 | 78 | 1018.7 |
| 20260830143156 | 83 | 360 | 3.0 | 11.0 | 0.00 | 0.00 | 0.00 | 78 | 1018.7 |
| 20260830143056 | 82 | 360 | 4.0 | 11.0 | 0.00 | 0.00 | 0.00 | 79 | 1018.7 |
| 20260830142955 | 82 | 360 | 3.0 | 11.0 | 0.00 | 0.00 | 0.00 | 79 | 1018.8 |
| 20260830142836 | 82 | 360 | 3.0 | 8.0 | 0.00 | 0.00 | 0.00 | 79 | 1018.7 |
| 20260830142717 | 82 | 360 | 2.0 | 8.0 | 0.00 | 0.00 | 0.00 | 80 | 1018.7 |
| 20260830142618 | 82 | 360 | 2.0 | 8.0 | 0.00 | 0.00 | 0.00 | 80 | 1018.8 |
| 20260830142542 | 82 | 360 | 3.0 | 8.0 | 0.00 | 0.00 | 0.00 | 80 | 1018.8 |
| 20260830142422 | 82 | 360 | 4.0 | 8.0 | 0.00 | 0.00 | 0.00 | 80 | 1018.9 |
| 20260830142323 | 82 | 360 | 4.0 | 9.0 | 0.00 | 0.00 | 0.00 | 80 | 1018.7 |
| 20260830142223 | 82 | 360 | 3.0 | 11.0 | 0.00 | 0.00 | 0.00 | 80 | 1018.9 |
| 20260830142124 | 82 | 360 | 2.0 | 11.0 | 0.00 | 0.00 | 0.00 | 80 | 1018.8 |
| 20260830142024 | 82 | 360 | 3.0 | 11.0 | 0.00 | 0.00 | 0.00 | 81 | 1018.8 |
| 20260830141924 | 81 | 360 | 3.0 | 11.0 | 0.00 | 0.00 | 0.00 | 81 | 1018.8 |
| 20260830141829 | 81 | 360 | 4.0 | 11.0 | 0.00 | 0.00 | 0.00 | 81 | 1018.8 |
| 20260830141730 | 81 | 360 | 6.0 | 11.0 | 0.00 | 0.00 | 0.00 | 81 | 1018.7 |
| 20260830141630 | 81 | 360 | 5.0 | 11.0 | 0.00 | 0.00 | 0.00 | 81 | 1018.7 |
| 20260830141530 | 81 | 360 | 6.0 | 11.0 | 0.00 | 0.00 | 0.00 | 80 | 1018.7 |
| 20260830141431 | 81 | 360 | 6.0 | 11.0 | 0.00 | 0.00 | 0.00 | 80 | 1018.7 |
| 20260830141353 | 81 | 360 | 4.0 | 11.0 | 0.00 | 0.00 | 0.00 | 80 | 1018.7 |
| 20260830141215 | 81 | 184 | 3.0 | 11.0 | 0.00 | 0.00 | 0.00 | 82 | 1018.6 |
| 20260830141116 | 81 | 360 | 2.0 | 11.0 | 0.00 | 0.00 | 0.00 | 82 | 1018.6 |
| 20260830141017 | 81 | 360 | 3.0 | 11.0 | 0.00 | 0.00 | 0.00 | 82 | 1018.6 |
| 20260830140917 | 80 | 360 | 5.0 | 13.0 | 0.00 | 0.00 | 0.00 | 82 | 1018.6 |
| 20260830140818 | 80 | 360 | 6.0 | 13.0 | 0.00 | 0.00 | 0.00 | 82 | 1018.7 |
| 20260830140720 | 80 | 360 | 5.0 | 13.0 | 0.00 | 0.00 | 0.00 | 82 | 1018.6 |
| 20260830140620 | 80 | 360 | 4.0 | 13.0 | 0.00 | 0.00 | 0.00 | 82 | 1018.6 |
| 20260830140524 | 80 | 360 | 4.0 | 13.0 | 0.00 | 0.00 | 0.00 | 82 | 1018.7 |
| 20260830140445 | 80 | 360 | 4.0 | 13.0 | 0.00 | 0.00 | 0.00 | 83 | 1018.6 |
| 20260830140325 | 80 | 360 | 5.0 | 13.0 | 0.00 | 0.00 | 0.00 | 83 | 1018.6 |
| 20260830140226 | 80 | 360 | 5.0 | 13.0 | 0.00 | 0.00 | 0.00 | 82 | 1018.6 |
| 20260830140127 | 80 | 360 | 6.0 | 13.0 | 0.00 | 0.00 | 0.00 | 82 | 1018.5 |
| 20260830140026 | 80 | 360 | 5.0 | 11.0 | 0.00 | 0.00 | 0.00 | 82 | 1018.4 |
| 20260830135927 | 80 | 360 | 5.0 | 11.0 | 0.00 | 0.00 | 0.00 | 82 | 1018.5 |
| 20260830135853 | 80 | 360 | 5.0 | 11.0 | 0.00 | 0.00 | 0.00 | 82 | 1018.4 |
| 20260830135730 | 80 | 360 | 4.0 | 11.0 | 0.00 | 0.00 | 0.00 | 82 | 1018.4 |
| 20260830135630 | 80 | 360 | 4.0 | 11.0 | 0.00 | 0.00 | 0.00 | 82 | 1018.4 |
| 20260830135530 | 80 | 360 | 4.0 | 8.0 | 0.00 | 0.00 | 0.00 | 83 | 1018.4 |
| 20260830135431 | 80 | 360 | 3.0 | 10.0 | 0.00 | 0.00 | 0.00 | 83 | 1018.4 |
| 20260830135352 | 80 | 360 | 3.0 | 10.0 | 0.00 | 0.00 | 0.00 | 83 | 1018.5 |
| 20260830135232 | 80 | 360 | 4.0 | 10.0 | 0.00 | 0.00 | 0.00 | 83 | 1018.4 |
| 20260830135116 | 80 | 360 | 4.0 | 10.0 | 0.00 | 0.00 | 0.00 | 83 | 1018.4 |
| 20260830135016 | 80 | 360 | 4.0 | 11.0 | 0.00 | 0.00 | 0.00 | 83 | 1018.4 |
| 20260830134917 | 80 | 360 | 3.0 | 11.0 | 0.00 | 0.00 | 0.00 | 83 | 1018.4 |
| 20260830134818 | 79 | 360 | 2.0 | 11.0 | 0.00 | 0.00 | 0.00 | 83 | 1018.3 |
| 20260830134718 | 79 | 360 | 2.0 | 11.0 | 0.00 | 0.00 | 0.00 | 83 | 1018.3 |
| 20260830134619 | 79 | 360 | 3.0 | 11.0 | 0.00 | 0.00 | 0.00 | 84 | 1018.4 |
| 20260830134524 | 79 | 360 | 4.0 | 11.0 | 0.00 | 0.00 | 0.00 | 83 | 1018.4 |
| 20260830134425 | 79 | 360 | 4.0 | 11.0 | 0.00 | 0.00 | 0.00 | 83 | 1018.4 |
| 20260830134325 | 79 | 360 | 4.0 | 11.0 | 0.00 | 0.00 | 0.00 | 83 | 1018.4 |
| 20260830134227 | 79 | 360 | 4.0 | 11.0 | 0.00 | 0.00 | 0.00 | 84 | 1018.3 |
| 20260830134128 | 79 | 360 | 3.0 | 8.0 | 0.00 | 0.00 | 0.00 | 84 | 1018.4 |
| 20260830134028 | 79 | 360 | 3.0 | 8.0 | 0.00 | 0.00 | 0.00 | 84 | 1018.4 |
| 20260830133926 | 79 | 360 | 2.0 | 5.0 | 0.00 | 0.00 | 0.00 | 84 | 1018.3 |
| 20260830133851 | 79 | 360 | 2.0 | 5.0 | 0.00 | 0.00 | 0.00 | 84 | 1018.4 |
| 20260830133731 | 79 | 360 | 3.0 | 5.0 | 0.00 | 0.00 | 0.00 | 84 | 1018.4 |
| 20260830133631 | 79 | 360 | 3.0 | 5.0 | 0.00 | 0.00 | 0.00 | 84 | 1018.3 |
| 20260830133532 | 79 | 360 | 2.0 | 5.0 | 0.00 | 0.00 | 0.00 | 84 | 1018.3 |
| 20260830133432 | 79 | 360 | 2.0 | 5.0 | 0.00 | 0.00 | 0.00 | 84 | 1018.3 |
| 20260830133333 | 79 | 360 | 2.0 | 5.0 | 0.00 | 0.00 | 0.00 | 85 | 1018.3 |
| 20260830133218 | 79 | 360 | 2.0 | 5.0 | 0.00 | 0.00 | 0.00 | 85 | 1018.3 |
| 20260830133138 | 79 | 360 | 3.0 | 5.0 | 0.00 | 0.00 | 0.00 | 85 | 1018.2 |
| 20260830133038 | 78 | 360 | 2.0 | 5.0 | 0.00 | 0.00 | 0.00 | 85 | 1018.2 |
| 20260830132917 | 78 | 360 | 3.0 | 5.0 | 0.00 | 0.00 | 0.00 | 85 | 1018.3 |
| 20260830132818 | 78 | 360 | 2.0 | 5.0 | 0.00 | 0.00 | 0.00 | 85 | 1018.2 |
| 20260830132717 | 78 | 360 | 2.0 | 5.0 | 0.00 | 0.00 | 0.00 | 85 | 1018.3 |
| 20260830132619 | 78 | 360 | 2.0 | 5.0 | 0.00 | 0.00 | 0.00 | 85 | 1018.2 |
| 20260830132518 | 78 | 360 | 1.0 | 4.0 | 0.00 | 0.00 | 0.00 | 86 | 1018.2 |
| 20260830132443 | 78 | 360 | 1.0 | 4.0 | 0.00 | 0.00 | 0.00 | 86 | 1018.2 |
| 20260830132321 | 78 | 360 | 0.0 | 4.0 | 0.00 | 0.00 | 0.00 | 86 | 1018.2 |
| 20260830132222 | 78 | 360 | 1.0 | 4.0 | 0.00 | 0.00 | 0.00 | 86 | 1018.2 |
| 20260830132123 | 78 | 360 | 1.0 | 4.0 | 0.00 | 0.00 | 0.00 | 86 | 1018.1 |
| 20260830132044 | 78 | 360 | 1.0 | 4.0 | 0.00 | 0.00 | 0.00 | 86 | 1018.1 |
| 20260830131923 | 78 | 360 | 2.0 | 4.0 | 0.00 | 0.00 | 0.00 | 86 | 1018.1 |
| 20260830131823 | 78 | 360 | 2.0 | 4.0 | 0.00 | 0.00 | 0.00 | 86 | 1018.1 |
| 20260830131722 | 77 | 360 | 1.0 | 3.0 | 0.00 | 0.00 | 0.00 | 86 | 1018.1 |
| 20260830131627 | 77 | 360 | 1.0 | 3.0 | 0.00 | 0.00 | 0.00 | 87 | 1018.1 |
| 20260830131527 | 77 | 360 | 1.0 | 3.0 | 0.00 | 0.00 | 0.00 | 87 | 1018.0 |
| 20260830131427 | 77 | 360 | 0.0 | 3.0 | 0.00 | 0.00 | 0.00 | 87 | 1018.0 |
| 20260830131348 | 77 | 360 | 0.0 | 3.0 | 0.00 | 0.00 | 0.00 | 88 | 1018.1 |
| 20260830131228 | 77 | 360 | 0.0 | 3.0 | 0.00 | 0.00 | 0.00 | 88 | 1018.1 |
| 20260830131128 | 77 | 360 | 1.0 | 3.0 | 0.00 | 0.00 | 0.00 | 88 | 1018.1 |
| 20260830131029 | 77 | 360 | 1.0 | 3.0 | 0.00 | 0.00 | 0.00 | 88 | 1018.1 |
| 20260830130933 | 76 | 360 | 1.0 | 3.0 | 0.00 | 0.00 | 0.00 | 88 | 1018.1 |
| 20260830130833 | 76 | 360 | 1.0 | 3.0 | 0.00 | 0.00 | 0.00 | 88 | 1018.0 |
| 20260830130734 | 76 | 360 | 1.0 | 2.0 | 0.00 | 0.00 | 0.00 | 88 | 1018.1 |
| 20260830130654 | 76 | 360 | 1.0 | 2.0 | 0.00 | 0.00 | 0.00 | 88 | 1018.1 |
| 20260830130533 | 76 | 360 | 1.0 | 2.0 | 0.00 | 0.00 | 0.00 | 88 | 1018.1 |
| 20260830130433 | 76 | 360 | 1.0 | 5.0 | 0.00 | 0.00 | 0.00 | 89 | 1018.1 |
| 20260830130317 | 76 | 360 | 0.0 | 5.0 | 0.00 | 0.00 | 0.00 | 89 | 1018.1 |
| 20260830130217 | 76 | 360 | 1.0 | 5.0 | 0.00 | 0.00 | 0.00 | 89 | 1018.0 |
| 20260830130118 | 76 | 360 | 1.0 | 5.0 | 0.00 | 0.00 | 0.00 | 89 | 1018.1 |
| 20260830130019 | 76 | 360 | 1.0 | 5.0 | 0.00 | 0.00 | 0.00 | 89 | 1018.0 |
| 20260830125940 | 75 | 360 | 1.0 | 5.0 | 0.00 | 0.00 | 0.00 | 89 | 1018.0 |
| 20260830125819 | 75 | 360 | 1.0 | 4.0 | 0.00 | 0.00 | 0.00 | 89 | 1018.0 |
| 20260830125718 | 75 | 196 | 1.0 | 4.0 | 0.00 | 0.00 | 0.00 | 89 | 1018.1 |
| 20260830125619 | 75 | 360 | 1.0 | 4.0 | 0.00 | 0.00 | 0.00 | 89 | 1018.0 |
| 20260830125524 | 75 | 360 | 1.0 | 2.0 | 0.00 | 0.00 | 0.00 | 89 | 1018.0 |
| 20260830125445 | 75 | 360 | 1.0 | 3.0 | 0.00 | 0.00 | 0.00 | 89 | 1018.0 |
| 20260830125344 | 75 | 360 | 1.0 | 3.0 | 0.00 | 0.00 | 0.00 | 89 | 1018.0 |
| 20260830125225 | 75 | 360 | 1.0 | 3.0 | 0.00 | 0.00 | 0.00 | 89 | 1018.0 |
| 20260830125126 | 75 | 360 | 1.0 | 3.0 | 0.00 | 0.00 | 0.00 | 89 | 1018.0 |
| 20260830125027 | 75 | 360 | 1.0 | 3.0 | 0.00 | 0.00 | 0.00 | 89 | 1018.0 |
| 20260830124928 | 75 | 360 | 1.0 | 3.0 | 0.00 | 0.00 | 0.00 | 89 | 1018.0 |
| 20260830124847 | 75 | 360 | 1.0 | 3.0 | 0.00 | 0.00 | 0.00 | 89 | 1018.0 |
| 20260830124731 | 75 | 360 | 2.0 | 3.0 | 0.00 | 0.00 | 0.00 | 89 | 1018.0 |
| 20260830124632 | 75 | 360 | 2.0 | 3.0 | 0.00 | 0.00 | 0.00 | 89 | 1018.0 |
| 20260830124532 | 75 | 360 | 1.0 | 3.0 | 0.00 | 0.00 | 0.00 | 89 | 1018.0 |
| 20260830124435 | 75 | 360 | 1.0 | 3.0 | 0.00 | 0.00 | 0.00 | 89 | 1018.0 |
| 20260830124335 | 75 | 360 | 1.0 | 3.0 | 0.00 | 0.00 | 0.00 | 89 | 1017.9 |
| 20260830124216 | 75 | 360 | 1.0 | 3.0 | 0.00 | 0.00 | 0.00 | 89 | 1018.0 |
| 20260830124121 | 75 | 360 | 2.0 | 3.0 | 0.00 | 0.00 | 0.00 | 89 | 1018.0 |
| 20260830124022 | 75 | 360 | 2.0 | 3.0 | 0.00 | 0.00 | 0.00 | 89 | 1018.0 |
| 20260830123922 | 75 | 360 | 1.0 | 3.0 | 0.00 | 0.00 | 0.00 | 89 | 1018.1 |
| 20260830123822 | 75 | 360 | 1.0 | 3.0 | 0.00 | 0.00 | 0.00 | 89 | 1018.0 |
| 20260830123743 | 74 | 360 | 1.0 | 3.0 | 0.00 | 0.00 | 0.00 | 89 | 1018.0 |
| 20260830123623 | 75 | 360 | 0.0 | 4.0 | 0.00 | 0.00 | 0.00 | 89 | 1018.0 |
| 20260830123525 | 74 | 360 | 0.0 | 4.0 | 0.00 | 0.00 | 0.00 | 89 | 1018.0 |
| 20260830123430 | 74 | 360 | 1.0 | 4.0 | 0.00 | 0.00 | 0.00 | 89 | 1018.0 |
| 20260830123330 | 74 | 360 | 1.0 | 4.0 | 0.00 | 0.00 | 0.00 | 89 | 1018.0 |
| 20260830123231 | 74 | 360 | 2.0 | 4.0 | 0.00 | 0.00 | 0.00 | 89 | 1018.0 |
| 20260830123131 | 74 | 360 | 2.0 | 4.0 | 0.00 | 0.00 | 0.00 | 89 | 1018.0 |
| 20260830123031 | 74 | 360 | 2.0 | 4.0 | 0.00 | 0.00 | 0.00 | 89 | 1017.9 |
| 20260830122931 | 74 | 360 | 2.0 | 4.0 | 0.00 | 0.00 | 0.00 | 89 | 1018.0 |
| 20260830122817 | 74 | 360 | 2.0 | 4.0 | 0.00 | 0.00 | 0.00 | 89 | 1017.9 |
| 20260830122737 | 74 | 360 | 2.0 | 4.0 | 0.00 | 0.00 | 0.00 | 89 | 1017.8 |
| 20260830122617 | 74 | 360 | 2.0 | 4.0 | 0.00 | 0.00 | 0.00 | 88 | 1017.9 |
| 20260830122538 | 74 | 360 | 2.0 | 4.0 | 0.00 | 0.00 | 0.00 | 88 | 1017.9 |
| 20260830122416 | 74 | 360 | 2.0 | 4.0 | 0.00 | 0.00 | 0.00 | 88 | 1017.9 |
| 20260830122318 | 74 | 360 | 3.0 | 4.0 | 0.00 | 0.00 | 0.00 | 88 | 1017.9 |
| 20260830122216 | 75 | 360 | 3.0 | 4.0 | 0.00 | 0.00 | 0.00 | 88 | 1017.9 |
| 20260830122137 | 75 | 360 | 3.0 | 4.0 | 0.00 | 0.00 | 0.00 | 88 | 1017.7 |
| 20260830122021 | 75 | 360 | 2.0 | 4.0 | 0.00 | 0.00 | 0.00 | 88 | 1017.7 |
| 20260830121920 | 75 | 360 | 2.0 | 4.0 | 0.00 | 0.00 | 0.00 | 88 | 1017.7 |
| 20260830121821 | 75 | 360 | 2.0 | 3.0 | 0.00 | 0.00 | 0.00 | 88 | 1017.7 |
| 20260830121721 | 75 | 360 | 1.0 | 3.0 | 0.00 | 0.00 | 0.00 | 88 | 1017.6 |
| 20260830121621 | 75 | 360 | 2.0 | 3.0 | 0.00 | 0.00 | 0.00 | 88 | 1017.6 |
| 20260830121523 | 75 | 360 | 2.0 | 3.0 | 0.00 | 0.00 | 0.00 | 88 | 1017.6 |
| 20260830121423 | 75 | 360 | 2.0 | 5.0 | 0.00 | 0.00 | 0.00 | 88 | 1017.6 |
| 20260830121348 | 75 | 360 | 1.0 | 5.0 | 0.00 | 0.00 | 0.00 | 88 | 1017.6 |
| 20260830121247 | 75 | 360 | 1.0 | 5.0 | 0.00 | 0.00 | 0.00 | 88 | 1017.6 |
| 20260830121127 | 75 | 360 | 1.0 | 5.0 | 0.00 | 0.00 | 0.00 | 88 | 1017.6 |
| 20260830121028 | 75 | 360 | 1.0 | 5.0 | 0.00 | 0.00 | 0.00 | 89 | 1017.5 |
| 20260830120948 | 75 | 360 | 1.0 | 5.0 | 0.00 | 0.00 | 0.00 | 89 | 1017.5 |
| 20260830120827 | 75 | 360 | 1.0 | 5.0 | 0.00 | 0.00 | 0.00 | 89 | 1017.5 |
| 20260830120748 | 75 | 360 | 2.0 | 5.0 | 0.00 | 0.00 | 0.00 | 88 | 1017.5 |
| 20260830120627 | 75 | 360 | 2.0 | 5.0 | 0.00 | 0.00 | 0.00 | 88 | 1017.5 |
| 20260830120548 | 75 | 360 | 2.0 | 5.0 | 0.00 | 0.00 | 0.00 | 88 | 1017.5 |
| 20260830120433 | 75 | 360 | 2.0 | 3.0 | 0.00 | 0.00 | 0.00 | 88 | 1017.5 |
| 20260830120334 | 75 | 360 | 1.0 | 3.0 | 0.00 | 0.00 | 0.00 | 88 | 1017.5 |
| 20260830120235 | 75 | 360 | 1.0 | 3.0 | 0.00 | 0.00 | 0.00 | 88 | 1017.5 |
| 20260830120135 | 75 | 360 | 1.0 | 3.0 | 0.00 | 0.00 | 0.00 | 88 | 1017.5 |
| 20260830120035 | 75 | 360 | 1.0 | 3.0 | 0.00 | 0.00 | 0.00 | 88 | 1017.5 |
| 20260830115935 | 75 | 360 | 2.0 | 4.0 | 0.00 | 0.00 | 0.00 | 88 | 1017.4 |
| 20260830115821 | 75 | 360 | 2.0 | 4.0 | 0.00 | 0.00 | 0.00 | 88 | 1017.5 |
| 20260830115721 | 75 | 360 | 2.0 | 4.0 | 0.00 | 0.00 | 0.00 | 88 | 1017.5 |
| 20260830115622 | 75 | 360 | 2.0 | 4.0 | 0.00 | 0.00 | 0.00 | 88 | 1017.5 |
| 20260830115521 | 75 | 360 | 2.0 | 4.0 | 0.00 | 0.00 | 0.00 | 88 | 1017.5 |
| 20260830115420 | 75 | 360 | 2.0 | 4.0 | 0.00 | 0.00 | 0.00 | 88 | 1017.5 |
| 20260830115321 | 75 | 360 | 2.0 | 4.0 | 0.00 | 0.00 | 0.00 | 88 | 1017.5 |
| 20260830115222 | 75 | 360 | 2.0 | 4.0 | 0.00 | 0.00 | 0.00 | 88 | 1017.5 |
| 20260830115126 | 75 | 360 | 2.0 | 4.0 | 0.00 | 0.00 | 0.00 | 88 | 1017.4 |
| 20260830115027 | 75 | 360 | 2.0 | 3.0 | 0.00 | 0.00 | 0.00 | 88 | 1017.5 |
| 20260830114926 | 75 | 360 | 2.0 | 4.0 | 0.00 | 0.00 | 0.00 | 87 | 1017.5 |
| 20260830114827 | 75 | 360 | 2.0 | 4.0 | 0.00 | 0.00 | 0.00 | 88 | 1017.5 |
| 20260830114727 | 75 | 360 | 2.0 | 4.0 | 0.00 | 0.00 | 0.00 | 87 | 1017.6 |
| 20260830114627 | 75 | 360 | 1.0 | 4.0 | 0.00 | 0.00 | 0.00 | 87 | 1017.5 |
| 20260830114528 | 75 | 360 | 2.0 | 4.0 | 0.00 | 0.00 | 0.00 | 87 | 1017.5 |
| 20260830114432 | 75 | 360 | 2.0 | 4.0 | 0.00 | 0.00 | 0.00 | 87 | 1017.5 |
| 20260830114332 | 75 | 360 | 2.0 | 4.0 | 0.00 | 0.00 | 0.00 | 87 | 1017.5 |
| 20260830114231 | 75 | 360 | 2.0 | 4.0 | 0.00 | 0.00 | 0.00 | 87 | 1017.5 |
| 20260830114132 | 75 | 360 | 2.0 | 4.0 | 0.00 | 0.00 | 0.00 | 87 | 1017.5 |
| 20260830114053 | 75 | 360 | 2.0 | 4.0 | 0.00 | 0.00 | 0.00 | 87 | 1017.5 |
| 20260830113932 | 75 | 360 | 1.0 | 4.0 | 0.00 | 0.00 | 0.00 | 87 | 1017.5 |
| 20260830113853 | 75 | 360 | 1.0 | 4.0 | 0.00 | 0.00 | 0.00 | 87 | 1017.5 |
| 20260830113717 | 75 | 360 | 1.0 | 6.0 | 0.00 | 0.00 | 0.00 | 87 | 1017.5 |
| 20260830113638 | 75 | 360 | 1.0 | 6.0 | 0.00 | 0.00 | 0.00 | 87 | 1017.5 |
| 20260830113517 | 75 | 360 | 1.0 | 6.0 | 0.00 | 0.00 | 0.00 | 87 | 1017.4 |
| 20260830113418 | 75 | 360 | 1.0 | 6.0 | 0.00 | 0.00 | 0.00 | 87 | 1017.4 |
| 20260830113320 | 75 | 360 | 1.0 | 6.0 | 0.00 | 0.00 | 0.00 | 87 | 1017.4 |
| 20260830113220 | 75 | 360 | 2.0 | 6.0 | 0.00 | 0.00 | 0.00 | 87 | 1017.4 |
| 20260830113120 | 75 | 360 | 2.0 | 6.0 | 0.00 | 0.00 | 0.00 | 87 | 1017.4 |
| 20260830113026 | 75 | 360 | 2.0 | 6.0 | 0.00 | 0.00 | 0.00 | 87 | 1017.5 |
| 20260830112927 | 75 | 360 | 3.0 | 6.0 | 0.00 | 0.00 | 0.00 | 87 | 1017.5 |
| 20260830112828 | 75 | 360 | 3.0 | 6.0 | 0.00 | 0.00 | 0.00 | 87 | 1017.4 |
| 20260830112727 | 75 | 360 | 3.0 | 6.0 | 0.00 | 0.00 | 0.00 | 87 | 1017.4 |
| 20260830112627 | 75 | 360 | 3.0 | 5.0 | 0.00 | 0.00 | 0.00 | 87 | 1017.4 |
| 20260830112548 | 75 | 360 | 2.0 | 5.0 | 0.00 | 0.00 | 0.00 | 87 | 1017.3 |
| 20260830112428 | 75 | 360 | 2.0 | 5.0 | 0.00 | 0.00 | 0.00 | 87 | 1017.3 |
| 20260830112329 | 75 | 360 | 1.0 | 5.0 | 0.00 | 0.00 | 0.00 | 87 | 1017.3 |
| 20260830112232 | 75 | 360 | 1.0 | 5.0 | 0.00 | 0.00 | 0.00 | 87 | 1017.4 |
| 20260830112132 | 75 | 360 | 1.0 | 5.0 | 0.00 | 0.00 | 0.00 | 87 | 1017.3 |
| 20260830112052 | 75 | 360 | 2.0 | 5.0 | 0.00 | 0.00 | 0.00 | 86 | 1017.3 |
| 20260830111932 | 75 | 360 | 3.0 | 5.0 | 0.00 | 0.00 | 0.00 | 86 | 1017.3 |
| 20260830111833 | 75 | 360 | 2.0 | 5.0 | 0.00 | 0.00 | 0.00 | 86 | 1017.3 |
| 20260830111731 | 75 | 360 | 2.0 | 4.0 | 0.00 | 0.00 | 0.00 | 86 | 1017.3 |
| 20260830111632 | 75 | 360 | 1.0 | 4.0 | 0.00 | 0.00 | 0.00 | 86 | 1017.3 |
| 20260830111516 | 75 | 360 | 2.0 | 4.0 | 0.00 | 0.00 | 0.00 | 86 | 1017.3 |
| 20260830111437 | 75 | 360 | 2.0 | 4.0 | 0.00 | 0.00 | 0.00 | 86 | 1017.3 |
| 20260830111317 | 75 | 360 | 2.0 | 4.0 | 0.00 | 0.00 | 0.00 | 86 | 1017.2 |
| 20260830111217 | 75 | 360 | 2.0 | 4.0 | 0.00 | 0.00 | 0.00 | 86 | 1017.3 |
| 20260830111138 | 75 | 360 | 2.0 | 4.0 | 0.00 | 0.00 | 0.00 | 86 | 1017.3 |
| 20260830111018 | 75 | 360 | 2.0 | 4.0 | 0.00 | 0.00 | 0.00 | 86 | 1017.3 |
| 20260830110918 | 75 | 360 | 2.0 | 4.0 | 0.00 | 0.00 | 0.00 | 86 | 1017.3 |
| 20260830110817 | 75 | 360 | 2.0 | 4.0 | 0.00 | 0.00 | 0.00 | 86 | 1017.3 |
| 20260830110721 | 75 | 360 | 1.0 | 4.0 | 0.00 | 0.00 | 0.00 | 86 | 1017.3 |
| 20260830110642 | 75 | 360 | 1.0 | 4.0 | 0.00 | 0.00 | 0.00 | 86 | 1017.3 |
| 20260830110516 | 75 | 360 | 1.0 | 3.0 | 0.00 | 0.00 | 0.00 | 86 | 1017.3 |
| 20260830110416 | 75 | 360 | 1.0 | 3.0 | 0.00 | 0.00 | 0.00 | 86 | 1017.3 |
| 20260830110316 | 76 | 360 | 1.0 | 3.0 | 0.00 | 0.00 | 0.00 | 86 | 1017.3 |
| 20260830110217 | 76 | 360 | 1.0 | 3.0 | 0.00 | 0.00 | 0.00 | 86 | 1017.2 |
| 20260830110118 | 76 | 360 | 1.0 | 5.0 | 0.00 | 0.00 | 0.00 | 86 | 1017.2 |
| 20260830110022 | 76 | 360 | 0.0 | 5.0 | 0.00 | 0.00 | 0.00 | 86 | 1017.3 |
| 20260830105923 | 76 | 360 | 1.0 | 5.0 | 0.00 | 0.00 | 0.00 | 86 | 1017.2 |
| 20260830105826 | 76 | 360 | 1.0 | 5.0 | 0.00 | 0.00 | 0.00 | 86 | 1017.2 |
| 20260830105726 | 76 | 360 | 2.0 | 5.0 | 0.00 | 0.00 | 0.00 | 86 | 1017.1 |
| 20260830105626 | 76 | 360 | 2.0 | 5.0 | 0.00 | 0.00 | 0.00 | 86 | 1017.2 |
| 20260830105526 | 76 | 360 | 2.0 | 5.0 | 0.00 | 0.00 | 0.00 | 86 | 1017.2 |
| 20260830105431 | 76 | 360 | 2.0 | 6.0 | 0.00 | 0.00 | 0.00 | 86 | 1017.2 |
| 20260830105331 | 75 | 360 | 3.0 | 6.0 | 0.00 | 0.00 | 0.00 | 86 | 1017.2 |
| 20260830105232 | 76 | 360 | 2.0 | 6.0 | 0.00 | 0.00 | 0.00 | 86 | 1017.2 |
| 20260830105133 | 76 | 360 | 2.0 | 6.0 | 0.00 | 0.00 | 0.00 | 85 | 1017.1 |
| 20260830105034 | 76 | 360 | 2.0 | 8.0 | 0.00 | 0.00 | 0.00 | 85 | 1017.1 |
| 20260830104933 | 76 | 360 | 2.0 | 8.0 | 0.00 | 0.00 | 0.00 | 85 | 1017.0 |
| 20260830104854 | 76 | 360 | 2.0 | 8.0 | 0.00 | 0.00 | 0.00 | 85 | 1017.1 |
| 20260830104716 | 76 | 360 | 3.0 | 8.0 | 0.00 | 0.00 | 0.00 | 85 | 1017.0 |
| 20260830104635 | 76 | 360 | 3.0 | 8.0 | 0.00 | 0.00 | 0.00 | 85 | 1017.1 |
| 20260830104517 | 76 | 360 | 2.0 | 8.0 | 0.00 | 0.00 | 0.00 | 85 | 1017.1 |
| 20260830104417 | 76 | 360 | 2.0 | 8.0 | 0.00 | 0.00 | 0.00 | 85 | 1017.0 |
| 20260830104317 | 76 | 200 | 3.0 | 8.0 | 0.00 | 0.00 | 0.00 | 85 | 1017.1 |
| 20260830104218 | 76 | 360 | 3.0 | 8.0 | 0.00 | 0.00 | 0.00 | 85 | 1017.2 |
| 20260830104119 | 76 | 360 | 3.0 | 8.0 | 0.00 | 0.00 | 0.00 | 85 | 1017.1 |
| 20260830104024 | 76 | 360 | 2.0 | 6.0 | 0.00 | 0.00 | 0.00 | 85 | 1017.2 |
| 20260830103925 | 76 | 360 | 2.0 | 5.0 | 0.00 | 0.00 | 0.00 | 85 | 1017.1 |
| 20260830103826 | 76 | 225 | 1.0 | 5.0 | 0.00 | 0.00 | 0.00 | 85 | 1017.2 |
| 20260830103747 | 76 | 225 | 2.0 | 5.0 | 0.00 | 0.00 | 0.00 | 85 | 1017.1 |
| 20260830103626 | 76 | 360 | 2.0 | 5.0 | 0.00 | 0.00 | 0.00 | 85 | 1017.1 |
| 20260830103526 | 76 | 360 | 2.0 | 5.0 | 0.00 | 0.00 | 0.00 | 85 | 1017.1 |
| 20260830103427 | 76 | 360 | 1.0 | 5.0 | 0.00 | 0.00 | 0.00 | 85 | 1017.0 |
| 20260830103332 | 76 | 360 | 1.0 | 8.0 | 0.00 | 0.00 | 0.00 | 85 | 1017.0 |
| 20260830103232 | 76 | 360 | 1.0 | 8.0 | 0.00 | 0.00 | 0.00 | 85 | 1017.0 |
| 20260830103132 | 76 | 360 | 1.0 | 8.0 | 0.00 | 0.00 | 0.00 | 85 | 1017.0 |
| 20260830103031 | 76 | 360 | 2.0 | 8.0 | 0.00 | 0.00 | 0.00 | 85 | 1017.0 |
| 20260830102932 | 76 | 360 | 2.0 | 8.0 | 0.00 | 0.00 | 0.00 | 84 | 1017.1 |
| 20260830102835 | 76 | 360 | 3.0 | 8.0 | 0.00 | 0.00 | 0.00 | 84 | 1017.0 |
| 20260830102718 | 76 | 360 | 3.0 | 8.0 | 0.00 | 0.00 | 0.00 | 84 | 1017.0 |
| 20260830102639 | 76 | 360 | 2.0 | 8.0 | 0.00 | 0.00 | 0.00 | 84 | 1017.0 |
| 20260830102518 | 76 | 360 | 2.0 | 8.0 | 0.00 | 0.00 | 0.00 | 84 | 1017.0 |
| 20260830102439 | 76 | 360 | 2.0 | 8.0 | 0.00 | 0.00 | 0.00 | 84 | 1017.0 |
| 20260830102318 | 76 | 360 | 2.0 | 8.0 | 0.00 | 0.00 | 0.00 | 84 | 1017.1 |
| 20260830102220 | 76 | 360 | 2.0 | 8.0 | 0.00 | 0.00 | 0.00 | 84 | 1017.0 |
| 20260830102120 | 76 | 360 | 2.0 | 8.0 | 0.00 | 0.00 | 0.00 | 84 | 1017.0 |
| 20260830102041 | 76 | 360 | 2.0 | 8.0 | 0.00 | 0.00 | 0.00 | 84 | 1016.9 |
| 20260830101924 | 76 | 360 | 2.0 | 8.0 | 0.00 | 0.00 | 0.00 | 84 | 1017.0 |
| 20260830101825 | 76 | 360 | 2.0 | 8.0 | 0.00 | 0.00 | 0.00 | 84 | 1017.0 |
| 20260830101726 | 76 | 360 | 2.0 | 8.0 | 0.00 | 0.00 | 0.00 | 84 | 1017.0 |
| 20260830101626 | 76 | 360 | 2.0 | 5.0 | 0.00 | 0.00 | 0.00 | 84 | 1017.1 |
| 20260830101547 | 76 | 360 | 3.0 | 8.0 | 0.00 | 0.00 | 0.00 | 84 | 1017.0 |
| 20260830101427 | 76 | 360 | 3.0 | 8.0 | 0.00 | 0.00 | 0.00 | 84 | 1017.0 |
| 20260830101327 | 76 | 360 | 2.0 | 8.0 | 0.00 | 0.00 | 0.00 | 84 | 1017.0 |
| 20260830101231 | 76 | 360 | 1.0 | 8.0 | 0.00 | 0.00 | 0.00 | 84 | 1017.0 |
| 20260830101152 | 76 | 360 | 1.0 | 8.0 | 0.00 | 0.00 | 0.00 | 84 | 1017.0 |
| 20260830101031 | 76 | 360 | 1.0 | 8.0 | 0.00 | 0.00 | 0.00 | 84 | 1017.0 |
| 20260830100952 | 76 | 360 | 2.0 | 8.0 | 0.00 | 0.00 | 0.00 | 84 | 1016.9 |
| 20260830100831 | 76 | 360 | 3.0 | 8.0 | 0.00 | 0.00 | 0.00 | 84 | 1016.9 |
| 20260830100733 | 76 | 360 | 3.0 | 8.0 | 0.00 | 0.00 | 0.00 | 84 | 1016.9 |
| 20260830100654 | 76 | 360 | 3.0 | 8.0 | 0.00 | 0.00 | 0.00 | 84 | 1016.9 |
| 20260830100532 | 76 | 360 | 2.0 | 8.0 | 0.00 | 0.00 | 0.00 | 83 | 1016.9 |
| 20260830100417 | 76 | 360 | 3.0 | 8.0 | 0.00 | 0.00 | 0.00 | 83 | 1016.9 |
| 20260830100338 | 76 | 360 | 3.0 | 8.0 | 0.00 | 0.00 | 0.00 | 83 | 1016.9 |
| 20260830100237 | 76 | 360 | 2.0 | 8.0 | 0.00 | 0.00 | 0.00 | 83 | 1017.0 |
| 20260830100116 | 76 | 360 | 2.0 | 6.0 | 0.00 | 0.00 | 0.00 | 83 | 1017.0 |
| 20260830100016 | 76 | 360 | 2.0 | 6.0 | 0.00 | 0.00 | 0.00 | 83 | 1017.0 |
| 20260830095917 | 76 | 360 | 2.0 | 6.0 | 0.00 | 0.00 | 0.00 | 83 | 1017.0 |
| 20260830095818 | 76 | 360 | 2.0 | 6.0 | 0.00 | 0.00 | 0.00 | 83 | 1017.0 |
| 20260830095718 | 76 | 360 | 2.0 | 6.0 | 0.00 | 0.00 | 0.00 | 83 | 1017.1 |
| 20260830095642 | 76 | 360 | 2.0 | 6.0 | 0.00 | 0.00 | 0.00 | 83 | 1017.1 |
| 20260830095522 | 76 | 360 | 2.0 | 6.0 | 0.00 | 0.00 | 0.00 | 83 | 1017.1 |
| 20260830095423 | 76 | 360 | 1.0 | 5.0 | 0.00 | 0.00 | 0.00 | 83 | 1017.0 |
| 20260830095323 | 76 | 360 | 1.0 | 5.0 | 0.00 | 0.00 | 0.00 | 83 | 1017.1 |
| 20260830095223 | 76 | 360 | 2.0 | 5.0 | 0.00 | 0.00 | 0.00 | 83 | 1017.1 |
| 20260830095124 | 76 | 360 | 2.0 | 6.0 | 0.00 | 0.00 | 0.00 | 83 | 1017.0 |
| 20260830095024 | 76 | 360 | 2.0 | 9.0 | 0.00 | 0.00 | 0.00 | 83 | 1017.1 |
| 20260830094929 | 76 | 360 | 2.0 | 9.0 | 0.00 | 0.00 | 0.00 | 83 | 1017.0 |
| 20260830094831 | 76 | 360 | 2.0 | 9.0 | 0.00 | 0.00 | 0.00 | 83 | 1017.0 |
| 20260830094730 | 77 | 360 | 2.0 | 9.0 | 0.00 | 0.00 | 0.00 | 83 | 1017.1 |
| 20260830094631 | 77 | 360 | 2.0 | 9.0 | 0.00 | 0.00 | 0.00 | 82 | 1017.0 |
| 20260830094531 | 76 | 360 | 2.0 | 9.0 | 0.00 | 0.00 | 0.00 | 82 | 1017.0 |
| 20260830094452 | 76 | 360 | 2.0 | 9.0 | 0.00 | 0.00 | 0.00 | 82 | 1017.0 |
| 20260830094331 | 76 | 360 | 4.0 | 9.0 | 0.00 | 0.00 | 0.00 | 82 | 1017.0 |
| 20260830094235 | 76 | 360 | 4.0 | 9.0 | 0.00 | 0.00 | 0.00 | 82 | 1017.0 |
| 20260830094117 | 76 | 360 | 2.0 | 9.0 | 0.00 | 0.00 | 0.00 | 82 | 1017.0 |
| 20260830094017 | 76 | 360 | 1.0 | 8.0 | 0.00 | 0.00 | 0.00 | 82 | 1017.0 |
| 20260830093917 | 76 | 360 | 2.0 | 8.0 | 0.00 | 0.00 | 0.00 | 82 | 1017.0 |
| 20260830093817 | 76 | 360 | 2.0 | 8.0 | 0.00 | 0.00 | 0.00 | 82 | 1017.0 |
| 20260830093718 | 77 | 360 | 2.0 | 8.0 | 0.00 | 0.00 | 0.00 | 82 | 1017.0 |
| 20260830093622 | 77 | 360 | 2.0 | 8.0 | 0.00 | 0.00 | 0.00 | 82 | 1017.0 |
| 20260830093523 | 77 | 360 | 3.0 | 8.0 | 0.00 | 0.00 | 0.00 | 82 | 1017.0 |
| 20260830093425 | 77 | 360 | 2.0 | 6.0 | 0.00 | 0.00 | 0.00 | 81 | 1017.0 |
| 20260830093325 | 77 | 360 | 2.0 | 6.0 | 0.00 | 0.00 | 0.00 | 81 | 1017.0 |
| 20260830093226 | 77 | 360 | 2.0 | 6.0 | 0.00 | 0.00 | 0.00 | 81 | 1016.9 |
| 20260830093147 | 77 | 360 | 3.0 | 6.0 | 0.00 | 0.00 | 0.00 | 81 | 1017.0 |
| 20260830093027 | 77 | 360 | 3.0 | 6.0 | 0.00 | 0.00 | 0.00 | 81 | 1017.0 |
| 20260830092931 | 77 | 360 | 3.0 | 6.0 | 0.00 | 0.00 | 0.00 | 81 | 1017.0 |
| 20260830092833 | 77 | 360 | 3.0 | 6.0 | 0.00 | 0.00 | 0.00 | 81 | 1017.0 |
| 20260830092732 | 77 | 360 | 2.0 | 5.0 | 0.00 | 0.00 | 0.00 | 81 | 1016.9 |
| 20260830092632 | 77 | 360 | 2.0 | 5.0 | 0.00 | 0.00 | 0.00 | 81 | 1017.0 |
| 20260830092533 | 77 | 159 | 2.0 | 6.0 | 0.00 | 0.00 | 0.00 | 81 | 1017.0 |
| 20260830092434 | 77 | 159 | 2.0 | 6.0 | 0.00 | 0.00 | 0.00 | 81 | 1017.0 |
| 20260830092318 | 77 | 360 | 3.0 | 5.0 | 0.00 | 0.00 | 0.00 | 81 | 1017.0 |
| 20260830092218 | 77 | 360 | 3.0 | 5.0 | 0.00 | 0.00 | 0.00 | 81 | 1016.9 |
| 20260830092119 | 77 | 360 | 2.0 | 5.0 | 0.00 | 0.00 | 0.00 | 81 | 1016.9 |
| 20260830092020 | 77 | 360 | 2.0 | 11.0 | 0.00 | 0.00 | 0.00 | 81 | 1016.9 |
| 20260830091921 | 77 | 360 | 2.0 | 11.0 | 0.00 | 0.00 | 0.00 | 81 | 1017.0 |
| 20260830091823 | 77 | 360 | 2.0 | 11.0 | 0.00 | 0.00 | 0.00 | 81 | 1016.9 |
| 20260830091722 | 77 | 360 | 2.0 | 11.0 | 0.00 | 0.00 | 0.00 | 81 | 1016.9 |
| 20260830091627 | 77 | 360 | 3.0 | 11.0 | 0.00 | 0.00 | 0.00 | 81 | 1017.0 |
| 20260830091528 | 77 | 360 | 3.0 | 11.0 | 0.00 | 0.00 | 0.00 | 81 | 1016.9 |
| 20260830091428 | 77 | 360 | 4.0 | 11.0 | 0.00 | 0.00 | 0.00 | 81 | 1016.9 |
| 20260830091349 | 77 | 360 | 4.0 | 11.0 | 0.00 | 0.00 | 0.00 | 81 | 1017.0 |
| 20260830091227 | 77 | 360 | 4.0 | 11.0 | 0.00 | 0.00 | 0.00 | 81 | 1016.9 |
| 20260830091128 | 77 | 360 | 3.0 | 11.0 | 0.00 | 0.00 | 0.00 | 80 | 1016.9 |
| 20260830091049 | 77 | 360 | 3.0 | 8.0 | 0.00 | 0.00 | 0.00 | 80 | 1016.9 |
| 20260830090929 | 77 | 360 | 3.0 | 6.0 | 0.00 | 0.00 | 0.00 | 80 | 1016.8 |
| 20260830090833 | 77 | 360 | 2.0 | 6.0 | 0.00 | 0.00 | 0.00 | 80 | 1016.9 |
| 20260830090734 | 77 | 360 | 2.0 | 6.0 | 0.00 | 0.00 | 0.00 | 80 | 1017.0 |
| 20260830090635 | 77 | 360 | 2.0 | 6.0 | 0.00 | 0.00 | 0.00 | 80 | 1017.0 |
| 20260830090556 | 77 | 360 | 3.0 | 6.0 | 0.00 | 0.00 | 0.00 | 80 | 1017.0 |
| 20260830090436 | 77 | 360 | 3.0 | 9.0 | 0.00 | 0.00 | 0.00 | 80 | 1016.9 |
| 20260830090357 | 77 | 360 | 3.0 | 9.0 | 0.00 | 0.00 | 0.00 | 80 | 1017.0 |
| 20260830090235 | 77 | 360 | 2.0 | 9.0 | 0.00 | 0.00 | 0.00 | 80 | 1017.0 |
| 20260830090121 | 77 | 360 | 2.0 | 9.0 | 0.00 | 0.00 | 0.00 | 80 | 1017.0 |
| 20260830090042 | 77 | 360 | 2.0 | 9.0 | 0.00 | 0.00 | 0.00 | 80 | 1017.0 |
| 20260830085916 | 77 | 360 | 3.0 | 9.0 | 0.00 | 0.00 | 0.00 | 80 | 1017.0 |
| 20260830085818 | 77 | 360 | 4.0 | 9.0 | 0.00 | 0.00 | 0.00 | 80 | 1017.0 |
| 20260830085718 | 77 | 360 | 5.0 | 9.0 | 0.00 | 0.00 | 0.00 | 80 | 1017.1 |
| 20260830085618 | 77 | 360 | 5.0 | 9.0 | 0.00 | 0.00 | 0.00 | 80 | 1017.0 |
| 20260830085539 | 77 | 360 | 3.0 | 9.0 | 0.00 | 0.00 | 0.00 | 80 | 1017.0 |
| 20260830085442 | 77 | 360 | 3.0 | 9.0 | 0.00 | 0.00 | 0.00 | 79 | 1017.0 |
| 20260830085322 | 77 | 360 | 2.0 | 9.0 | 0.00 | 0.00 | 0.00 | 79 | 1017.0 |
| 20260830085222 | 78 | 360 | 2.0 | 9.0 | 0.00 | 0.00 | 0.00 | 80 | 1017.1 |
| 20260830085123 | 78 | 360 | 2.0 | 9.0 | 0.00 | 0.00 | 0.00 | 80 | 1017.0 |
| 20260830085043 | 78 | 360 | 2.0 | 9.0 | 0.00 | 0.00 | 0.00 | 79 | 1017.0 |
| 20260830085003 | 78 | 360 | 3.0 | 9.0 | 0.00 | 0.00 | 0.00 | 79 | 1017.1 |
| 20260830084816 | 78 | 360 | 3.0 | 9.0 | 0.00 | 0.00 | 0.00 | 79 | 1017.1 |
| 20260830084720 | 78 | 360 | 3.0 | 9.0 | 0.00 | 0.00 | 0.00 | 79 | 1017.1 |
| 20260830084620 | 78 | 360 | 3.0 | 9.0 | 0.00 | 0.00 | 0.00 | 79 | 1017.1 |
| 20260830084521 | 78 | 360 | 3.0 | 8.0 | 0.00 | 0.00 | 0.00 | 79 | 1017.1 |
| 20260830084422 | 78 | 360 | 3.0 | 8.0 | 0.00 | 0.00 | 0.00 | 79 | 1017.1 |
| 20260830084322 | 78 | 360 | 2.0 | 8.0 | 0.00 | 0.00 | 0.00 | 79 | 1017.1 |
| 20260830084243 | 78 | 360 | 2.0 | 8.0 | 0.00 | 0.00 | 0.00 | 79 | 1017.1 |
| 20260830084122 | 78 | 360 | 3.0 | 8.0 | 0.00 | 0.00 | 0.00 | 79 | 1017.1 |
| 20260830084021 | 78 | 360 | 3.0 | 8.0 | 0.00 | 0.00 | 0.00 | 79 | 1017.1 |
| 20260830083945 | 78 | 360 | 3.0 | 8.0 | 0.00 | 0.00 | 0.00 | 79 | 1017.1 |
| 20260830083826 | 78 | 360 | 3.0 | 8.0 | 0.00 | 0.00 | 0.00 | 79 | 1017.1 |
| 20260830083727 | 78 | 360 | 3.0 | 8.0 | 0.00 | 0.00 | 0.00 | 79 | 1017.1 |
| 20260830083627 | 78 | 360 | 2.0 | 8.0 | 0.00 | 0.00 | 0.00 | 80 | 1017.0 |
| 20260830083527 | 78 | 360 | 3.0 | 8.0 | 0.00 | 0.00 | 0.00 | 80 | 1017.0 |
| 20260830083428 | 78 | 360 | 3.0 | 8.0 | 0.00 | 0.00 | 0.00 | 79 | 1017.0 |
| 20260830083328 | 78 | 360 | 3.0 | 8.0 | 0.00 | 0.00 | 0.00 | 79 | 1017.0 |
| 20260830083232 | 78 | 360 | 3.0 | 8.0 | 0.00 | 0.00 | 0.00 | 79 | 1017.1 |
| 20260830083133 | 78 | 360 | 3.0 | 8.0 | 0.00 | 0.00 | 0.00 | 79 | 1017.0 |
| 20260830083033 | 78 | 360 | 3.0 | 8.0 | 0.00 | 0.00 | 0.00 | 79 | 1017.0 |
| 20260830082933 | 78 | 360 | 2.0 | 10.0 | 0.00 | 0.00 | 0.00 | 79 | 1017.0 |
| 20260830082836 | 78 | 360 | 3.0 | 10.0 | 0.00 | 0.00 | 0.00 | 79 | 1017.0 |
| 20260830082735 | 78 | 360 | 3.0 | 10.0 | 0.00 | 0.00 | 0.00 | 79 | 1017.0 |
| 20260830082620 | 78 | 360 | 3.0 | 10.0 | 0.00 | 0.00 | 0.00 | 79 | 1017.0 |
| 20260830082521 | 78 | 360 | 2.0 | 10.0 | 0.00 | 0.00 | 0.00 | 79 | 1017.0 |
| 20260830082421 | 78 | 360 | 3.0 | 10.0 | 0.00 | 0.00 | 0.00 | 78 | 1017.0 |
| 20260830082322 | 78 | 360 | 4.0 | 15.0 | 0.00 | 0.00 | 0.00 | 78 | 1017.0 |
| 20260830082242 | 78 | 360 | 4.0 | 15.0 | 0.00 | 0.00 | 0.00 | 78 | 1017.0 |
| 20260830082142 | 78 | 360 | 3.0 | 15.0 | 0.00 | 0.00 | 0.00 | 78 | 1017.0 |
| 20260830082022 | 78 | 360 | 3.0 | 15.0 | 0.00 | 0.00 | 0.00 | 78 | 1017.0 |
| 20260830081927 | 78 | 360 | 4.0 | 15.0 | 0.00 | 0.00 | 0.00 | 78 | 1017.0 |
| 20260830081827 | 78 | 360 | 4.0 | 15.0 | 0.00 | 0.00 | 0.00 | 78 | 1017.0 |
| 20260830081728 | 78 | 360 | 5.0 | 15.0 | 0.00 | 0.00 | 0.00 | 78 | 1017.0 |
| 20260830081629 | 78 | 360 | 6.0 | 15.0 | 0.00 | 0.00 | 0.00 | 78 | 1017.0 |
| 20260830081529 | 78 | 360 | 6.0 | 15.0 | 0.00 | 0.00 | 0.00 | 78 | 1017.0 |
| 20260830081430 | 78 | 360 | 6.0 | 10.0 | 0.00 | 0.00 | 0.00 | 78 | 1017.0 |
| 20260830081329 | 78 | 360 | 4.0 | 9.0 | 0.00 | 0.00 | 0.00 | 78 | 1017.0 |
| 20260830081234 | 78 | 360 | 4.0 | 9.0 | 0.00 | 0.00 | 0.00 | 78 | 1017.0 |
| 20260830081134 | 78 | 360 | 5.0 | 11.0 | 0.00 | 0.00 | 0.00 | 78 | 1017.1 |
| 20260830081036 | 78 | 360 | 4.0 | 11.0 | 0.00 | 0.00 | 0.00 | 78 | 1017.0 |
| 20260830080935 | 79 | 360 | 5.0 | 11.0 | 0.00 | 0.00 | 0.00 | 78 | 1017.1 |
| 20260830080835 | 79 | 360 | 3.0 | 11.0 | 0.00 | 0.00 | 0.00 | 78 | 1017.1 |
| 20260830080756 | 79 | 360 | 3.0 | 11.0 | 0.00 | 0.00 | 0.00 | 78 | 1017.1 |
| 20260830080634 | 79 | 360 | 4.0 | 11.0 | 0.00 | 0.00 | 0.00 | 78 | 1017.1 |
| 20260830080519 | 79 | 360 | 5.0 | 14.0 | 0.00 | 0.00 | 0.00 | 78 | 1017.2 |
| 20260830080419 | 79 | 360 | 5.0 | 14.0 | 0.00 | 0.00 | 0.00 | 78 | 1017.1 |
| 20260830080319 | 79 | 360 | 3.0 | 14.0 | 0.00 | 0.00 | 0.00 | 78 | 1017.1 |
| 20260830080219 | 79 | 360 | 2.0 | 14.0 | 0.00 | 0.00 | 0.00 | 77 | 1017.1 |
| 20260830080141 | 79 | 360 | 2.0 | 14.0 | 0.00 | 0.00 | 0.00 | 77 | 1017.1 |
| 20260830080019 | 79 | 360 | 3.0 | 14.0 | 0.00 | 0.00 | 0.00 | 77 | 1017.0 |
| 20260830075940 | 79 | 360 | 5.0 | 14.0 | 0.00 | 0.00 | 0.00 | 77 | 1017.1 |
| 20260830075821 | 79 | 360 | 6.0 | 14.0 | 0.00 | 0.00 | 0.00 | 77 | 1017.2 |
| 20260830075718 | 79 | 360 | 7.0 | 14.0 | 0.00 | 0.00 | 0.00 | 77 | 1017.2 |
| 20260830075623 | 79 | 360 | 6.0 | 14.0 | 0.00 | 0.00 | 0.00 | 77 | 1017.2 |
| 20260830075545 | 79 | 360 | 6.0 | 14.0 | 0.00 | 0.00 | 0.00 | 77 | 1017.2 |
| 20260830075444 | 79 | 360 | 6.0 | 14.0 | 0.00 | 0.00 | 0.00 | 77 | 1017.2 |
| 20260830075323 | 79 | 360 | 7.0 | 14.0 | 0.00 | 0.00 | 0.00 | 77 | 1017.3 |
| 20260830075224 | 79 | 360 | 8.0 | 14.0 | 0.00 | 0.00 | 0.00 | 77 | 1017.2 |
| 20260830075125 | 79 | 360 | 10.0 | 14.0 | 0.00 | 0.00 | 0.00 | 77 | 1017.3 |
| 20260830075025 | 79 | 360 | 9.0 | 14.0 | 0.00 | 0.00 | 0.00 | 77 | 1017.3 |
| 20260830074946 | 79 | 360 | 7.0 | 14.0 | 0.00 | 0.00 | 0.00 | 77 | 1017.3 |
| 20260830074830 | 79 | 360 | 7.0 | 13.0 | 0.00 | 0.00 | 0.00 | 77 | 1017.3 |
| 20260830074729 | 79 | 360 | 7.0 | 13.0 | 0.00 | 0.00 | 0.00 | 77 | 1017.2 |
| 20260830074630 | 79 | 360 | 8.0 | 13.0 | 0.00 | 0.00 | 0.00 | 77 | 1017.2 |
| 20260830074530 | 79 | 360 | 6.0 | 12.0 | 0.00 | 0.00 | 0.00 | 77 | 1017.2 |
| 20260830074431 | 79 | 360 | 6.0 | 12.0 | 0.00 | 0.00 | 0.00 | 77 | 1017.3 |
| 20260830074333 | 79 | 360 | 5.0 | 12.0 | 0.00 | 0.00 | 0.00 | 77 | 1017.3 |
| 20260830074217 | 79 | 360 | 5.0 | 12.0 | 0.00 | 0.00 | 0.00 | 77 | 1017.3 |
| 20260830074138 | 79 | 360 | 5.0 | 11.0 | 0.00 | 0.00 | 0.00 | 77 | 1017.3 |
| 20260830074018 | 79 | 360 | 5.0 | 11.0 | 0.00 | 0.00 | 0.00 | 77 | 1017.3 |
| 20260830073918 | 79 | 360 | 5.0 | 11.0 | 0.00 | 0.00 | 0.00 | 77 | 1017.3 |
| 20260830073818 | 79 | 360 | 5.0 | 11.0 | 0.00 | 0.00 | 0.00 | 77 | 1017.3 |
| 20260830073718 | 79 | 360 | 5.0 | 11.0 | 0.00 | 0.00 | 0.00 | 77 | 1017.3 |
| 20260830073619 | 79 | 360 | 6.0 | 11.0 | 0.00 | 0.00 | 0.00 | 77 | 1017.4 |
| 20260830073520 | 79 | 360 | 7.0 | 13.0 | 0.00 | 0.00 | 0.00 | 77 | 1017.3 |
| 20260830073425 | 79 | 360 | 7.0 | 13.0 | 0.00 | 0.00 | 0.00 | 77 | 1017.3 |
| 20260830073326 | 79 | 360 | 6.0 | 13.0 | 0.00 | 0.00 | 0.00 | 77 | 1017.3 |
| 20260830073227 | 79 | 360 | 6.0 | 13.0 | 0.00 | 0.00 | 0.00 | 77 | 1017.3 |
| 20260830073128 | 79 | 171 | 7.0 | 13.0 | 0.00 | 0.00 | 0.00 | 77 | 1017.4 |
| 20260830073029 | 79 | 360 | 7.0 | 13.0 | 0.00 | 0.00 | 0.00 | 77 | 1017.3 |
| 20260830072929 | 79 | 360 | 7.0 | 13.0 | 0.00 | 0.00 | 0.00 | 77 | 1017.4 |
| 20260830072851 | 79 | 360 | 6.0 | 13.0 | 0.00 | 0.00 | 0.00 | 77 | 1017.3 |